[[{"header":{"parameterUnit":"m.s-1","parameterCategory":1,"la1":30.6,"la2":28.766,"lo1":-90.7593,"lo2":-88.6598,"dy":0.0162,"dx":0.0183,"nx":116,"ny":114,"refTime":"2023-03-31T06:00:00:Z","depth":0,"parameterNumber":2,"parameterNumberName":"U-component_of_WINDS"},"data":[0.0,0.0,0.0,0.0,0.0,0.0,0.0,0.0,0.0,0.0,0.0,0.0,0.0,0.0,0.0,0.0,0.0,0.0,0.0,0.0,0.0,0.0,0.0,0.0,0.0,0.0,0.0,0.0,0.0,0.0,0.0,0.0,0.0,0.0,0.0,0.0,0.0,0.0,0.0,0.0,0.0,0.0,0.0,0.0,0.0,0.0,0.0,0.0,0.0,0.0,0.0,0.0,0.0,0.0,0.0,0.0,0.0,0.0,0.0,0.0,0.0,0.0,0.0,0.0,0.0,0.0,0.0,0.0,0.0,0.0,0.0,0.0,0.0,0.0,0.0,0.0,0.0,0.0,0.0,0.0,0.0,0.0,0.0,0.0,0.0,0.0,0.0,0.0,0.0,0.0,0.0,0.0,0.0,0.0,0.0,0.0,0.0,0.0,0.0,0.0,0.0,0.0,0.0,0.0,0.0,0.0,0.0,0.0,0.0,0.0,0.0,0.0,0.0,0.0,0.0,0.0,0.0,0.0,0.0,0.0,0.0,0.0,0.0,0.0,0.0,0.0,0.0,0.0,0.0,0.0,0.0,0.0,0.0,0.0,0.0,0.0,0.0,0.0,0.0,0.0,0.0,0.0,0.0,0.0,0.0,0.0,0.0,0.0,0.0,0.0,0.0,0.0,0.0,0.0,0.0,0.0,0.0,0.0,0.0,0.0,0.0,0.0,0.0,0.0,0.0,0.0,0.0,0.0,0.0,0.0,0.0,0.0,0.0,0.0,0.0,0.0,0.0,0.0,0.0,0.0,0.0,0.0,0.0,0.0,0.0,0.0,0.0,0.0,0.0,0.0,0.0,0.0,0.0,0.0,0.0,0.0,0.0,0.0,0.0,0.0,0.0,0.0,0.0,0.0,0.0,0.0,0.0,0.0,0.0,0.0,0.0,0.0,0.0,0.0,0.0,0.0,0.0,0.0,0.0,0.0,0.0,0.0,0.0,0.0,0.0,0.0,0.0,0.0,0.0,0.0,0.0,0.0,0.0,0.0,0.0,0.0,0.0,0.0,0.0,0.0,0.0,0.0,0.0,0.0,0.0,0.0,0.0,0.0,0.0,0.0,0.0,0.0,0.0,0.0,0.0,0.0,0.0,0.0,0.0,0.0,0.0,0.0,0.0,0.0,0.0,0.0,0.0,0.0,0.0,0.0,0.0,0.0,0.0,0.0,0.0,0.0,0.0,0.0,0.0,0.0,0.0,0.0,0.0,0.0,0.0,0.0,0.0,0.0,0.0,0.0,0.0,0.0,0.0,0.0,0.0,0.0,0.0,0.0,0.0,0.0,0.0,0.0,0.0,0.0,0.0,0.0,0.0,0.0,0.0,0.0,0.0,0.0,0.0,0.0,0.0,0.0,0.0,0.0,0.0,0.0,0.0,0.0,0.0,0.0,0.0,0.0,0.0,0.0,0.0,0.0,0.0,0.0,0.0,0.0,0.0,0.0,0.0,0.0,0.0,0.0,0.0,0.0,0.0,0.0,0.0,0.0,0.0,0.0,0.0,0.0,0.0,0.0,0.0,0.0,0.0,0.0,0.0,0.0,0.0,0.0,0.0,0.0,0.0,0.0,0.0,0.0,0.0,0.0,0.0,0.0,0.0,0.0,0.0,0.0,0.0,0.0,0.0,0.0,0.0,0.0,0.0,0.0,0.0,0.0,0.0,0.0,0.0,0.0,0.0,0.0,0.0,0.0,0.0,0.0,0.0,0.0,0.0,0.0,0.0,0.0,0.0,0.0,0.0,0.0,0.0,0.0,0.0,0.0,0.0,0.0,0.0,0.0,0.0,0.0,0.0,0.0,0.0,0.0,0.0,0.0,0.0,0.0,0.0,0.0,0.0,0.0,0.0,0.0,0.0,0.0,0.0,0.0,0.0,0.0,0.0,0.0,0.0,0.0,0.0,0.0,0.0,0.0,0.0,0.0,0.0,0.0,0.0,0.0,0.0,0.0,0.0,0.0,0.0,0.0,0.0,0.0,0.0,0.0,0.0,0.0,0.0,0.0,0.0,0.0,0.0,0.0,0.0,0.0,0.0,0.0,0.0,0.0,0.0,0.0,0.0,0.0,0.0,0.0,0.0,0.0,0.0,0.0,0.0,0.0,0.0,0.0,0.0,0.0,0.0,0.0,0.0,0.0,0.0,0.0,0.0,0.0,0.0,0.0,0.0,0.0,0.0,0.0,0.0,0.0,0.0,0.0,0.0,0.0,0.0,0.0,0.0,0.0,0.0,0.0,0.0,0.0,0.0,0.0,0.0,0.0,0.0,0.0,0.0,0.0,0.0,0.0,0.0,0.0,0.0,0.0,0.0,0.0,0.0,0.0,0.0,0.0,0.0,0.0,0.0,0.0,0.0,0.0,0.0,0.0,0.0,0.0,0.0,0.0,0.0,0.0,0.0,0.0,0.0,0.0,0.0,0.0,0.0,0.0,0.0,0.0,0.0,0.0,0.0,0.0,0.0,0.0,0.0,0.0,0.0,0.0,0.0,0.0,0.0,0.0,0.0,0.0,0.0,0.0,0.0,0.0,0.0,0.0,0.0,0.0,0.0,0.0,0.0,0.0,0.0,0.0,0.0,0.0,0.0,0.0,0.0,0.0,0.0,0.0,0.0,0.0,0.0,0.0,0.0,0.0,0.0,0.0,0.0,0.0,0.0,0.0,0.0,0.0,0.0,0.0,0.0,0.0,0.0,0.0,0.0,0.0,0.0,0.0,0.0,0.0,0.0,0.0,0.0,0.0,0.0,0.0,0.0,0.0,0.0,0.0,0.0,0.0,0.0,0.0,0.0,0.0,0.0,0.0,0.0,0.0,0.0,0.0,0.0,0.0,0.0,0.0,0.0,0.0,0.0,0.0,0.0,0.0,0.0,0.0,0.0,0.0,0.0,0.0,0.0,0.0,0.0,0.0,0.0,0.0,0.0,0.0,0.0,0.0,0.0,0.0,0.0,0.0,0.0,0.0,0.0,0.0,0.0,0.0,0.0,0.0,0.0,0.0,0.0,0.0,0.0,0.0,0.0,0.0,0.0,0.0,0.0,0.0,0.0,0.0,0.0,0.0,0.0,0.0,0.0,0.0,0.0,0.0,0.0,0.0,0.0,0.0,0.0,0.0,0.0,0.0,0.0,0.0,0.0,0.0,0.0,0.0,0.0,0.0,0.0,0.0,0.0,0.0,0.0,0.0,0.0,0.0,0.0,0.0,0.0,0.0,0.0,0.0,0.0,0.0,0.0,0.0,0.0,0.0,0.0,0.0,0.0,0.0,0.0,0.0,0.0,0.0,0.0,0.0,0.0,0.0,0.0,0.0,0.0,0.0,0.0,0.0,0.0,0.0,0.0,0.0,0.0,0.0,0.0,0.0,0.0,0.0,0.0,0.0,0.0,0.0,0.0,0.0,0.0,0.0,0.0,0.0,0.0,0.0,0.0,0.0,0.0,0.0,0.0,0.0,0.0,0.0,0.0,0.0,0.0,0.0,0.0,0.0,0.0,0.0,0.0,0.0,0.0,0.0,0.0,0.0,0.0,0.0,0.0,0.0,0.0,0.0,0.0,0.0,0.0,0.0,0.0,0.0,0.0,0.0,0.0,0.0,0.0,0.0,0.0,0.0,0.0,0.0,0.0,0.0,0.0,0.0,0.0,0.0,0.0,0.0,0.0,0.0,0.0,0.0,0.0,0.0,0.0,0.0,0.0,0.0,0.0,0.0,0.0,0.0,0.0,0.0,0.0,0.0,0.0,0.0,0.0,0.0,0.0,0.0,0.0,0.0,0.0,0.0,0.0,0.0,0.0,0.0,0.0,0.0,0.0,0.0,0.0,0.0,0.0,0.0,0.0,0.0,0.0,0.0,0.0,0.0,0.0,0.0,0.0,0.0,0.0,0.0,0.0,0.0,0.0,0.0,0.0,0.0,0.0,0.0,0.0,0.0,0.0,0.0,0.0,0.0,0.0,0.0,0.0,0.0,0.0,0.0,0.0,0.0,0.0,0.0,0.0,0.0,0.0,0.0,0.0,0.0,0.0,0.0,0.0,0.0,0.0,0.0,0.0,0.0,0.0,0.0,0.0,0.0,0.0,0.0,0.0,0.0,0.0,0.0,0.0,0.0,0.0,0.0,0.0,0.0,0.0,0.0,0.0,0.0,0.0,0.0,0.0,0.0,0.0,0.0,0.0,0.0,0.0,0.0,0.0,0.0,0.0,0.0,0.0,0.0,0.0,0.0,0.0,0.0,0.0,0.0,0.0,0.0,0.0,0.0,0.0,0.0,0.0,0.0,0.0,0.0,0.0,0.0,0.0,0.0,0.0,0.0,0.0,0.0,0.0,0.0,0.0,0.0,0.0,0.0,0.0,0.0,0.0,0.0,0.0,0.0,0.0,0.0,0.0,0.0,0.0,0.0,0.0,0.0,0.0,0.0,0.0,0.0,0.0,0.0,0.0,0.0,0.0,0.0,0.0,0.0,0.0,0.0,0.0,0.0,0.0,0.0,0.0,0.0,0.0,0.0,0.0,0.0,0.0,0.0,0.0,0.0,0.0,0.0,0.0,0.0,0.0,0.0,0.0,0.0,0.0,0.0,0.0,0.0,0.0,0.0,0.0,0.0,0.0,0.0,0.0,0.0,0.0,0.0,0.0,0.0,0.0,0.0,0.0,0.0,0.0,0.0,0.0,0.0,0.0,0.0,0.0,0.0,0.0,0.0,0.0,0.0,0.0,0.0,0.0,0.0,0.0,0.0,0.0,0.0,0.0,0.0,0.0,0.0,0.0,0.0,0.0,0.0,0.0,0.0,0.0,0.0,0.0,0.0,0.0,0.0,0.0,0.0,0.0,0.0,0.0,0.0,0.0,0.0,0.0,0.0,0.0,0.0,0.0,0.0,0.0,0.0,0.0,0.0,0.0,0.0,0.0,0.0,0.0,0.0,0.0,0.0,0.0,0.0,0.0,0.0,0.0,0.0,0.0,0.0,0.0,0.0,0.0,0.0,0.0,0.0,0.0,0.0,0.0,0.0,0.0,0.0,0.0,0.0,0.0,0.0,0.0,0.0,0.0,0.0,0.0,0.0,0.0,0.0,0.0,0.0,0.0,0.0,0.0,0.0,0.0,0.0,0.0,0.0,0.0,0.0,0.0,0.0,0.0,0.0,0.0,0.0,0.0,0.0,0.0,0.0,0.0,0.0,0.0,0.0,0.0,0.0,0.0,0.0,0.0,0.0,0.0,0.0,0.0,0.0,0.0,0.0,0.0,0.0,0.0,0.0,0.0,0.0,0.0,0.0,0.0,0.0,0.0,0.0,0.0,0.0,0.0,0.0,0.0,0.0,0.0,0.0,0.0,0.0,0.0,0.0,0.0,0.0,0.0,0.0,0.0,0.0,0.0,0.0,0.0,0.0,0.0,0.0,0.0,0.0,0.0,0.0,0.0,0.0,0.0,0.0,0.0,0.0,0.0,0.0,0.0,0.0,0.0,0.0,0.0,0.0,0.0,0.0,0.0,0.0,0.0,0.0,0.0,0.0,0.0,0.0,0.0,0.0,0.0,0.0,0.0,0.0,0.0,0.0,0.0,0.0,0.0,0.0,0.0,0.0,0.0,0.0,0.0,0.0,0.0,0.0,0.0,0.0,0.0,0.0,0.0,0.0,0.0,0.0,0.0,0.0,0.0,0.0,0.0,0.0,0.0,0.0,0.0,0.0,0.0,0.0,0.0,0.0,0.0,0.0,0.0,0.0,0.0,0.0,0.0,0.0,0.0,0.0,0.0,0.0,0.0,0.0,0.0,0.0,0.0,0.0,0.0,0.0,0.0,0.0,0.0,0.0,0.0,0.0,0.0,0.0,0.0,0.0,0.0,0.0,0.0,0.0,0.0,0.0,0.0,0.0,0.0,0.0,0.0,0.0,0.0,0.0,0.0,0.0,0.0,0.0,0.0,0.0,0.0,0.0,0.0,0.0,0.0,0.0,0.0,0.0,0.0,0.0,0.0,0.0,0.0,0.0,0.0,0.0,0.0,0.0,0.0,0.0,0.0,0.0,0.0,0.0,0.0,0.0,0.0,0.0,0.0,0.0,0.0,0.0,-5.2875,-5.1185,0.0,0.0,0.0,0.0,0.0,0.0,0.0,0.0,0.0,0.0,0.0,0.0,0.0,0.0,0.0,0.0,0.0,0.0,0.0,0.0,0.0,0.0,0.0,0.0,0.0,0.0,0.0,0.0,0.0,0.0,0.0,0.0,0.0,0.0,0.0,0.0,0.0,0.0,-5.0545,-5.2968,-5.6088,-5.484,-5.3445,-5.1903,0.0,0.0,0.0,0.0,0.0,0.0,0.0,0.0,0.0,0.0,0.0,0.0,0.0,0.0,0.0,0.0,0.0,0.0,0.0,0.0,0.0,0.0,0.0,0.0,0.0,0.0,0.0,0.0,0.0,0.0,0.0,0.0,0.0,0.0,0.0,0.0,0.0,0.0,0.0,0.0,0.0,0.0,0.0,0.0,0.0,0.0,0.0,0.0,0.0,0.0,0.0,0.0,0.0,0.0,0.0,0.0,0.0,0.0,0.0,0.0,0.0,0.0,0.0,0.0,0.0,0.0,0.0,0.0,0.0,0.0,-5.3315,-5.2706,0.0,0.0,0.0,0.0,0.0,0.0,0.0,0.0,0.0,0.0,0.0,0.0,0.0,0.0,0.0,0.0,0.0,0.0,0.0,0.0,0.0,0.0,0.0,0.0,-4.8325,-4.8325,-4.8306,-4.8306,0.0,0.0,0.0,0.0,0.0,0.0,0.0,-4.8306,-4.8526,-4.8967,-5.2674,-5.5831,-5.8437,-5.8437,-5.7005,-5.4304,-5.1353,0.0,0.0,0.0,0.0,0.0,0.0,0.0,0.0,0.0,0.0,0.0,0.0,0.0,0.0,0.0,0.0,0.0,0.0,0.0,0.0,0.0,0.0,0.0,0.0,0.0,0.0,0.0,0.0,0.0,0.0,0.0,0.0,0.0,0.0,0.0,0.0,0.0,0.0,0.0,0.0,0.0,0.0,0.0,0.0,0.0,0.0,0.0,0.0,0.0,0.0,0.0,0.0,0.0,0.0,0.0,0.0,0.0,0.0,0.0,0.0,0.0,0.0,0.0,-5.4996,-5.5074,-5.4668,-5.4668,-5.4668,-5.4634,-5.4397,-5.4803,-5.548,-5.2232,0.0,0.0,0.0,0.0,0.0,0.0,0.0,0.0,0.0,0.0,0.0,0.0,0.0,0.0,0.0,0.0,0.0,0.0,0.0,0.0,0.0,-4.8587,-4.8476,-4.8476,-4.8381,-4.8306,0.0,0.0,0.0,0.0,0.0,0.0,-4.8306,-4.8306,-4.937,-5.1499,-5.6859,-5.9685,-6.0089,-6.0089,-5.9869,-5.9391,-5.7556,-5.5611,-5.3702,0.0,0.0,0.0,0.0,0.0,0.0,0.0,0.0,0.0,0.0,0.0,0.0,0.0,0.0,0.0,0.0,0.0,0.0,0.0,0.0,0.0,0.0,0.0,0.0,0.0,0.0,0.0,0.0,0.0,0.0,0.0,0.0,0.0,0.0,0.0,0.0,0.0,0.0,0.0,0.0,0.0,-5.5522,-5.7152,0.0,0.0,0.0,0.0,0.0,0.0,0.0,0.0,0.0,0.0,0.0,0.0,0.0,-5.7293,-5.8286,-5.8323,-5.8597,-5.9177,-5.9278,-5.9309,-5.9235,-5.9235,-5.9235,-5.9167,-5.7881,0.0,-5.558,-5.4465,0.0,0.0,0.0,0.0,0.0,0.0,0.0,0.0,0.0,0.0,0.0,0.0,0.0,0.0,0.0,0.0,0.0,0.0,0.0,0.0,0.0,-5.023,-5.1035,-5.0537,-5.2091,-5.2307,-5.0508,-5.0362,0.0,0.0,0.0,-4.8306,-4.8306,-4.9664,-5.2454,-5.6712,-5.9208,-6.1337,-6.3172,-6.3172,-6.3172,-6.3135,-6.2438,-5.9501,-5.506,-5.4693,0.0,0.0,0.0,0.0,0.0,0.0,0.0,0.0,0.0,0.0,0.0,0.0,0.0,0.0,0.0,0.0,0.0,0.0,0.0,0.0,0.0,0.0,0.0,0.0,0.0,0.0,0.0,0.0,0.0,0.0,0.0,0.0,0.0,0.0,0.0,0.0,0.0,0.0,0.0,-5.5486,-5.813,-5.9724,-5.9434,-5.8673,0.0,0.0,0.0,0.0,0.0,0.0,0.0,0.0,0.0,-5.8164,-5.8174,-5.8789,-6.0115,-5.9722,-5.9735,-6.0114,-6.0114,-6.0114,-6.0114,-6.0114,-6.0114,-6.0047,-5.9404,-5.8761,-5.8051,-5.6494,-5.5344,-5.4397,0.0,0.0,0.0,0.0,-4.9731,-4.9934,0.0,0.0,0.0,0.0,0.0,0.0,0.0,0.0,0.0,0.0,0.0,0.0,-5.0046,-5.2759,-5.426,-5.3408,-5.5434,-5.5427,-5.2197,-5.1977,0.0,0.0,-4.8306,-4.8306,-4.8306,-5.1353,-5.528,-6.0089,-6.0713,-6.2291,-6.4677,-6.4677,-6.4677,-6.4677,-6.4677,-6.1851,-5.7116,-5.6895,-5.5427,-5.3151,0.0,0.0,0.0,0.0,0.0,0.0,0.0,0.0,0.0,0.0,0.0,0.0,0.0,0.0,0.0,0.0,0.0,0.0,0.0,0.0,0.0,0.0,0.0,0.0,0.0,0.0,0.0,0.0,0.0,0.0,0.0,0.0,0.0,0.0,0.0,0.0,0.0,-5.708,-5.9905,-6.1471,-6.1353,-6.0883,0.0,0.0,0.0,0.0,0.0,0.0,-5.8219,-5.7745,-5.8357,-6.0391,-6.0151,-6.0491,-6.1481,-6.0959,-6.0689,-6.0689,-6.0689,-6.0689,-6.0689,-6.0689,-6.0689,-6.0689,-6.0689,-6.0588,-6.025,-5.8423,-5.7002,-5.5919,-5.5175,-5.3856,-5.2334,-5.2164,-5.2097,-5.2232,0.0,0.0,0.0,0.0,0.0,0.0,0.0,0.0,0.0,0.0,0.0,-5.3514,-5.3378,-5.6219,-5.7737,-5.6742,-5.6742,-5.5427,-5.2197,-5.1977,-5.0875,-4.8416,-4.8306,-4.8306,-4.8306,-5.2968,-5.6675,-5.9258,-6.1533,-6.2743,-6.2927,-6.2927,-6.2927,-6.2927,-6.2927,-6.2328,-6.1227,-6.0493,-5.8767,-5.6308,-5.3225,0.0,0.0,0.0,0.0,0.0,0.0,0.0,0.0,0.0,0.0,0.0,0.0,0.0,0.0,0.0,0.0,0.0,0.0,0.0,0.0,0.0,0.0,0.0,0.0,0.0,0.0,0.0,0.0,0.0,0.0,0.0,0.0,0.0,0.0,0.0,0.0,0.0,0.0,-6.0665,-6.349,0.0,0.0,0.0,0.0,-5.9542,-5.8805,-5.9141,-6.0709,-6.0784,-6.1224,-6.2232,-6.2915,-6.2987,-6.2358,-6.2318,-6.2279,-6.2279,-6.2279,-6.2279,-6.2279,-6.2279,-6.2279,-6.2279,-6.2279,-6.1873,-6.1163,-6.0283,-5.9877,-5.9539,-5.6765,-5.5546,-5.5377,-5.4702,-5.4431,-5.4735,0.0,0.0,0.0,0.0,0.0,0.0,0.0,0.0,-4.889,-4.889,-5.1751,-5.3775,-5.3717,-5.8434,-6.1024,-5.9544,-6.1235,-6.0772,-5.6895,-5.4693,-5.2674,-5.0765,-4.8673,-4.926,-5.2931,-5.6235,-5.9098,-6.1496,-6.2377,-6.278,-6.278,-6.278,-6.278,-6.278,-6.278,-6.2658,-6.2365,-6.2071,-6.0542,-5.823,-5.7116,-5.4766,0.0,0.0,0.0,0.0,0.0,0.0,0.0,0.0,0.0,0.0,0.0,0.0,0.0,0.0,0.0,0.0,0.0,0.0,0.0,0.0,0.0,0.0,0.0,0.0,0.0,0.0,0.0,0.0,0.0,0.0,0.0,0.0,0.0,0.0,0.0,0.0,0.0,-6.215,-6.3345,0.0,-6.2875,-6.2616,-6.2139,-6.1279,-6.1524,-6.1987,-6.2577,-6.2144,-6.2036,-6.2386,-6.2693,-6.2659,-6.2381,-6.2381,-6.2381,-6.2381,-6.2381,-6.2381,-6.2381,-6.2381,-6.2381,-6.2381,-6.2381,-6.2245,-6.1975,-6.1704,-6.0994,-6.0013,-5.893,-5.8524,-5.849,-5.8254,-5.7848,-5.7543,0.0,0.0,0.0,0.0,0.0,0.0,0.0,0.0,-4.9299,-5.0413,-5.3423,-5.5855,-5.6928,-6.1812,-6.4435,-6.2902,-6.4451,-6.3505,-5.8694,-5.6124,-5.3592,-5.0875,-4.9481,-5.1279,-5.6712,-5.84,-6.0358,-6.278,-6.278,-6.278,-6.278,-6.278,-6.278,-6.278,-6.278,-6.278,-6.278,-6.278,-6.1863,-6.0322,-5.9515,-5.6822,-5.3093,0.0,0.0,0.0,0.0,0.0,0.0,0.0,0.0,0.0,0.0,0.0,0.0,0.0,0.0,0.0,0.0,0.0,0.0,0.0,0.0,0.0,0.0,0.0,0.0,0.0,0.0,0.0,0.0,0.0,0.0,0.0,0.0,0.0,0.0,-5.9434,-6.2005,-6.3056,-6.3925,-6.431,-6.4072,-6.3801,-6.35,-6.2998,-6.3518,-6.3752,-6.3496,-6.2813,-6.2381,-6.2381,-6.2381,-6.2381,-6.2381,-6.2381,-6.2381,-6.2381,-6.2381,-6.2381,-6.2381,-6.2381,-6.2381,-6.2381,-6.2381,-6.2381,-6.2381,-6.2381,-6.1806,-6.0858,-6.0588,-6.052,-6.0486,-6.0216,-5.981,-5.937,0.0,0.0,0.0,0.0,0.0,0.0,0.0,-4.889,-5.0079,-5.3385,-5.6655,-5.9897,-6.3049,-6.6321,-6.7875,-6.6784,-6.5948,-6.3064,-5.7299,-5.6051,-5.3371,-4.8563,-5.0839,-5.4399,-5.9074,-5.9258,-6.0432,-6.278,-6.278,-6.278,-6.278,-6.278,-6.278,-6.278,-6.278,-6.278,-6.278,-6.278,-6.278,-6.2597,-6.0248,-5.7886,-5.5427,0.0,0.0,0.0,0.0,0.0,0.0,0.0,0.0,0.0,0.0,0.0,0.0,0.0,0.0,0.0,0.0,0.0,0.0,0.0,0.0,0.0,0.0,0.0,0.0,0.0,0.0,0.0,0.0,0.0,0.0,0.0,0.0,0.0,-5.9615,-6.1752,-6.3237,-6.3309,-6.5374,-6.6512,-6.5824,-6.6361,-6.6141,-6.4703,-6.4566,-6.4218,-6.3496,-6.2774,-6.2381,-6.2381,-6.2381,-6.2381,-6.2381,-6.2415,-6.2415,-6.2415,-6.2448,-6.2448,-6.2448,-6.2448,-6.2448,-6.2448,-6.2448,-6.2448,-6.2448,-6.2448,-6.2448,-6.2381,-6.1637,-6.1332,-6.1231,-6.0452,-6.0148,-6.0148,0.0,0.0,0.0,0.0,0.0,0.0,0.0,-4.889,-5.0079,-5.3385,-5.6655,-5.994,-6.32,-6.6466,-6.8,-6.6937,-6.6099,-6.3861,-5.9685,-5.5941,-5.2454,-4.9297,-5.4363,-5.7827,-5.9148,-6.0909,-6.212,-6.278,-6.278,-6.278,-6.278,-6.278,-6.278,-6.278,-6.278,-6.278,-6.278,-6.278,-6.278,-6.2743,-6.2083,-6.0358,-5.812,0.0,0.0,0.0,0.0,0.0,0.0,0.0,0.0,0.0,0.0,0.0,0.0,0.0,0.0,0.0,0.0,0.0,0.0,0.0,0.0,0.0,0.0,0.0,0.0,0.0,0.0,0.0,0.0,0.0,0.0,0.0,-6.0448,-6.1969,-6.2186,-6.3273,-6.4504,-6.5663,-6.6388,-6.6727,-6.6512,-6.5697,-6.5041,-6.4635,-6.3606,-6.2928,-6.2697,-6.2498,-6.2381,-6.2381,-6.2381,-6.2381,-6.2381,-6.2922,-6.3193,-6.3193,-6.3734,-6.4005,-6.4005,-6.4005,-6.4005,-6.4005,-6.4005,-6.4005,-6.4005,-6.4005,-6.4005,-6.3869,-6.2584,-6.211,-6.2076,-6.1839,-6.1434,-6.0892,0.0,0.0,0.0,0.0,0.0,0.0,0.0,-4.889,-5.0562,-5.5243,-5.7509,-6.0481,-6.5162,-6.7367,-6.8222,-6.7543,-6.5151,-6.2358,-5.9154,-5.4715,-5.2601,-5.3518,-5.7166,-5.9661,-6.0689,-6.2083,-6.278,-6.278,-6.278,-6.278,-6.278,-6.278,-6.278,-6.278,-6.278,-6.278,-6.278,-6.278,-6.278,-6.278,-6.278,-6.1349,-5.9184,-5.9174,-5.7494,-5.5212,-5.5143,-5.5038,-5.4689,-5.3277,0.0,0.0,0.0,0.0,0.0,0.0,0.0,0.0,0.0,0.0,0.0,0.0,0.0,0.0,0.0,0.0,0.0,0.0,0.0,0.0,0.0,0.0,0.0,0.0,-6.2114,-6.3925,-6.4613,-6.512,-6.5736,-6.6677,-6.6786,-6.6578,-6.5954,-6.5665,-6.5008,-6.3754,-6.3459,-6.3045,-6.242,-6.2685,-6.2854,-6.2854,-6.3159,-6.3328,-6.3328,-6.3768,-6.3971,-6.3971,-6.441,-6.4613,-6.4613,-6.4613,-6.4613,-6.4613,-6.4613,-6.4613,-6.4613,-6.4613,-6.4613,-6.4512,0.0,0.0,0.0,0.0,-6.2381,-6.167,0.0,0.0,0.0,0.0,0.0,0.0,0.0,-4.889,-5.1268,-5.7843,-5.8698,-6.1224,-6.7776,-6.8481,-6.8432,-6.8309,-6.3901,-5.9886,-5.6934,-5.3582,-5.3959,-5.8854,-5.9404,-6.0615,-6.2743,-6.278,-6.278,-6.278,-6.278,-6.278,-6.278,-6.278,-6.278,-6.278,-6.278,-6.278,-6.278,-6.278,-6.278,-6.278,-6.278,-6.1496,-5.9588,-5.9588,-5.8113,-5.6038,-5.6015,-5.5885,-5.5692,-5.5377,0.0,0.0,0.0,0.0,0.0,0.0,0.0,0.0,0.0,0.0,0.0,0.0,0.0,0.0,0.0,0.0,0.0,0.0,0.0,0.0,0.0,0.0,0.0,0.0,-6.3092,-6.5156,-6.6605,-6.6786,-6.6786,-6.6786,-6.6786,-6.63,-6.4974,-6.5855,-6.5504,-6.2969,-6.3821,-6.3929,-6.2717,-6.3266,0.0,0.0,0.0,-6.4613,-6.4613,-6.4681,-6.4715,-6.4715,-6.4816,-6.485,-6.485,-6.485,-6.485,-6.485,-6.485,-6.485,-6.485,-6.485,-6.485,-6.485,-6.4647,-6.4613,-6.4512,-6.3869,-6.3226,-6.2651,0.0,0.0,0.0,0.0,0.0,0.0,0.0,-4.889,-5.1268,-5.7843,-5.8698,-6.1224,-6.7776,-6.8481,-6.8432,-6.8309,-6.4419,-5.9997,-5.5306,-5.661,-5.7776,-5.8217,-6.0713,-6.2303,-6.278,-6.278,-6.278,-6.278,-6.278,-6.278,-6.278,-6.278,-6.278,-6.278,-6.278,-6.278,-6.278,-6.278,-6.278,-6.278,-6.278,-6.2523,-6.2083,-6.2083,-6.1715,-6.1163,-6.1036,-6.0908,-6.0461,-5.8435,-5.7732,-5.7406,-5.5522,-5.3241,0.0,0.0,0.0,0.0,0.0,0.0,0.0,0.0,0.0,0.0,0.0,0.0,0.0,0.0,0.0,0.0,0.0,0.0,0.0,-6.2657,-6.4758,-6.646,-6.675,-6.6786,-6.6786,-6.6786,-6.6786,-6.6697,-6.6391,-6.5568,-6.5041,-6.5074,-6.4233,-6.3854,-6.4164,-6.4296,-6.4377,-6.4377,-6.4546,-6.4613,-6.4613,-6.5189,-6.5493,-6.5493,-6.6102,0.0,-6.6373,-6.6373,-6.6373,-6.6373,-6.6373,-6.6373,-6.6373,-6.6373,-6.6373,-6.6271,-6.5053,-6.4613,-6.458,-6.4444,-6.4309,-6.4174,0.0,0.0,0.0,0.0,0.0,0.0,0.0,-4.889,-5.0673,-5.5614,-5.6246,-5.8141,-6.3082,-6.3267,-6.2963,-6.2895,-6.0174,-5.718,-5.4133,-5.6853,-5.9134,-6.0346,-6.1961,-6.278,-6.278,-6.278,-6.278,-6.278,-6.278,-6.278,-6.278,-6.278,-6.278,-6.278,-6.278,-6.278,-6.278,-6.278,-6.278,-6.278,-6.278,-6.278,-6.278,-6.278,-6.2705,-6.2578,-6.2423,-6.2291,-6.1977,-6.0646,-6.0194,-6.0013,-5.8818,-5.679,-5.4617,0.0,0.0,0.0,0.0,0.0,0.0,0.0,0.0,0.0,0.0,0.0,0.0,0.0,0.0,-5.9724,0.0,0.0,-6.3309,-6.3744,-6.5482,-6.6786,-6.6786,-6.6786,-6.6786,-6.6786,-6.6482,-6.6233,-6.6233,-6.5957,-6.5573,-6.5197,-6.5183,-6.5031,-6.4606,-6.4958,-6.5155,-6.5155,-6.5527,-6.5696,-6.5696,-6.6068,-6.6237,-6.6237,-6.6643,-6.6812,-6.6812,-6.7184,-6.7354,-6.7354,-6.7354,-6.7354,-6.732,-6.6948,-6.6812,-6.6745,-6.6,-6.5493,-6.5155,-6.5155,-6.4918,-6.4613,0.0,0.0,0.0,0.0,0.0,0.0,0.0,0.0,-5.0079,-5.3385,-5.3794,-5.5057,-5.8364,-5.7992,-5.7175,-5.6395,-5.6043,-5.5233,-5.3752,-5.7155,-6.0272,-6.267,-6.278,-6.278,-6.278,-6.278,-6.278,-6.278,-6.278,-6.278,-6.278,-6.278,-6.278,-6.278,-6.278,-6.278,-6.278,-6.278,-6.278,-6.278,-6.278,-6.278,-6.278,-6.278,-6.273,-6.2629,-6.2449,-6.2026,-6.1594,-6.1915,-6.1688,-6.1362,-6.1833,-6.0339,-5.8021,-5.6138,-5.5269,0.0,0.0,0.0,0.0,0.0,0.0,0.0,0.0,0.0,-6.0448,-6.0919,-6.0991,-6.1208,-6.186,-6.3019,-6.4106,-6.4758,-6.5953,-6.6786,-6.6786,-6.6931,-6.704,-6.704,-6.6515,-6.6169,-6.6169,-6.6592,-6.6488,-6.5579,-6.635,-6.6436,-6.5312,-6.5827,-6.6105,-6.5899,-6.6508,-6.688,-6.7015,-6.7015,-6.7117,-6.7252,-6.7252,-6.7252,-6.7286,-6.7861,-6.8132,-6.8132,-6.8132,-6.8132,-6.8098,-6.7489,-6.7252,-6.7252,-6.7083,-6.6643,-6.6102,-6.5967,-6.5527,-6.5019,0.0,0.0,0.0,0.0,0.0,0.0,0.0,0.0,0.0,-5.3385,-5.3794,-5.5057,-5.8364,-5.7992,-5.606,-5.2419,-5.7022,-5.8519,-5.4806,-6.0134,-6.3246,-6.2842,-6.278,-6.278,-6.278,-6.278,-6.278,-6.278,-6.278,-6.278,-6.278,-6.278,-6.278,-6.278,-6.278,-6.278,-6.278,-6.278,-6.278,-6.278,-6.278,-6.278,-6.278,-6.278,-6.278,-6.273,-6.2475,-6.1011,-5.9466,-6.1362,-6.0593,-5.918,-6.1326,-6.0339,-5.8347,-5.8094,0.0,-5.4255,-5.1176,-5.1574,-5.3277,-5.4907,-5.7224,-5.9724,0.0,0.0,-6.3418,-6.5555,-6.5989,-6.6025,-6.6098,-6.6279,-6.6424,-6.6533,-6.6677,-6.6786,-6.6786,-6.7438,-6.7873,-6.7873,-6.7813,-6.7716,-6.7716,-6.7247,-6.7404,-6.8625,-6.7587,-6.7121,-6.7607,-6.7696,-6.7392,-6.6677,-6.6779,-6.7117,-6.776,-6.7793,-6.8132,-6.8842,-6.8842,-6.8842,-6.8842,-6.8944,-6.8977,-6.8977,-6.8977,-6.8977,-6.8977,-6.8876,-6.8842,-6.8774,-6.8064,-6.7726,-6.7557,-6.6914,-6.6643,-6.6576,0.0,0.0,0.0,0.0,0.0,0.0,0.0,0.0,0.0,0.0,-5.0971,-5.1491,-5.2865,-5.1862,-5.0005,-4.733,-5.3265,-5.6282,-5.4084,-6.0318,-6.3723,-6.2842,-6.278,-6.278,-6.278,-6.278,-6.278,-6.278,-6.278,-6.278,-6.278,-6.278,-6.278,-6.278,-6.278,-6.278,-6.278,-6.278,-6.278,-6.278,-6.278,-6.278,-6.278,-6.278,-6.278,-6.2572,-6.0893,-5.9686,0.0,0.0,-5.9253,-5.8818,-6.1245,-6.0339,-5.8383,-5.8383,-5.6428,0.0,-5.5377,-5.545,-5.6283,0.0,-6.1752,-6.2331,-6.4722,-6.5301,-6.5591,-6.6605,-6.6786,-6.6786,-6.6786,-6.6786,-6.6786,0.0,-6.6786,-6.6967,-6.7438,-6.78,-6.8162,-6.8633,-6.9104,-6.9213,-6.8742,-6.8431,-6.8562,-6.9125,-6.8576,-6.8151,-6.8034,-6.7559,-6.7358,-6.7421,-6.7455,-6.7827,-6.8605,-6.8605,-6.8774,-6.9113,-6.9113,-6.9113,-6.9113,-6.9553,-6.9722,-6.9722,-6.9722,-6.9485,-6.9113,-6.9113,-6.9113,-6.9079,-6.8741,-6.8605,-6.847,-6.7252,-6.6812,-6.6812,0.0,0.0,0.0,0.0,0.0,0.0,0.0,0.0,0.0,0.0,0.0,-4.8742,-4.8296,-4.7181,-4.5844,-4.4135,-4.9917,-5.3608,-5.342,-5.9508,-6.3014,-6.278,-6.278,-6.278,-6.278,-6.278,-6.278,-6.278,-6.278,-6.278,-6.278,-6.278,-6.278,-6.278,-6.278,-6.278,-6.278,-6.278,-6.278,-6.278,-6.278,-6.278,-6.278,-6.278,-6.2377,-6.1545,-5.9591,-5.8251,0.0,0.0,-5.667,-5.65,-5.8709,-5.8347,-5.708,-5.6826,-5.4544,-5.3023,-5.7406,0.0,0.0,-6.4251,-6.4975,-6.4649,-6.6388,-6.6786,-6.6786,-6.6786,-6.6786,-6.6786,-6.6786,-6.6786,-6.6786,-6.6786,-6.7003,-6.7329,-6.7945,-6.838,-6.8887,-6.9461,-7.0191,-7.0444,-6.9865,-6.966,-6.9584,-6.9515,-6.953,-6.927,-6.8682,-6.8325,-6.8348,-6.8898,-6.8675,-6.8923,-6.9739,-6.9514,-6.9519,-6.9722,-6.9722,-6.9722,-6.9722,-7.0263,-7.05,-7.05,-7.05,-7.0195,-6.9722,-6.9722,-6.9722,-6.9688,-6.9485,-6.9417,-6.9248,-6.7929,-6.7455,-6.7421,0.0,0.0,0.0,0.0,0.0,0.0,0.0,0.0,0.0,0.0,0.0,0.0,0.0,-4.6513,-4.5844,-4.4135,-4.8471,-5.1914,-5.331,-5.7994,-6.1323,-6.2732,-6.278,-6.278,-6.278,-6.278,-6.278,-6.278,-6.278,-6.278,-6.278,-6.278,-6.278,-6.278,-6.278,-6.278,-6.278,-6.278,-6.278,-6.278,-6.278,-6.278,-6.278,-6.278,-6.1349,-5.9294,-5.9078,0.0,0.0,0.0,-5.2354,-5.0655,-5.2263,-5.3277,0.0,-5.2915,-5.0416,0.0,0.0,0.0,-5.6319,-6.1897,-6.5011,-6.6714,-6.6786,-6.6786,-6.6786,-6.6786,-6.6786,-6.6786,-6.6786,-6.6786,-6.6786,-6.6786,-6.7474,-6.7981,-6.8017,-6.9321,-7.0335,-7.0366,-7.1024,-7.1458,0.0,-7.0809,-7.037,-7.037,-7.0371,-7.0345,-7.0326,-7.1019,-7.1481,-7.1485,-7.0665,-7.0601,-7.1325,-7.0574,-7.0534,-7.1244,-7.1244,-7.1244,-7.1244,-7.1278,-7.1278,-7.1278,-7.1278,-7.1278,-7.1244,-7.1244,-7.1244,-7.1176,-7.0432,-7.0161,-7.006,-6.9316,-6.9045,-6.891,0.0,0.0,0.0,0.0,0.0,0.0,0.0,0.0,0.0,0.0,0.0,0.0,0.0,0.0,0.0,0.0,-4.7878,-5.0546,-5.0985,-5.6522,-6.0,-6.0395,-6.1936,-6.278,-6.278,-6.278,-6.278,-6.278,-6.278,-6.278,-6.278,-6.278,-6.278,-6.278,-6.278,-6.278,-6.278,-6.278,-6.278,-6.278,-6.278,-6.1826,-6.0395,-6.0395,-5.8561,-5.5794,0.0,0.0,0.0,0.0,0.0,0.0,-5.1851,0.0,0.0,-5.0198,0.0,0.0,0.0,0.0,-5.9253,-6.4323,-6.6207,-6.6786,-6.6786,-6.6786,-6.6786,-6.6786,-6.512,-6.3635,-6.3635,-6.2766,-6.2549,-6.4142,-6.5518,-6.7148,-6.9285,-7.0046,-7.0553,-7.106,-7.135,0.0,0.0,0.0,0.0,-7.1863,-7.1466,-7.1444,-7.1943,-7.1206,-7.0946,-7.1434,-7.0675,-7.0608,-7.1358,-7.1084,-7.1075,-7.1312,-7.1312,-7.1312,-7.1312,-7.1312,-7.1312,-7.1312,-7.1312,-7.1312,-7.1312,-7.1312,-7.1312,-7.1278,-7.1041,-7.0939,-7.0906,-7.0669,-7.0567,-7.0398,0.0,0.0,0.0,0.0,0.0,0.0,0.0,0.0,0.0,0.0,0.0,0.0,0.0,0.0,0.0,0.0,0.0,-4.8826,-4.9363,-5.4059,-5.7007,-5.7491,-5.8694,-5.9648,-6.0199,-5.9098,-5.9098,-6.0236,-6.0529,-6.097,-6.1533,-6.2401,-6.278,-6.278,-6.278,-6.278,-6.278,-6.278,-6.2303,-6.1496,-6.1496,-6.0089,-5.7923,-5.7923,-5.6088,0.0,-5.1096,0.0,0.0,0.0,0.0,0.0,0.0,0.0,0.0,0.0,0.0,0.0,0.0,-5.9615,-6.0774,-6.5591,-6.6786,-6.6786,-6.6786,-6.6786,-6.6569,-6.57,-6.3635,-6.1725,-6.0883,-5.9868,-6.005,-6.2766,-6.4541,-6.6714,-6.9937,-7.0625,-7.0951,-7.1458,-7.1494,-7.1603,0.0,0.0,0.0,-7.2296,-7.2384,-7.2509,-7.276,-7.2053,-7.1787,-7.2232,-7.1464,-7.1221,-7.1732,-7.1732,-7.1907,-7.2176,-7.1873,-7.1732,-7.1732,-7.1412,-7.1312,-7.1312,-7.1312,-7.1312,-7.1312,-7.1312,-7.1312,-7.1312,-7.1312,-7.1312,-7.1312,-7.1312,-7.1312,-7.1142,0.0,0.0,0.0,0.0,0.0,0.0,0.0,0.0,0.0,0.0,0.0,0.0,0.0,0.0,0.0,0.0,0.0,0.0,-4.8529,-5.0745,-5.2745,-5.4328,-5.3708,-5.4032,-5.5596,-5.2601,-5.2527,-5.5596,-5.6308,-5.746,-5.9001,-6.1239,-6.2303,-6.2303,-6.2303,-6.2303,-6.234,-6.234,-6.1056,-5.9001,-5.9001,-5.7593,-5.5412,-5.5412,-5.387,-5.1463,-4.9884,0.0,0.0,0.0,0.0,0.0,0.0,0.0,0.0,0.0,0.0,-5.0864,-5.7949,-5.9868,-6.0991,-6.5627,-6.6786,-6.6786,-6.6786,-6.6714,-6.5953,-6.3599,-6.2295,-6.0856,0.0,0.0,-5.9325,-6.2476,-6.4541,-6.6822,-7.0009,-7.106,-7.1494,0.0,0.0,0.0,0.0,0.0,0.0,-7.183,0.0,-7.3575,-7.283,-7.3466,-7.3785,-7.3725,-7.2873,-7.2448,-7.249,-7.254,-7.2955,-7.3721,-7.2873,-7.249,-7.2406,-7.1644,-7.1312,-7.1312,-7.1312,-7.1312,-7.1312,-7.1312,-7.1312,-7.1312,-7.1312,-7.1312,-7.1312,-7.1312,-7.1312,-7.121,0.0,0.0,0.0,0.0,0.0,0.0,0.0,0.0,0.0,0.0,0.0,0.0,0.0,0.0,0.0,0.0,0.0,0.0,-4.7787,-4.9952,-5.1678,-5.2672,-5.417,-5.517,-5.5574,-5.4803,-5.4766,-5.5596,-5.5207,-5.5207,-5.5611,-5.5647,-5.5625,-5.5625,-5.5625,-5.5978,-5.6528,-5.6528,-5.6528,-5.6528,-5.6528,-5.506,-5.2894,-5.2894,-5.0618,-4.7388,-4.6985,0.0,0.0,0.0,0.0,0.0,0.0,-5.1484,-5.2154,0.0,0.0,-5.6283,-6.1679,-6.3164,-6.3744,-6.6207,-6.6786,-6.6786,-6.6786,-6.541,-6.378,-6.2585,-5.8854,-5.545,0.0,0.0,0.0,-6.0086,-6.4396,0.0,-7.0842,-7.1386,0.0,-7.1494,-7.2038,-7.2472,-7.269,-7.3776,0.0,0.0,-7.4003,-7.4047,-7.4469,-7.3479,-7.2829,-7.2832,-7.2047,-7.1873,-7.249,-7.316,-7.3241,-7.2832,-7.2617,-7.2185,-7.1634,-7.1401,-7.1312,-7.1312,-7.1312,-7.1312,-7.1312,-7.1312,-7.1312,-7.1312,-7.1312,-7.1312,-7.1312,-7.1312,-7.1312,-7.1278,0.0,0.0,0.0,0.0,0.0,0.0,0.0,0.0,0.0,0.0,0.0,0.0,0.0,0.0,0.0,0.0,0.0,0.0,0.0,-4.8735,-4.9836,-4.9985,-5.0862,-5.1683,-5.238,-5.0986,-5.0802,-5.1867,-5.1756,-5.1903,-5.2307,-5.2931,-5.3203,-5.3203,-5.3203,-5.3665,-5.4399,-5.4399,-5.4252,0.0,0.0,-5.2564,-5.0362,-5.0362,-4.8746,-4.6434,0.0,0.0,0.0,0.0,0.0,-5.3081,-5.4474,-5.4989,-5.5655,-5.8533,0.0,-5.9144,-6.3273,-6.4649,-6.5229,-6.6496,-6.6786,-6.6424,-6.5011,-6.3671,-6.186,-5.8963,-5.5595,-5.3132,-5.3023,-5.4399,-5.6862,0.0,0.0,0.0,-7.1132,-7.1494,-7.1494,0.0,-7.2219,0.0,-7.3197,-7.4392,-7.5261,-7.5623,-7.4867,-7.4618,-7.5082,-7.3442,-7.27,-7.3037,-7.227,-7.2228,-7.3037,-7.3562,-7.3562,-7.3078,-7.2666,-7.2236,-7.1786,-7.1457,-7.1312,-7.1312,-7.1312,-7.1312,-7.1312,-7.1312,-7.1312,-7.1312,-7.1312,-7.1312,-7.1312,-7.1312,-7.1312,-7.1312,0.0,0.0,0.0,0.0,0.0,0.0,0.0,0.0,0.0,0.0,-4.5881,0.0,0.0,0.0,0.0,0.0,0.0,0.0,0.0,0.0,0.0,-4.7482,-4.6673,-4.6874,-4.8269,-4.5553,-4.5112,-4.7113,-4.7663,-4.8379,-4.917,-5.1022,-5.1956,-5.2066,-5.2066,-5.2527,-5.3261,-5.3408,-5.2674,-5.1499,-5.1499,-5.0215,-4.8306,0.0,0.0,0.0,0.0,0.0,0.0,0.0,-5.6237,-5.7862,-5.8287,-5.8639,-5.9341,-6.1686,-6.128,-6.0738,-6.3744,-6.5084,-6.5772,-6.6605,-6.6786,-6.5953,-6.2702,-6.1725,-5.9987,-5.4653,0.0,-5.2335,-5.3349,-5.4291,-5.7007,-6.3345,0.0,-6.7909,-7.106,-7.1494,-7.1531,-7.1639,-7.2364,-7.3197,-7.3993,-7.479,-7.5551,-7.6239,-7.5584,-7.5082,-7.5082,-7.3562,-7.2996,-7.376,-7.3078,-7.3037,-7.3799,-7.3799,-7.3721,-7.3602,-7.2832,-7.2448,-7.2321,-7.16,-7.1312,-7.1312,-7.1312,-7.1312,-7.1312,-7.1312,-7.1312,-7.1312,-7.1312,-7.1312,-7.1312,-7.1312,-7.1312,-7.1312,0.0,0.0,0.0,0.0,0.0,0.0,0.0,0.0,0.0,0.0,-4.6215,-4.5807,0.0,0.0,0.0,0.0,0.0,0.0,0.0,0.0,0.0,0.0,-4.8032,-4.8012,-4.8306,-4.7755,-4.7352,-4.7113,-4.6581,-4.6397,-4.6507,-4.559,-4.5553,-4.6159,-4.6159,-4.6617,-4.7425,-4.8067,-4.858,-4.893,-4.893,-4.8673,-4.8306,0.0,0.0,0.0,0.0,0.0,0.0,0.0,-5.854,-5.9115,-6.1115,-6.1667,-6.1759,-6.2876,-6.2912,-6.2983,-6.4867,-6.5482,-6.5772,-6.6605,-6.6786,-6.5953,-6.2702,-6.0484,0.0,0.0,-5.1031,-5.0198,-5.2299,-5.3929,-5.7007,-6.3345,-6.5736,-6.7909,-7.106,-7.1494,-7.1748,0.0,-7.3197,-7.403,-7.4793,-7.5623,0.0,0.0,-7.5584,-7.5082,-7.5082,-7.4111,-7.3641,-7.3799,-7.3641,-7.3641,-7.3799,-7.3799,-7.3442,-7.2707,-7.2575,-7.2142,-7.1501,-7.1356,-7.1312,-7.1312,-7.1312,0.0,-7.1312,-7.1312,-7.1312,-7.1312,-7.1312,-7.1312,-7.1312,-7.1312,-7.1312,-7.1312,0.0,0.0,0.0,0.0,0.0,0.0,0.0,-4.8481,-4.7999,-4.8853,-4.7181,-4.6215,-4.6995,-4.6401,-4.6385,0.0,0.0,0.0,0.0,0.0,0.0,0.0,0.0,0.0,0.0,-4.8306,-4.7719,-4.6471,0.0,-4.6104,-4.5259,-4.4892,-4.4929,-4.5333,-4.5333,-4.5773,-4.6544,-4.6929,-4.7553,-4.8306,-4.8306,-4.8306,0.0,0.0,0.0,0.0,0.0,0.0,0.0,0.0,-5.652,-5.849,-6.2192,-6.3184,-6.2838,-6.2391,-6.3375,-6.4436,-6.388,-6.4939,-6.6315,-6.6714,-6.6786,-6.5518,-6.0629,0.0,0.0,0.0,-4.9075,-4.9148,-5.1973,-5.3458,-5.5957,-6.1064,-6.4323,-6.6858,-6.8778,-7.048,-7.182,-7.2617,-7.3414,-7.4247,-7.5011,-7.5841,-7.6275,-7.6275,-7.5933,-7.5725,-7.5725,-7.5335,-7.49,-7.4489,-7.4489,-7.4226,-7.3799,-7.3362,-7.27,-7.1873,-7.1873,-7.1688,-7.1312,-7.1312,-7.1312,-7.1312,-7.1312,-7.1312,-7.1312,-7.1312,-7.1312,-7.1312,-7.1312,-7.1312,-7.1312,-7.1312,-7.1312,-7.1312,0.0,0.0,0.0,0.0,0.0,0.0,0.0,-4.9039,-4.8667,-4.993,-4.8444,-4.7218,-4.7033,-4.6847,-4.6962,0.0,0.0,0.0,0.0,0.0,0.0,0.0,0.0,0.0,0.0,0.0,0.0,-4.5883,-4.6544,0.0,0.0,0.0,0.0,0.0,-4.6177,-4.6507,-4.7113,-4.7259,-4.77,0.0,0.0,0.0,0.0,0.0,0.0,0.0,0.0,0.0,0.0,0.0,-5.4142,-5.7483,-6.13,-6.2446,-6.223,-6.1463,-6.3046,-6.4738,-6.3429,-6.4895,-6.6786,-6.6786,-6.6786,-6.512,-5.8673,-5.7188,0.0,-4.9003,-4.7699,-4.8677,-5.19,-5.2589,-5.4182,0.0,-6.1824,-6.4323,-6.6496,-6.8923,-7.1132,0.0,-7.3523,0.0,-7.5261,-7.5913,0.0,-7.6275,-7.6275,-7.6275,-7.6275,-7.6275,-7.5898,-7.5118,-7.4935,-7.4414,-7.3522,-7.2658,-7.1917,-7.1312,-7.1312,-7.1312,-7.1312,-7.1312,-7.1312,-7.1312,-7.1312,-7.1312,-7.1312,-7.1312,-7.1312,-7.1312,-7.1312,-7.1312,-7.1312,-7.1312,-7.1312,-7.1312,0.0,0.0,0.0,0.0,0.0,0.0,0.0,-5.0042,-5.0005,-5.0079,-4.9968,-4.9559,-4.8779,-4.8036,-4.7593,0.0,0.0,0.0,0.0,0.0,0.0,0.0,0.0,0.0,0.0,0.0,0.0,-4.5883,-4.5957,0.0,0.0,0.0,0.0,0.0,0.0,-4.7039,-4.7149,-4.7883,0.0,0.0,0.0,0.0,0.0,0.0,0.0,0.0,0.0,0.0,0.0,0.0,0.0,-5.6895,-5.7336,-5.7881,-5.8713,-6.0786,0.0,0.0,-6.5791,-6.6685,-6.6786,-6.6786,-6.6786,-6.512,-5.8673,0.0,-5.5377,-4.9003,-4.7699,-4.8677,-5.19,-5.0778,-5.1588,-5.8492,-5.8058,-5.918,-6.5881,-6.704,-6.885,-7.3269,0.0,0.0,-7.6022,-7.6239,-7.6275,-7.6275,-7.6275,-7.6275,-7.6275,-7.6275,-7.5898,-7.5118,-7.4338,-7.3482,-7.2624,-7.182,-7.1401,-7.1312,-7.1312,-7.1312,-7.1312,-7.1312,-7.1312,-7.1312,-7.1312,-7.1312,0.0,-7.1312,-7.1312,-7.1312,-7.1312,-7.1312,-7.1312,-7.1312,-7.1312,-7.1312,0.0,0.0,0.0,0.0,0.0,0.0,-4.9968,-4.9707,-4.9782,-5.0748,-5.045,-5.0005,-4.967,-4.8875,-4.81,-4.7531,0.0,0.0,0.0,0.0,0.0,0.0,0.0,0.0,0.0,0.0,-4.5993,-4.5186,-4.614,0.0,0.0,0.0,0.0,0.0,0.0,-4.781,-4.7846,0.0,0.0,0.0,0.0,0.0,0.0,0.0,0.0,0.0,0.0,0.0,-5.0215,0.0,0.0,0.0,-5.1867,-5.2559,0.0,0.0,-5.998,-6.248,-6.2612,-6.4746,-6.6903,-6.6815,-6.6786,-6.512,-5.8673,0.0,-5.5377,-4.9003,-4.7699,-4.8098,-4.9365,-4.8822,-4.9438,-5.3241,-5.4689,0.0,-6.3128,-6.6025,-6.892,-7.2712,-7.4021,0.0,0.0,0.0,-7.6106,-7.562,-7.5584,-7.5335,-7.4826,-7.5299,-7.5191,-7.434,-7.3482,-7.2832,-7.2533,-7.1688,-7.1312,-7.1312,-7.1312,-7.1312,-7.1312,-7.1312,-7.1312,-7.1312,-7.1312,-7.1312,0.0,-7.1312,-7.1312,-7.1312,-7.1312,-7.1312,-7.1312,-7.1312,-7.1312,-7.1312,0.0,0.0,0.0,0.0,0.0,-4.9187,-4.9968,-4.9856,-5.0079,-5.1268,-5.1082,-5.0748,-5.0525,-4.9693,-4.8862,-4.818,-4.7664,0.0,0.0,0.0,0.0,0.0,0.0,0.0,0.0,0.0,-4.5149,-4.5039,-4.6214,-4.6691,0.0,0.0,-4.8306,-4.8306,0.0,0.0,0.0,0.0,0.0,0.0,0.0,0.0,0.0,0.0,0.0,0.0,0.0,0.0,0.0,0.0,0.0,0.0,0.0,0.0,0.0,0.0,-5.7468,-6.048,-6.0595,-6.3221,-6.6082,-6.6693,-6.6127,-6.3961,0.0,0.0,-5.4255,-4.8822,-4.7699,-4.7699,-4.7699,-4.7699,-4.8242,-4.9858,0.0,-5.516,-5.9905,-6.4033,-6.7511,-6.9923,0.0,-7.356,-7.3972,-7.5392,-7.5864,-7.4789,-7.4972,-7.4489,-7.3154,-7.3838,-7.4033,-7.3442,-7.279,-7.2364,-7.2142,-7.159,-7.1312,-7.1312,-7.1312,-7.1312,-7.1312,-7.1312,-7.1312,-7.1312,-7.1312,-7.1312,0.0,-7.1312,-7.1312,-7.1312,-7.1312,-7.1312,-7.1312,-7.1312,-7.1312,-7.1312,0.0,0.0,0.0,0.0,0.0,0.0,-4.9968,-5.0822,-5.1379,-5.1416,-5.2085,-5.2271,-5.1454,-5.0546,-4.9954,-4.9899,-4.8311,0.0,0.0,0.0,0.0,0.0,0.0,0.0,0.0,0.0,-4.4305,-4.5883,-4.5883,-4.6728,-4.8269,-4.8306,-4.8306,-4.8306,0.0,0.0,0.0,0.0,0.0,0.0,0.0,0.0,0.0,0.0,0.0,0.0,0.0,0.0,0.0,0.0,0.0,0.0,0.0,0.0,0.0,0.0,-5.429,-5.6506,-6.1298,-6.299,-6.4011,-6.6401,-6.4509,-6.1181,0.0,0.0,-5.1611,-4.8387,-4.7699,-4.7699,-4.7699,-4.7699,-4.8242,-4.9858,-5.0148,0.0,-5.6573,-6.0701,-6.3563,0.0,-6.742,-7.0019,-7.1395,-7.4428,-7.5619,-7.3956,-7.4602,0.0,-7.1457,-7.2099,-7.2533,-7.2533,-7.2533,-7.2099,-7.1312,-7.1312,-7.1312,-7.1312,-7.1312,-7.1312,-7.1312,-7.1312,-7.1312,-7.1312,-7.1312,-7.1312,0.0,-7.1312,-7.1312,-7.1312,-7.1312,-7.1312,-7.1312,-7.1312,-7.1312,-7.1312,0.0,0.0,0.0,0.0,0.0,0.0,0.0,-4.915,-4.9893,-5.045,-5.0748,-5.1008,-5.1342,-5.0064,-4.8899,-4.8254,-4.7629,0.0,0.0,0.0,0.0,0.0,0.0,0.0,0.0,-4.4599,-4.4562,-4.5076,-4.6159,-4.6966,-4.748,-4.8049,-4.8306,-4.8306,-4.8306,-4.8306,0.0,0.0,0.0,0.0,0.0,0.0,0.0,0.0,0.0,0.0,0.0,0.0,0.0,0.0,0.0,0.0,0.0,0.0,0.0,-4.9554,-5.1752,0.0,-5.6324,-5.819,-5.9734,-6.0285,-5.9662,-5.8014,-5.475,-5.3204,-5.1574,-4.8351,-4.7699,-4.7699,-4.7699,-4.7699,-4.8242,-4.9858,-5.0112,0.0,0.0,0.0,0.0,-6.5668,-6.9742,-7.3011,0.0,0.0,-7.501,-7.3878,-7.3522,-7.2742,-7.1356,-7.1546,-7.1688,-7.1688,-7.1688,-7.159,-7.1312,-7.1312,-7.1312,-7.1312,-7.1312,-7.1312,-7.1312,-7.1312,-7.1312,-7.1312,-7.1312,-7.1312,-7.1312,-7.1312,-7.1312,-7.1312,-7.1312,-7.1312,-7.1312,-7.1312,-7.1312,-7.1312,0.0,0.0,0.0,0.0,0.0,0.0,0.0,-4.7924,-4.8742,-4.9559,-4.993,-5.045,-5.1305,-5.0379,-4.9566,-4.9289,-4.8587,0.0,0.0,0.0,0.0,0.0,0.0,0.0,-4.5149,-4.4562,-4.4525,-4.5149,-4.5828,-4.6672,-4.7553,-4.7736,-4.7846,-4.7846,-4.8159,-4.7976,0.0,0.0,0.0,0.0,0.0,0.0,-4.8306,0.0,0.0,0.0,0.0,0.0,0.0,0.0,0.0,0.0,0.0,0.0,0.0,0.0,-4.9774,-5.1736,0.0,-5.5103,-5.6606,-5.7304,-5.6515,0.0,0.0,-5.1574,-5.0126,-4.8134,-4.7699,-4.7699,-4.7699,-4.7699,-4.8242,-4.9858,-5.0112,-5.143,0.0,0.0,-6.2624,-6.5618,-6.9807,0.0,0.0,-7.4512,-7.4602,-7.3402,-7.279,-7.2142,-7.1356,-7.1312,-7.1312,-7.1312,-7.1312,-7.1312,-7.1312,-7.1312,-7.1312,-7.1312,-7.1312,-7.1312,-7.1312,-7.1312,-7.1312,-7.1312,-7.1312,-7.1312,0.0,-7.1312,-7.1312,-7.1312,-7.1312,-7.1312,-7.1312,-7.1312,-7.1312,-7.1312,0.0,0.0,0.0,0.0,0.0,0.0,0.0,-4.7107,-4.7887,-4.8704,-4.9393,-5.0173,-5.1101,-5.0935,-5.108,-5.1893,0.0,0.0,0.0,0.0,0.0,0.0,0.0,0.0,-4.581,-4.4452,-4.4415,-4.581,-4.5186,-4.6012,-4.8196,-4.7443,-4.7113,-4.7113,-4.7883,-4.7388,-4.603,-4.6782,-4.7553,-4.8306,-4.8306,-4.8306,0.0,0.0,0.0,0.0,0.0,0.0,0.0,0.0,0.0,0.0,0.0,0.0,0.0,0.0,0.0,0.0,0.0,-5.3301,-5.429,-5.6366,0.0,0.0,-5.2177,-4.98,0.0,-4.7678,-4.7663,-4.7627,-4.7678,-4.7699,-4.8242,-4.9858,-5.0112,-5.0923,-5.3349,-5.6778,-6.0534,-6.4658,-6.8323,-7.0274,-6.9665,-7.2864,-7.4338,-7.2658,-7.2448,-7.2099,-7.1356,-7.1312,-7.1312,-7.1312,-7.1312,-7.1312,-7.1312,-7.1312,-7.1312,-7.1312,-7.1312,-7.1312,-7.1312,-7.1312,-7.1312,0.0,-7.1312,-7.1312,-7.1312,-7.1312,-7.1312,-7.1312,-7.1312,-7.1312,-7.1312,-7.1312,-7.1312,-7.1312,0.0,0.0,0.0,0.0,0.0,0.0,0.0,0.0,0.0,0.0,-4.7522,-4.7747,-4.923,-4.816,-4.7664,0.0,0.0,0.0,0.0,0.0,0.0,0.0,0.0,0.0,-4.5002,-4.5828,-4.5847,-4.5002,-4.6012,-4.6819,-4.7369,-4.7186,-4.7113,-4.7113,-4.7296,-4.7186,-4.6819,-4.7003,-4.7553,-4.8306,-4.8306,-4.8306,0.0,0.0,0.0,0.0,-4.8306,-4.8306,0.0,0.0,0.0,0.0,0.0,0.0,0.0,0.0,-4.8306,-4.8489,-4.926,0.0,-4.9785,-5.0149,-4.9648,-4.904,0.0,-4.7772,-4.6975,-4.7569,-4.7228,-4.6975,-4.7591,-4.7699,-4.8242,-4.9858,-5.0112,-5.0923,-5.3349,-5.8543,-6.3372,-6.7024,-7.0723,-7.2903,-7.275,-7.3572,-7.3641,-7.2575,-7.1917,-7.1501,-7.1312,-7.1312,-7.1312,-7.1312,-7.1312,-7.1312,-7.1312,-7.1312,-7.1312,-7.1312,-7.1312,-7.1312,-7.1312,-7.1312,-7.1312,-7.1312,-7.1312,-7.1312,-7.1312,-7.1312,-7.1312,-7.1312,-7.1312,-7.1312,-7.1312,-7.1312,-7.1312,-7.1312,0.0,0.0,0.0,0.0,0.0,0.0,0.0,0.0,0.0,0.0,0.0,-4.62,-4.7475,-4.6759,0.0,0.0,0.0,0.0,0.0,0.0,0.0,0.0,0.0,-4.6617,-4.5828,-4.6269,-4.614,-4.5259,-4.5369,-4.6012,-4.7076,-4.6342,-4.6195,-4.6526,-4.6159,-4.6415,-4.7113,-4.7113,-4.7553,-4.8306,-4.8306,0.0,0.0,0.0,0.0,0.0,-4.8306,-4.8306,0.0,-4.8306,-4.8306,-4.8306,0.0,0.0,0.0,0.0,-4.8306,-4.8306,-4.8306,-4.8306,-4.8248,-4.8052,-4.7992,-4.7931,-4.7741,-4.7083,-4.6721,-4.7554,-4.7083,-4.6757,-4.7554,-4.8004,-4.8555,-4.9545,-5.1155,-5.3544,-5.716,-6.1761,-6.5746,-6.8395,-7.1389,-7.32,0.0,-7.32,-7.2832,-7.2004,-7.1546,-7.1312,-7.1312,-7.1312,-7.1312,-7.1312,-7.1312,-7.1312,-7.1312,-7.1312,-7.1312,-7.1312,-7.1312,-7.1312,-7.1312,-7.1312,-7.1312,-7.1312,-7.1312,-7.1312,-7.1312,-7.1312,-7.1312,-7.1312,-7.1312,-7.1312,-7.1312,-7.1312,-7.1312,-7.1312,0.0,0.0,0.0,0.0,0.0,0.0,0.0,0.0,0.0,0.0,0.0,0.0,0.0,0.0,0.0,0.0,0.0,0.0,0.0,0.0,0.0,0.0,-4.8306,-4.7939,-4.7113,-4.6434,-4.5957,-4.5736,-4.4342,-4.4782,-4.6892,-4.5388,-4.5076,-4.57,-4.5002,-4.5535,-4.6929,-4.7039,-4.7553,-4.8306,-4.8306,0.0,0.0,0.0,0.0,0.0,0.0,0.0,0.0,-4.8306,-4.8306,-4.8306,-4.8306,0.0,0.0,0.0,0.0,0.0,-4.8306,-4.8287,-4.8229,-4.8052,-4.7992,-4.7931,-4.7741,-4.7083,-4.6721,-4.7554,-4.7083,-4.6939,-4.8351,-4.9162,-4.9911,-5.0662,-5.3691,-5.7423,-6.152,-6.4867,-6.7384,-6.8763,-7.1041,0.0,-7.2321,-7.2448,-7.2185,-7.1356,-7.1312,-7.1312,-7.1312,-7.1312,-7.1312,-7.1312,-7.1312,-7.1312,-7.1312,-7.1312,-7.1312,-7.1312,-7.1312,-7.1312,-7.1312,-7.1312,-7.1312,-7.1312,-7.1312,0.0,-7.1312,-7.1312,-7.1312,-7.1312,-7.1312,-7.1312,-7.1312,-7.1312,-7.1312,-7.1312,0.0,0.0,0.0,0.0,0.0,0.0,0.0,0.0,0.0,0.0,0.0,0.0,0.0,0.0,0.0,0.0,0.0,0.0,0.0,0.0,0.0,-4.8306,-4.8306,-4.7939,-4.7113,-4.6966,-4.6232,-4.4892,-4.4635,-4.5039,-4.6067,-4.5149,-4.4782,-4.4892,-4.4764,-4.5223,-4.614,-4.6819,-4.7553,-4.8306,-4.8306,0.0,0.0,0.0,0.0,0.0,0.0,0.0,0.0,-4.8306,-4.8306,-4.8306,-4.8306,0.0,0.0,0.0,0.0,0.0,-4.8306,-4.8285,-4.8187,-4.8032,-4.7992,-4.7931,-4.7741,-4.7083,-4.6721,-4.7554,-4.7083,-4.7808,-5.2009,-5.2878,-5.4073,-5.7433,-5.9662,-6.098,-6.1189,-6.4905,-6.7503,-6.7223,-7.0332,-7.2228,-7.1546,-7.2099,-7.2185,-7.1356,-7.1312,-7.1312,-7.1312,-7.1312,-7.1312,-7.1312,-7.1312,-7.1312,-7.1312,-7.1312,-7.1312,-7.1312,-7.1312,-7.1312,-7.1312,-7.1312,-7.1312,-7.1312,0.0,-7.1312,-7.1312,-7.1312,-7.1312,-7.1312,-7.1312,-7.1312,-7.1312,-7.1312,-7.1312,-7.1312,0.0,0.0,0.0,0.0,0.0,0.0,0.0,0.0,0.0,0.0,0.0,0.0,0.0,0.0,0.0,0.0,0.0,0.0,0.0,0.0,-4.8306,-4.8306,-4.8306,-4.8122,-4.7736,-4.6892,-4.6104,-4.5369,-4.4929,-4.5112,-4.5883,-4.5516,-4.4892,-4.4085,-4.4525,-4.4929,-4.5296,-4.6104,-4.6929,-4.7626,0.0,0.0,0.0,0.0,0.0,0.0,0.0,0.0,0.0,0.0,-4.8306,-4.8306,-4.8306,0.0,0.0,0.0,0.0,0.0,-4.8196,-4.8267,-4.8629,-5.0201,-4.9242,-4.7886,-4.772,-4.7083,-4.6721,-4.7554,-4.6837,-4.7615,-5.2759,-5.3845,-5.5749,-6.1294,-6.2227,-6.3127,-6.5665,-6.7477,-6.8863,-6.978,-7.1063,-7.1688,-7.1356,-7.16,-7.1688,-7.1312,-7.1312,-7.1312,-7.1312,-7.1312,-7.1312,-7.1312,-7.1312,-7.1312,-7.1312,-7.1312,-7.1312,-7.1312,-7.1312,-7.1312,-7.1312,-7.1312,-7.1312,-7.1312,0.0,-7.1312,-7.1312,-7.1312,-7.1312,-7.1312,-7.1312,-7.1312,-7.1312,-7.1312,-7.1312,-7.1312,0.0,0.0,0.0,0.0,0.0,0.0,0.0,0.0,0.0,0.0,0.0,0.0,0.0,0.0,0.0,0.0,0.0,0.0,0.0,-4.7846,-4.8306,-4.8306,-4.8306,-4.8306,-4.8306,-4.6911,-4.6104,-4.5883,-4.5296,-4.5223,-4.5626,-4.5626,-4.4856,-4.3551,-4.4342,-4.4691,-4.4728,-4.5553,-4.6361,-4.7113,0.0,0.0,0.0,0.0,0.0,0.0,0.0,0.0,0.0,0.0,0.0,0.0,0.0,0.0,0.0,-4.7846,-4.759,-4.7223,-4.7846,-4.814,-4.8795,-5.1113,-5.035,-4.9168,-4.9573,-4.9328,-4.9141,-4.9564,-4.8993,-4.996,-5.5008,-5.6696,-5.887,-6.3449,-6.3933,-6.5164,-6.9447,-6.9654,-7.0063,-7.2013,-7.1688,-7.1312,-7.1312,-7.1312,-7.1312,-7.1312,-7.1312,-7.1312,-7.1312,-7.1312,-7.1312,-7.1312,-7.1312,-7.1312,-7.1312,-7.1312,-7.1312,-7.1312,-7.1312,-7.1312,-7.1312,-7.1312,-7.1312,-7.1312,-7.1312,-7.1312,-7.1312,-7.1312,-7.1312,-7.1312,-7.1312,-7.1312,-7.1312,-7.1312,-7.1312,-7.1312,0.0,0.0,0.0,0.0,0.0,0.0,0.0,0.0,0.0,0.0,0.0,0.0,0.0,0.0,0.0,0.0,0.0,0.0,0.0,-4.7846,-4.8306,-4.8306,-4.8306,-4.8306,-4.8306,-4.7443,-4.6636,-4.5883,-4.5847,-4.5443,-4.4764,-4.4764,-4.4342,-4.3551,-4.4342,-4.4691,-4.4728,-4.5553,-4.6361,-4.7113,-4.7113,0.0,0.0,0.0,0.0,0.0,0.0,0.0,0.0,0.0,0.0,0.0,0.0,0.0,-4.7113,-4.7186,-4.7149,-4.7113,-4.7186,-4.7679,-4.8224,-4.8324,-5.0414,-5.2971,-5.4999,-5.5995,-5.6252,-5.5625,-5.5996,-5.7705,-6.1747,-6.4988,-6.627,-6.4023,-6.5876,-6.7965,-6.9058,-6.9738,-7.042,-7.1287,-7.1356,-7.1312,-7.1312,-7.1312,-7.1312,-7.1312,-7.1312,-7.1312,-7.1312,-7.1312,-7.1312,-7.1312,-7.1312,-7.1312,-7.1312,-7.1312,-7.1312,-7.1312,-7.1312,-7.1312,-7.1312,-7.1312,-7.1312,-7.1312,-7.1312,-7.1312,-7.1312,-7.1312,-7.1312,-7.1312,-7.1312,-7.1312,-7.1312,-7.1312,-7.1312,-7.1312,0.0,0.0,0.0,0.0,0.0,0.0,0.0,0.0,0.0,0.0,0.0,0.0,0.0,0.0,0.0,0.0,0.0,0.0,0.0,-4.7572,-4.8306,-4.8306,-4.8306,-4.8306,-4.8306,-4.7516,-4.6709,-4.5883,-4.5406,-4.5002,-4.4691,-4.4691,-4.4268,-4.3497,-4.3828,-4.3938,-4.3975,-4.4268,-4.4856,-4.5608,-4.5608,-4.6379,0.0,0.0,0.0,0.0,0.0,0.0,0.0,0.0,-4.8306,-4.8233,-4.77,-4.7003,-4.6361,-4.6361,-4.6361,-4.6471,-4.6966,-4.9089,-5.1536,-5.2906,-5.4472,-5.5353,-5.4132,-5.5261,-5.6546,-5.6767,-5.6807,-5.8008,-6.1977,-6.5999,-6.8218,-6.6612,-6.6856,-6.7698,-6.8919,-6.9347,-6.9934,-7.1187,-7.1312,-7.1312,-7.1312,-7.1312,-7.1312,-7.1312,-7.1312,-7.1312,-7.1312,-7.1312,-7.1312,-7.1312,-7.1312,-7.1312,-7.1312,-7.1312,-7.1312,-7.1312,-7.1312,-7.1312,-7.1312,-7.1312,-7.1312,-7.1312,-7.1312,-7.1312,-7.1312,-7.1312,-7.1312,-7.1312,-7.1312,-7.1312,-7.1312,-7.1312,-7.1312,-7.1312,0.0,0.0,0.0,0.0,0.0,0.0,0.0,0.0,0.0,0.0,0.0,0.0,0.0,0.0,0.0,0.0,0.0,0.0,-4.625,-4.7572,-4.8306,-4.8306,-4.8306,-4.8306,-4.8306,-4.7736,-4.7076,-4.6287,-4.5223,-4.4691,-4.4691,-4.4452,-4.4011,-4.3515,-4.3515,-4.3515,-4.3515,-4.3515,-4.3975,-4.4691,-4.4691,-4.5498,0.0,0.0,0.0,0.0,0.0,0.0,0.0,0.0,-4.7535,-4.7462,-4.6892,-4.6177,-4.5553,-4.5847,-4.5883,-4.6067,-4.6892,-4.9789,-5.3007,-5.4579,-5.6438,-5.7396,-5.5569,-5.5883,-5.689,-5.8176,-5.8931,-6.0006,-6.2004,-6.5679,-6.7942,-6.65,-6.6541,-6.7354,-6.8876,-6.9113,-6.9654,-7.1142,-7.1312,-7.1312,-7.1312,-7.1312,-7.1312,-7.1312,-7.1312,-7.1312,-7.1312,-7.1312,-7.1312,-7.1312,-7.1312,-7.1312,-7.1312,-7.1312,-7.1312,-7.1312,-7.1312,-7.1312,-7.1312,-7.1312,-7.1312,-7.1312,-7.1312,-7.1312,-7.1312,-7.1312,-7.1312,-7.1312,-7.1312,-7.1312,-7.1312,-7.1312,-7.1312,-7.1312,0.0,0.0,0.0,0.0,0.0,0.0,0.0,0.0,0.0,0.0,0.0,0.0,0.0,0.0,0.0,0.0,0.0,0.0,-4.7039,-4.7846,-4.8306,-4.8306,-4.8306,-4.8306,-4.8306,-4.8306,-4.7883,-4.7113,-4.5498,-4.4691,-4.4654,-4.3864,-4.3515,-4.3515,-4.3515,-4.3515,-4.3515,-4.3515,-4.3975,-4.4691,-4.4691,-4.5186,-4.5883,0.0,0.0,0.0,0.0,0.0,0.0,0.0,-4.5883,-4.5883,-4.5883,-4.5333,-4.4856,-4.5663,-4.592,-4.6104,-4.6929,-4.9473,-5.1861,-5.1811,-5.5402,-5.9247,-6.059,-5.9202,-5.8274,-6.0525,-6.3481,-6.5023,-6.2809,-6.4816,-6.5865,-6.2922,-6.4884,-6.7354,-6.8876,-6.9113,-6.9654,-7.1142,-7.1312,-7.1312,-7.1312,-7.1312,-7.1312,-7.1312,-7.1312,-7.1312,-7.1312,-7.1312,-7.1312,-7.1312,-7.1312,-7.1312,-7.1312,-7.1312,-7.1312,-7.1312,-7.1312,-7.1312,-7.1312,-7.1312,-7.1312,-7.1312,-7.1312,-7.1312,-7.1312,-7.1312,-7.1312,-7.1312,-7.1312,-7.1312,-7.1312,-7.1312,-7.1312,-7.1312,0.0,0.0,0.0,0.0,0.0,0.0,0.0,0.0,0.0,0.0,0.0,0.0,0.0,0.0,0.0,0.0,0.0,0.0,-4.625,-4.7535,-4.8306,-4.8306,-4.8306,-4.8306,-4.8306,-4.8306,-4.7883,-4.7113,-4.5498,-4.4691,-4.4654,-4.3864,-4.3515,-4.3515,-4.3515,-4.3515,-4.3515,-4.3515,-4.3644,-4.3864,-4.3864,-4.4342,-4.5076,0.0,0.0,0.0,0.0,0.0,0.0,0.0,0.0,0.0,-4.5223,-4.4892,-4.4728,-4.5002,-4.7095,-4.9517,-5.0325,-5.4446,-5.8355,-5.781,-5.8991,-6.0297,-6.0243,-5.9373,-5.85,-5.8131,-6.2997,-6.6326,-6.2994,-6.5272,-6.7174,-6.5711,-6.6237,-6.7354,-6.8876,-6.9113,-6.9654,-7.1142,-7.1312,-7.1312,-7.1312,-7.1312,-7.1312,-7.1312,-7.1312,-7.1312,-7.1312,-7.1312,-7.1312,-7.1312,-7.1312,-7.1312,-7.1312,-7.1312,-7.1312,-7.1312,-7.1312,-7.1312,-7.1312,-7.1312,-7.1312,-7.1312,-7.1312,-7.1312,-7.1312,-7.1312,-7.1312,-7.1312,-7.1312,-7.1312,-7.1312,-7.1312,-7.1312,-7.1312,0.0,0.0,0.0,0.0,0.0,0.0,0.0,0.0,0.0,0.0,-4.3515,-4.3515,0.0,0.0,0.0,0.0,0.0,0.0,-4.6361,-4.7572,-4.8306,-4.8306,-4.8306,-4.8306,-4.8306,-4.8306,-4.8086,-4.759,-4.6269,-4.5315,-4.4691,-4.4195,-4.3791,-4.3515,-4.3515,-4.3515,-4.3515,-4.3515,-4.3515,-4.3515,-4.3515,-4.3791,-4.4232,0.0,0.0,0.0,0.0,0.0,0.0,0.0,0.0,0.0,-4.4378,-4.4232,-4.4342,-4.5002,-4.7619,-5.0596,-5.1784,-5.6185,-6.034,-5.9899,-6.0651,-6.1083,-5.9455,-5.9457,-5.9564,-5.8735,-6.3112,-6.6488,-6.4511,-6.601,-6.7366,-6.6896,-6.6812,-6.7354,-6.8876,-6.9113,-6.9654,-7.1142,-7.1312,-7.1312,-7.1312,-7.1312,-7.1312,-7.1312,-7.1312,-7.1312,-7.1312,-7.1312,-7.1312,-7.1312,-7.1312,-7.1312,-7.1312,-7.1312,-7.1312,-7.1312,-7.1312,-7.1312,-7.1312,-7.1312,-7.1312,-7.1312,-7.1312,-7.1312,-7.1312,-7.1312,-7.1312,-7.1312,-7.1312,-7.1312,-7.1312,-7.1312,-7.1312,-7.1312,0.0,0.0,0.0,0.0,0.0,0.0,0.0,0.0,0.0,0.0,-4.3515,-4.3515,0.0,0.0,0.0,0.0,0.0,0.0,0.0,-4.7829,-4.8306,-4.8306,-4.8306,-4.8306,-4.8306,-4.8306,-4.8306,-4.8306,-4.748,-4.6305,-4.4801,-4.4728,-4.4268,-4.3515,-4.3515,-4.3515,-4.3515,-4.3515,-4.3515,-4.3515,-4.3515,-4.3515,-4.3515,-4.3515,0.0,0.0,0.0,0.0,0.0,0.0,0.0,0.0,-4.3515,-4.348,-4.3756,-4.5443,-4.7688,-5.0109,-5.2065,-5.585,-5.9284,-5.9527,-6.1026,-6.1743,-5.9109,-5.9989,-6.1231,-6.0871,-6.3463,-6.5933,-6.6339,-6.6643,-6.6812,-6.6812,-6.6812,-6.7354,-6.8876,-6.9113,-6.9654,-7.1142,-7.1312,-7.1312,-7.1312,-7.1312,-7.1312,-7.1312,-7.1312,-7.1312,-7.1312,-7.1312,-7.1312,-7.1312,-7.1312,-7.1312,-7.1312,-7.1312,-7.1312,-7.1312,-7.1312,-7.1312,-7.1312,-7.1312,-7.1312,-7.1312,-7.1312,-7.1312,-7.1312,-7.1312,-7.1312,-7.1312,-7.1312,-7.1312,-7.1312,-7.1312,-7.1312,-7.1312,0.0,0.0,0.0,0.0,0.0,0.0,0.0,0.0,0.0,0.0,0.0,0.0,0.0,0.0,0.0,0.0,0.0,0.0,0.0,-4.7498,-4.8306,-4.8306,-4.8306,-4.8306,-4.8306,-4.8306,-4.8306,-4.8306,-4.748,-4.6599,-4.5626,-4.5002,-4.4268,-4.3515,-4.3515,-4.3515,-4.3515,-4.3515,-4.3515,-4.3515,-4.3515,-4.3515,-4.3515,-4.3515,-4.3515,0.0,0.0,0.0,0.0,0.0,0.0,0.0,-4.3515,-4.3268,-4.3414,-4.5334,-4.7586,-5.0402,-5.4608,-5.7565,-5.9972,-6.2195,-6.2532,-6.2542,-6.3018,-6.3508,-6.2503,-5.7848,-6.2076,-6.5899,-6.3734,-6.5256,-6.6812,-6.6812,-6.6812,-6.7354,-6.8876,-6.9113,-6.9654,-7.1142,-7.1312,-7.1312,-7.1312,-7.1312,-7.1312,-7.1312,-7.1312,-7.1312,-7.1312,-7.1312,-7.1312,-7.1312,-7.1312,-7.1312,-7.1312,-7.1312,-7.1312,-7.1312,-7.1312,-7.1312,-7.1312,-7.1312,-7.1312,-7.1312,-7.1312,-7.1312,-7.1312,-7.1312,-7.1312,-7.1312,-7.1312,-7.1312,-7.1312,-7.1312,-7.1312,-7.1312,0.0,0.0,0.0,0.0,0.0,0.0,0.0,0.0,0.0,0.0,0.0,0.0,0.0,0.0,0.0,0.0,0.0,0.0,0.0,0.0,-4.8306,-4.8306,-4.8306,-4.8306,-4.8306,-4.8306,-4.8306,-4.8306,-4.7883,-4.7259,-4.6471,-4.5663,-4.4856,-4.4048,-4.3644,-4.3515,-4.3515,-4.3515,-4.3515,-4.3515,-4.3515,-4.3515,-4.3515,-4.3515,-4.324,-4.2966,-4.3158,0.0,0.0,0.0,0.0,0.0,0.0,0.0,-4.2848,-4.4275,-4.6721,-4.9862,-5.4142,-5.7083,-5.9633,-6.2407,0.0,-6.2702,-6.3845,-6.4359,-6.3835,-6.1061,-6.3869,-6.6339,-6.4783,-6.5764,-6.6812,-6.6812,-6.6812,-6.7354,-6.8876,-6.9113,-6.9654,-7.1142,-7.1312,-7.1312,-7.1312,-7.1312,-7.1312,-7.1312,-7.1312,-7.1312,-7.1312,-7.1312,-7.1312,-7.1312,-7.1312,-7.1312,-7.1312,-7.1312,-7.1312,-7.1312,-7.1312,-7.1312,-7.1312,-7.1312,-7.1312,-7.1312,-7.1312,-7.1312,-7.1312,-7.1312,-7.1312,-7.1312,-7.1312,-7.1312,-7.1312,-7.1312,-7.1312,-7.1312,0.0,0.0,0.0,0.0,0.0,0.0,0.0,0.0,0.0,0.0,0.0,0.0,0.0,0.0,0.0,0.0,0.0,0.0,0.0,0.0,0.0,-4.8306,-4.8306,-4.8306,-4.8306,-4.8306,-4.8306,-4.8306,-4.8306,-4.7957,-4.7296,-4.6471,-4.559,-4.4654,-4.4011,-4.3625,-4.3515,-4.3515,-4.3441,-4.3277,-4.3225,-4.3191,-4.3173,-4.312,-4.2664,-4.2137,-4.2611,-4.2226,-4.1592,-4.2031,0.0,0.0,0.0,0.0,-4.2358,-4.3144,-4.5269,-4.8199,-5.198,-5.5602,-5.8994,-6.1714,-6.2381,0.0,-6.3497,-6.4174,-6.485,-6.5696,-6.6373,-6.6812,-6.6812,-6.6812,-6.6812,-6.6812,-6.6812,-6.7354,-6.8876,-6.9113,-6.9654,-7.1142,-7.1312,-7.1312,-7.1312,-7.1312,-7.1312,-7.1312,-7.1312,-7.1312,-7.1312,-7.1312,-7.1312,-7.1312,-7.1312,-7.1312,-7.1312,-7.1312,-7.1312,-7.1312,-7.1312,-7.1312,-7.1312,-7.1312,-7.1312,-7.1312,-7.1312,-7.1312,-7.1312,-7.1312,-7.1312,-7.1312,-7.1312,-7.1312,-7.1312,-7.1312,-7.1312,-7.1312,0.0,0.0,0.0,0.0,0.0,0.0,0.0,0.0,0.0,0.0,-4.7039,-4.6599,0.0,0.0,0.0,0.0,0.0,0.0,0.0,0.0,0.0,-4.8306,-4.8306,-4.8306,-4.8306,-4.8306,-4.8306,-4.8306,-4.8306,-4.8269,-4.8122,-4.7296,-4.6122,-4.4691,-4.4599,-4.4158,-4.3515,-4.3515,-4.3094,-4.2453,-4.2085,-4.1887,-4.1814,-4.155,-4.1343,-4.1343,-4.2051,-4.1817,-4.128,-4.1986,-4.2216,0.0,0.0,0.0,-4.2338,-4.3024,-4.327,-4.4233,-4.8553,0.0,-5.8812,0.0,-6.2381,-6.2753,0.0,0.0,-6.4986,0.0,-6.6745,-6.6812,-6.6812,-6.6812,-6.6812,-6.6812,-6.6812,-6.7354,-6.8876,-6.9113,-6.9654,-7.1142,-7.1312,-7.1312,-7.1312,-7.1312,-7.1312,-7.1312,-7.1312,-7.1312,-7.1312,-7.1312,-7.1312,-7.1312,-7.1312,-7.1312,-7.1312,-7.1312,-7.1312,-7.1312,-7.1312,-7.1312,-7.1312,-7.1312,-7.1312,-7.1312,-7.1312,-7.1312,-7.1312,-7.1312,-7.1312,-7.1312,-7.1312,-7.1312,-7.1312,-7.1312,-7.1312,-7.1312,0.0,0.0,0.0,0.0,0.0,0.0,0.0,0.0,0.0,0.0,0.0,-4.7113,0.0,0.0,0.0,-4.5883,0.0,0.0,0.0,0.0,0.0,-4.8306,-4.8306,-4.8306,-4.8306,-4.8306,-4.8306,-4.8306,-4.8306,-4.8306,-4.8306,-4.792,-4.6911,-4.5369,-4.4892,-4.4268,-4.3515,-4.3515,-4.2917,-4.1993,-4.2467,-4.2232,-4.1631,-4.1799,-4.1594,-4.1228,-4.1499,-4.1094,-4.051,-4.1054,-4.1243,-4.1243,-4.1243,0.0,0.0,0.0,-4.1834,-4.294,-4.7333,-5.3166,-5.8296,0.0,-6.1467,-6.3294,-6.4377,-6.4918,-6.5527,-6.6609,-6.6812,-6.6812,-6.6812,-6.6812,-6.6812,-6.6812,-6.6812,-6.7184,-6.8267,-6.8808,-6.9485,-7.0567,-7.1075,-7.1312,-7.1312,-7.1312,-7.1312,-7.1312,-7.1312,-7.1312,-7.1312,-7.1312,-7.1312,-7.1312,-7.1312,-7.1312,-7.1312,-7.1312,-7.1312,-7.1312,-7.1312,-7.1312,-7.1312,-7.1312,-7.1312,-7.1312,-7.1312,-7.1312,-7.1312,-7.1312,-7.1312,-7.1312,-7.1312,-7.1312,-7.1312,-7.1312,-7.1312,-7.1312,0.0,0.0,0.0,0.0,0.0,0.0,0.0,0.0,0.0,0.0,0.0,0.0,0.0,0.0,0.0,0.0,-4.7039,0.0,0.0,0.0,0.0,-4.8306,-4.8306,-4.8306,-4.8306,-4.8306,-4.8306,-4.8306,-4.8306,-4.8306,-4.8306,-4.8306,-4.7572,-4.6177,-4.5369,-4.4562,-4.3791,-4.3333,-4.2575,-4.1651,-4.2214,-4.1901,-4.1228,-4.1777,-4.1603,-4.1109,-4.122,-4.0735,-4.0112,-4.0401,-4.051,-4.051,-4.051,-4.0549,0.0,0.0,0.0,-4.2424,0.0,0.0,-5.5786,-5.7275,-6.0013,-6.2753,0.0,0.0,-6.5899,0.0,-6.6812,-6.6812,-6.6812,-6.6812,-6.6812,-6.6812,-6.6812,-6.7083,-6.7793,-6.8605,-6.9383,-7.0094,-7.0838,-7.1312,-7.1312,-7.1312,-7.1312,-7.1312,-7.1312,-7.1312,-7.1312,-7.1312,-7.1312,-7.1312,-7.1312,-7.1312,-7.1312,-7.1312,-7.1312,-7.1312,-7.1312,-7.1312,-7.1312,-7.1312,-7.1312,-7.1312,-7.1312,-7.1312,-7.1312,-7.1312,-7.1312,-7.1312,-7.1312,-7.1312,-7.1312,-7.1312,-7.1312,-7.1312,0.0,0.0,0.0,0.0,0.0,0.0,0.0,0.0,0.0,0.0,0.0,0.0,-4.9463,-4.871,-4.8196,-4.8196,-4.8233,-4.8269,-4.8306,-4.8306,0.0,-4.8306,-4.8306,0.0,-4.8306,-4.8306,-4.8306,-4.8306,-4.8306,-4.8306,-4.8306,-4.8306,-4.7846,-4.7003,-4.6214,-4.5406,-4.4544,-4.2934,-4.1958,-4.132,-4.0178,-3.9834,-4.0038,-4.0442,-4.0583,-4.0651,-4.1321,-4.1091,-4.0476,-4.051,-4.051,-4.051,-4.051,-4.0754,-4.0955,0.0,0.0,0.0,0.0,-4.7179,0.0,-5.5481,-5.8084,0.0,0.0,0.0,-6.5899,-6.6643,-6.6812,-6.6812,-6.6812,-6.6812,-6.6812,-6.6812,-6.6812,-6.7083,-6.7793,-6.8605,-6.9383,-7.0094,-7.0838,-7.1312,-7.1312,-7.1312,-7.1312,-7.1312,-7.1312,-7.1312,-7.1312,-7.1312,-7.1312,-7.1312,-7.1312,-7.1312,-7.1312,-7.1312,-7.1312,-7.1312,-7.1312,-7.1312,-7.1312,-7.1312,-7.1312,-7.1312,-7.1312,-7.1312,-7.1312,-7.1312,-7.1312,-7.1312,-7.1312,-7.1312,-7.1312,-7.1312,-7.1312,-7.1312,0.0,0.0,0.0,0.0,0.0,0.0,0.0,0.0,0.0,0.0,0.0,0.0,0.0,-4.882,-4.8306,-4.8306,-4.8306,-4.8306,-4.8306,-4.8306,0.0,-4.8306,-4.8306,-4.8306,-4.8306,-4.8306,-4.8306,-4.8306,-4.8306,-4.8306,-4.8306,-4.8306,-4.8159,-4.7829,-4.6507,-4.5443,-4.451,-4.2559,-4.1447,-4.0891,-4.0344,-4.0332,-4.0608,-4.0685,-4.1253,-4.2302,-4.3741,-4.4353,-4.4828,-4.6729,-4.5778,-4.3844,-4.3844,-4.2304,-4.0417,-4.0238,-4.0671,0.0,0.0,0.0,0.0,-4.9862,-5.3315,-5.6528,-5.7881,-6.096,-6.3666,-6.3903,-6.5493,-6.6812,-6.6812,-6.6812,-6.6812,-6.6812,-6.6812,-6.6914,-6.7151,-6.8301,-6.9214,-6.9451,-7.0567,-7.1312,-7.1312,-7.1312,-7.1312,-7.1312,-7.1312,-7.1312,-7.1312,-7.1312,-7.1312,-7.1312,-7.1312,-7.1312,-7.1312,-7.1312,-7.1312,-7.1312,-7.1312,-7.1312,-7.1312,-7.1312,-7.1312,-7.1312,-7.1312,-7.1312,-7.1312,-7.1312,-7.1312,-7.1312,-7.1312,-7.1312,-7.1312,-7.1312,-7.1312,-7.1312,0.0,0.0,0.0,0.0,0.0,0.0,0.0,0.0,-4.937,-4.9884,0.0,0.0,0.0,0.0,-4.8306,-4.8306,-4.8306,-4.8306,-4.8306,-4.8306,-4.8306,-4.8306,-4.8306,-4.8306,-4.8306,-4.8306,-4.8306,-4.8306,-4.8306,-4.8306,-4.8306,-4.8306,-4.8173,-4.7942,-4.6608,-4.5385,-4.4271,-4.2283,-4.1026,-4.0404,-4.0241,-4.0398,-4.0899,-4.256,-4.3639,-4.4578,-4.7039,-4.824,-4.8917,-5.0642,-4.8917,-4.6041,-4.5771,-4.3098,-4.0113,-4.0113,-4.0451,-4.0832,-4.0832,0.0,0.0,0.0,0.0,-5.3044,-5.4296,0.0,-6.211,-6.2347,-6.4749,-6.6812,-6.6812,-6.6812,-6.6812,-6.6812,-6.6812,-6.6812,-6.6812,-6.7895,-6.8808,-6.9079,-7.0195,-7.1041,-7.1278,-7.1312,-7.1312,-7.1312,-7.1312,0.0,-7.1312,-7.1312,-7.1312,-7.1312,-7.1312,-7.1312,-7.1312,-7.1312,-7.1312,-7.1312,-7.1312,-7.1312,-7.1312,-7.1312,-7.1312,-7.1312,-7.1312,-7.1312,-7.1312,-7.1312,-7.1312,-7.1312,-7.1312,-7.1312,-7.1312,-7.1312,-7.1312,-7.1312,0.0,0.0,0.0,0.0,0.0,0.0,0.0,0.0,-4.8306,-4.8306,0.0,0.0,0.0,0.0,0.0,-4.8306,-4.8306,-4.8306,-4.8306,-4.8306,-4.8306,-4.8306,0.0,0.0,-4.8306,-4.8306,-4.8306,-4.8306,-4.8306,-4.8306,-4.8306,-4.8287,-4.7975,-4.737,-4.657,-4.5364,-4.3818,-4.2014,-4.0678,-3.9754,-3.9733,-3.9929,-4.0823,-4.6041,-4.7597,-4.7462,-5.1116,-5.2435,-5.2367,-5.1758,-4.9492,-4.6752,-4.5838,-4.3031,-4.0113,-4.0113,-4.0113,-4.0113,0.0,0.0,0.0,0.0,0.0,0.0,-5.3585,0.0,-6.1298,-6.2212,-6.4681,-6.6711,-6.6779,-6.6812,-6.6812,-6.6812,-6.6812,-6.6812,-6.6812,-6.7455,-6.8199,-6.9011,-6.9755,-7.0466,-7.1244,-7.1312,-7.1312,-7.1312,-7.1312,-7.1312,-7.1312,-7.1312,-7.1312,-7.1312,-7.1312,-7.1312,-7.1312,-7.1312,-7.1312,-7.1312,-7.1312,-7.1312,-7.1312,-7.1312,-7.1312,-7.1312,-7.1312,-7.1312,-7.1312,-7.1312,-7.1312,-7.1312,-7.1312,-7.1312,-7.1312,-7.1312,-7.1312,-7.1312,0.0,0.0,0.0,0.0,0.0,-4.8306,-4.8306,-4.8306,-4.8306,0.0,0.0,0.0,-4.8306,-4.8306,-4.8306,-4.8306,-4.8306,-4.8306,-4.8306,-4.8306,-4.8306,-4.8306,-4.8306,-4.8306,-4.8306,-4.8306,-4.8306,-4.8306,-4.8306,-4.8306,-4.8287,-4.7838,-4.7756,-4.7951,-4.6776,-4.5013,-4.2805,-4.0997,-3.9722,-3.9122,-4.1426,-4.3071,-4.4587,-4.8748,-5.0879,-5.1995,-5.46,-5.5886,-5.663,-5.8626,-5.5141,-4.9018,-4.3403,-4.0959,-4.0113,-4.0113,-4.0113,-4.0113,-4.0113,0.0,0.0,0.0,0.0,0.0,0.0,0.0,-5.6224,-6.1332,-6.3024,-6.4275,-6.6406,-6.6812,-6.6812,-6.6812,-6.6812,-6.6812,-6.6812,-6.7455,-6.8199,-6.9011,-6.9755,-7.0466,-7.1244,-7.1312,-7.1312,0.0,-7.1312,-7.1312,-7.1312,-7.1312,-7.1312,-7.1312,-7.1312,-7.1312,-7.1312,-7.1312,-7.1312,-7.1312,-7.1312,-7.1312,-7.1312,-7.1312,-7.1312,-7.1312,-7.1312,-7.1312,-7.1312,-7.1312,-7.1312,-7.1312,-7.1312,-7.1312,-7.1312,-7.1312,-7.1312,-7.1312,0.0,0.0,0.0,0.0,0.0,-4.8306,-4.8306,-4.8306,-4.8306,0.0,0.0,0.0,-4.8306,-4.8306,-4.8306,-4.8306,-4.8306,-4.8306,-4.8306,-4.8306,-4.8306,-4.8306,-4.8306,-4.8306,-4.8306,-4.8306,-4.8306,-4.8306,-4.8306,-4.8306,-4.8287,-4.7955,-4.7674,-4.7442,-4.6923,-4.4926,-4.1876,-4.0746,-4.0492,-4.0972,-4.1724,-4.3707,-4.6616,-5.0642,-5.2536,-5.3551,-5.7645,-5.9607,-6.0486,-6.2279,-5.9133,-5.301,-4.4587,-4.2591,-4.3031,-4.15,-4.1027,-4.1027,-4.1027,-4.1305,-4.1644,-4.1644,0.0,0.0,-4.7631,-5.0135,-5.3484,-5.9302,-6.052,-6.1434,-6.441,-6.3937,-6.3497,-6.4749,-6.4952,-6.5392,-6.6643,-6.7184,-6.7726,-6.8504,-6.9282,-7.0026,-7.077,-7.1142,-7.1312,-7.1312,-7.1312,-7.1312,-7.1312,-7.1312,-7.1312,-7.1312,-7.1312,-7.1312,-7.1312,-7.1312,-7.1312,-7.1312,-7.1312,-7.1312,-7.1312,-7.1312,-7.1312,-7.1312,-7.1312,-7.1312,-7.1312,-7.1312,-7.1312,-7.1312,-7.1312,-7.1312,-7.1312,-7.1312,-7.1312,-7.1312,0.0,0.0,-4.8306,-4.8306,-4.8306,-4.8306,-4.8306,-4.8306,-4.8306,0.0,-4.8306,-4.8306,-4.8306,-4.8306,-4.8306,-4.8306,-4.8306,-4.8306,-4.8306,-4.8306,-4.8306,-4.8306,-4.8306,-4.8306,-4.8306,-4.8306,-4.8306,-4.8306,-4.8306,-4.8306,-4.8287,-4.8153,-4.7554,-4.6612,-4.6819,-4.4859,-4.1418,-4.1071,-4.227,-4.4173,-4.1962,-4.3775,-4.8274,-5.2875,-5.416,-5.4329,-6.0452,-6.3057,-6.3531,-6.2787,-6.096,-5.7374,-4.8003,-4.6447,-4.7361,-4.3944,-4.2658,-4.2388,-4.232,-4.2354,-4.2422,-4.2422,-4.2997,0.0,-4.5805,-4.8477,-5.1961,-5.6765,-5.7509,-5.822,-6.1332,-5.9708,-5.8761,-6.1434,-6.2178,-6.3429,-6.6406,-6.6812,-6.7083,-6.7793,-6.8538,-6.9282,-7.0094,-7.0804,-7.121,-7.1312,-7.1312,-7.1312,-7.1312,-7.1312,-7.1312,-7.1312,-7.1312,-7.1312,-7.1312,-7.1312,-7.1312,-7.1312,-7.1312,-7.1312,-7.1312,-7.1312,-7.1312,-7.1312,-7.1312,-7.1312,-7.1312,-7.1312,-7.1312,-7.1312,-7.1312,-7.1312,-7.1312,-7.1312,-7.1312,-7.1312,0.0,-4.8306,-4.8306,-4.8306,-4.8306,-4.8306,-4.8306,-4.8306,-4.8306,-4.8306,-4.8306,-4.8306,-4.8306,-4.8306,-4.8306,-4.8306,-4.8306,-4.8306,-4.8306,-4.8306,-4.8306,-4.8306,-4.8306,-4.8306,-4.8306,-4.8306,-4.8306,-4.8306,-4.8306,-4.8306,-4.8287,-4.7241,-4.7088,-4.7591,-4.5875,-4.4297,-4.2882,-4.1646,-4.2961,-4.5939,-4.6893,-4.9965,-5.4532,-5.9641,-6.1467,-6.1569,-6.3497,-6.4275,-6.3565,-5.8152,-5.7509,-5.7746,-5.0439,-4.8443,-4.8511,-4.7225,-4.5094,-4.3064,-4.2455,-4.2726,-4.32,-4.32,-4.3775,0.0,-4.8477,-4.797,-4.8714,-5.5615,-5.5074,-5.4499,-5.8084,-5.8287,-5.8084,-5.866,-6.0791,-6.3429,-6.6406,-6.6812,-6.7083,-6.7793,-6.803,-6.8673,-7.006,-7.0331,-7.0669,-7.1278,-7.1312,-7.1312,-7.1312,-7.1312,-7.1312,-7.1312,-7.1312,-7.1312,-7.1312,-7.1312,-7.1312,-7.1312,-7.1312,-7.1312,-7.1312,-7.1312,-7.1312,-7.1312,-7.1312,-7.1312,-7.1312,-7.1312,-7.1312,-7.1312,-7.1312,-7.1312,-7.1312,-7.1312,-7.1312,-7.1312,-4.8306,-4.8306,-4.8306,-4.8306,-4.8306,-4.8306,-4.8306,-4.8306,-4.8306,-4.8306,-4.8306,-4.8306,-4.8306,-4.8306,-4.8306,-4.8306,-4.8306,-4.8306,-4.8306,-4.8306,-4.8306,-4.8306,-4.8306,-4.8306,-4.8306,-4.8306,-4.8306,-4.8306,-4.8055,-4.7935,-4.7838,-4.7212,-4.7069,-4.7251,-4.6274,-4.5157,-4.4024,-4.4688,-4.6851,-4.9797,-4.8433,-5.0811,-5.5649,-6.0114,-6.1806,-6.2042,-6.3937,-6.485,-6.4444,-5.9979,-5.9471,-5.9776,-5.4532,-5.186,-5.0439,-4.9323,-4.6887,-4.4384,-4.3639,-4.3707,-4.4012,-4.4012,-4.4282,0.0,0.0,-4.6752,-4.7293,-5.2875,-5.1623,-5.0574,-5.3957,-5.3348,-5.2976,-5.4803,-5.6359,-5.8524,-6.1873,-6.4918,-6.6948,-6.732,-6.7692,-6.8368,-6.9553,-6.9958,-7.05,-7.1244,-7.1312,-7.1312,-7.1312,-7.1312,-7.1312,-7.1312,-7.1312,-7.1312,-7.1312,-7.1312,-7.1312,-7.1312,-7.1312,-7.1312,-7.1312,-7.1312,-7.1312,-7.1312,-7.1312,-7.1312,-7.1312,-7.1312,-7.1312,-7.1312,-7.1312,-7.1312,-7.1312,-7.1312,-7.1312,-7.1312,-4.8306,-4.8306,-4.8306,-4.8306,-4.8306,-4.8306,-4.8306,-4.8306,-4.8306,-4.8306,-4.8453,-4.8783,-4.9407,-4.9077,-4.904,-4.9664,-4.915,-4.871,-4.8563,-4.8526,-4.8453,-4.8306,-4.8306,-4.8306,-4.8306,-4.8306,-4.8306,-4.8306,-4.7935,-4.7674,-4.7591,-4.7392,-4.7214,-4.7086,-4.6918,-4.652,-4.6135,-4.8112,-5.0776,-5.345,-5.0541,-5.1894,-5.6055,-5.9776,-6.0825,-6.0757,-6.3903,-6.5392,-6.5527,-6.3193,-6.2753,-6.2516,-5.8321,-5.5344,-5.2976,0.0,0.0,0.0,-4.4852,-4.4615,-4.4615,-4.4615,-4.4615,-4.4784,0.0,0.0,0.0,-4.9526,0.0,0.0,0.0,0.0,0.0,0.0,0.0,0.0,0.0,-6.1332,0.0,-6.5087,-6.5628,-6.6508,-6.7895,-6.935,-7.05,-7.1244,-7.1312,-7.1312,-7.1312,-7.1312,-7.1312,-7.1312,-7.1312,-7.1312,-7.1312,-7.1312,-7.1312,-7.1312,-7.1312,-7.1312,-7.1312,-7.1312,-7.1312,-7.1312,-7.1312,-7.1312,-7.1312,-7.1312,-7.1312,-7.1312,-7.1312,-7.1312,-7.1312,-7.1312,-7.1312,-7.1312,-4.8306,-4.8306,-4.8306,-4.8306,-4.8306,-4.8306,-4.8306,-4.8306,-4.8306,-4.8306,-4.8967,-5.0565,-5.3408,-5.1793,-5.1646,-5.4509,-5.216,-5.0215,-4.95,-4.9407,-4.904,-4.8343,-4.8306,-4.8306,-4.8306,-4.8306,-4.8306,-4.8306,-4.8248,-4.8229,-4.8153,-4.7044,-4.7361,-4.8822,-4.6752,-4.7795,-5.0934,-5.0249,-5.1688,-5.4702,-5.7476,-5.8964,-5.9877,-6.3632,-6.3429,-6.1637,-6.5256,-6.6609,-6.6237,-6.3362,-6.414,-6.5324,-5.9573,-5.7543,-5.6427,-5.23,0.0,0.0,0.0,0.0,-4.4615,-4.4615,-4.4615,-4.4615,-4.4716,0.0,-4.5026,-4.6109,0.0,0.0,0.0,0.0,0.0,0.0,0.0,0.0,-5.0236,-5.5141,-5.8896,-5.8896,-5.8964,-6.0385,-6.3802,-6.7793,-7.05,-7.1244,-7.1312,-7.1312,-7.1312,-7.1312,-7.1312,-7.1312,-7.1312,-7.1312,-7.1312,-7.1312,-7.1312,-7.1312,-7.1312,-7.1312,-7.1312,-7.1312,-7.1312,-7.1312,-7.1312,-7.1312,-7.1312,-7.1312,-7.1312,-7.1312,-7.1312,-7.1312,-7.1312,-7.1312,-7.1312,-7.1312,-4.8306,-4.8306,-4.8306,-4.8306,-4.8306,-4.8306,-4.8306,-4.8306,-4.8306,-4.8306,-4.8636,-5.0251,-5.3995,-5.1389,-5.1793,-5.785,-5.5023,-5.3739,-5.5721,-5.3665,-5.3225,-5.5244,-5.0802,-4.9407,-5.1793,-4.9517,-4.819,-4.7915,-4.7548,-4.7168,-4.6774,-4.622,-4.637,-4.72,-4.8264,-4.9727,-5.1668,-5.5111,-5.6325,-5.619,-5.9911,-6.0385,-5.937,-6.441,-6.5561,-6.4715,-6.6271,-6.6812,-6.6609,-6.5392,-6.4647,0.0,0.0,0.0,0.0,-5.4126,0.0,0.0,0.0,0.0,0.0,0.0,0.0,0.0,-4.5635,0.0,-4.4716,0.0,0.0,0.0,0.0,0.0,0.0,0.0,-4.7056,0.0,0.0,0.0,-5.2739,0.0,0.0,0.0,-6.3734,-6.4275,-6.5561,-6.847,-6.8301,-6.8233,-6.8673,-7.0364,-7.1312,-7.1312,-7.1312,-7.1312,-7.1312,-7.1312,-7.1312,-7.1312,-7.1312,-7.1312,-7.1312,-7.1312,-7.1312,-7.1312,-7.1312,-7.1312,-7.1312,-7.1312,-7.1312,-7.1312,-7.1312,-7.1312,-7.1312,-7.1312,-7.1312,-7.1312,-4.8306,-4.8306,-4.8306,-4.8306,-4.8306,-4.8306,-4.8306,-4.8306,-4.8306,-4.8306,-4.8526,-5.0545,-5.55,-5.2821,-5.3812,-6.1704,-5.8914,-5.785,-6.0566,-5.6969,-5.6418,-6.0236,-5.3702,-5.1353,-5.4326,-5.1499,-4.9248,-4.7777,-4.7356,-4.6878,-4.6389,-4.601,-4.6022,-4.6488,-4.8752,-5.0974,-5.331,-5.8259,-6.0047,-5.9776,-6.2516,-6.2279,-6.0723,-6.4241,-6.6102,-6.6812,-6.6812,-6.6948,-6.7117,-6.7117,-6.5831,-6.4478,-6.5797,-6.1772,-5.6562,0.0,0.0,0.0,-5.1555,0.0,0.0,0.0,0.0,0.0,0.0,0.0,0.0,0.0,0.0,0.0,0.0,0.0,0.0,0.0,0.0,-4.5669,0.0,-4.6278,0.0,0.0,0.0,0.0,0.0,-6.0486,-6.1332,-6.5019,-6.4783,-6.5155,-6.6745,-6.891,-7.0466,-7.1278,-7.1312,-7.1312,-7.1312,-7.1312,-7.1312,-7.1312,-7.1312,-7.1312,-7.1312,-7.1312,-7.1312,-7.1312,-7.1312,-7.1312,-7.1312,-7.1312,-7.1312,-7.1312,-7.1312,-7.1312,-7.1312,-7.1312,-7.1312,-7.1312,-4.8306,-4.8306,-4.8306,-4.8306,-4.8306,-4.8306,-4.8306,-4.8306,-4.8306,-4.8306,-4.904,-5.2291,-5.9428,-5.8033,-5.9501,-6.6806,-6.4457,-6.2254,-6.1594,-5.7776,-5.7005,-6.0272,-5.6418,-5.4252,-5.4399,-5.4252,-5.227,-4.8287,-4.8267,-4.8209,-4.8108,-4.691,-4.7039,-4.8174,-4.7327,-5.085,-5.75,-5.7865,-6.1298,-6.6508,-6.6609,-6.6609,-6.6237,-6.3565,-6.4309,-6.6812,-6.6812,-6.7252,-6.7861,-6.7861,-6.8335,-6.8402,-6.5561,0.0,0.0,0.0,0.0,0.0,0.0,0.0,0.0,-5.4837,0.0,0.0,0.0,0.0,-4.4615,0.0,0.0,0.0,0.0,0.0,0.0,0.0,0.0,0.0,0.0,0.0,0.0,0.0,0.0,0.0,0.0,-5.7002,-5.9708,-6.1366,-6.1467,-6.3024,-6.6609,-6.6914,-6.8301,-7.121,-7.1312,-7.1312,-7.1312,-7.1312,-7.1312,-7.1312,-7.1312,-7.1312,-7.1312,-7.1312,-7.1312,-7.1312,-7.1312,-7.1312,-7.1312,-7.1312,-7.1312,-7.1312,-7.1312,-7.1312,-7.1312,-7.1312,-7.1312,-7.1312,-4.8306,-4.8306,-4.8306,-4.8306,-4.8306,-4.8306,-4.8306,-4.8306,-4.926,-5.1977,-5.2601,-5.5757,-6.3576,-6.13,-6.2328,-7.0183,-6.743,-6.6256,-6.8641,-6.5044,-6.4494,-6.8238,-6.1485,-5.7715,-5.7923,-5.4845,-5.1144,-4.6913,-4.6694,-4.6448,-4.6207,-4.5528,-4.5492,-4.6074,-4.8089,-5.1753,-5.654,-5.9109,-6.1603,-6.3937,-6.4444,-6.3429,-6.1975,-6.4918,-6.6643,-6.759,-6.8132,-6.847,-6.8707,-6.8707,-6.8876,-6.891,-6.7895,-6.6203,-6.4241,-6.2516,-6.0385,-5.9032,0.0,0.0,-5.9708,-6.1231,0.0,0.0,0.0,0.0,0.0,0.0,0.0,0.0,0.0,0.0,0.0,0.0,0.0,0.0,0.0,0.0,0.0,0.0,0.0,0.0,0.0,0.0,-5.4025,-5.8017,-5.8321,-5.9945,-6.37,-6.573,-6.8199,-7.121,-7.1312,-7.1312,-7.1312,-7.1312,-7.1312,-7.1312,-7.1312,-7.1312,-7.1312,-7.1312,-7.1312,-7.1312,-7.1312,-7.1312,-7.1312,-7.1312,-7.1312,-7.1312,-7.1312,-7.1312,-7.1312,-7.1312,-7.1312,-7.1312,-4.8379,-4.8306,-4.8306,-4.8306,-4.8306,-4.8306,-4.8306,-4.9554,-5.0986,-5.2491,-5.495,-5.8621,-6.4163,-6.3466,-6.5264,-7.1908,-7.0146,-6.9743,-7.2349,-6.8715,-6.8165,-7.1955,-6.5523,-6.1697,-6.1332,-5.7253,-5.2921,-4.8383,-4.6825,-4.591,-4.5589,-4.5115,-4.4934,-4.5063,-4.7475,-5.0744,-5.4735,-5.822,-6.1061,-6.3226,-6.37,-6.2753,0.0,0.0,-6.6948,-6.6948,-6.8538,-6.9282,-6.9485,-6.9485,-6.9654,-6.9891,-6.9891,-6.8571,-6.6914,-6.644,-6.4715,-6.3429,-6.5358,-6.4918,0.0,-6.5831,-6.2212,0.0,-5.6596,0.0,-5.0033,0.0,0.0,0.0,0.0,0.0,0.0,0.0,0.0,0.0,0.0,-4.4615,0.0,0.0,0.0,0.0,0.0,0.0,-5.0338,-5.4499,-5.4803,-5.7036,-6.211,-6.4208,-6.7117,-7.1176,-7.1312,-7.1312,-7.1312,-7.1312,-7.1312,-7.1312,-7.1312,-7.1312,-7.1312,-7.1312,-7.1312,-7.1312,-7.1312,-7.1312,-7.1312,-7.1312,-7.1312,-7.1312,-7.1312,-7.1312,-7.1312,-7.1312,-7.1312,-7.1312,-4.8526,-4.8343,-4.8306,-4.8306,-4.8306,-4.8306,-4.8306,-5.1646,-5.3151,-5.0271,-5.6051,-6.0823,-6.1777,-6.4824,-6.8348,-7.2165,-7.2496,-7.2496,-7.2496,-6.8935,-6.8182,-7.134,-6.8426,-6.6022,-6.4421,0.0,0.0,0.0,0.0,-4.6543,-4.6269,-4.5699,0.0,0.0,-4.5552,-4.8139,-5.2503,-5.5378,-5.9674,-6.4613,-6.4816,-6.4783,-6.4749,-6.5628,-6.5425,-6.5087,-6.8132,-6.9654,-7.0229,-7.0229,-7.0737,-7.1312,-7.1312,-7.1312,-7.1312,-7.1312,-7.0804,-7.0229,-7.0229,-6.7658,-6.5628,-6.8504,-6.4241,0.0,0.0,0.0,-5.7949,0.0,0.0,0.0,0.0,0.0,0.0,0.0,0.0,0.0,0.0,0.0,0.0,0.0,0.0,0.0,0.0,-4.7496,-4.8852,-5.1016,-5.1219,-5.4465,0.0,-6.2279,-6.5019,-7.0906,-7.1244,-7.1312,-7.1312,-7.1312,-7.1312,-7.1312,-7.1312,-7.1312,-7.1312,-7.1312,-7.1312,-7.1312,-7.1312,-7.1312,-7.1312,-7.1312,-7.1312,-7.1312,-7.1312,-7.1312,-7.1312,-7.1312,-7.1312,-7.1312,-4.9317,-4.8746,-4.8306,-4.8306,-4.8306,-4.8306,-4.8306,-4.9738,-5.163,-5.3797,-5.829,-6.2511,-6.5778,-6.9009,-7.1394,-7.2422,-7.2496,-7.2496,-7.2496,-7.1541,-7.1346,-7.2189,-7.0877,-6.8645,-6.5395,-6.1119,-5.6859,-5.2733,0.0,0.0,-4.5975,0.0,0.0,0.0,0.0,-4.7631,-5.2367,-5.3145,-5.778,-6.485,-6.7624,-6.7421,-6.573,0.0,-6.8368,-6.6643,-6.9654,-7.0872,-7.1041,-7.1041,-7.1142,-7.1312,-7.1312,-7.1312,-7.1312,-7.1312,-7.1176,-7.1041,-7.1041,-7.0331,-6.9789,-7.0534,-6.732,-6.4038,0.0,0.0,0.0,0.0,0.0,0.0,0.0,0.0,0.0,0.0,0.0,0.0,0.0,0.0,0.0,-4.4615,0.0,0.0,0.0,-4.797,-4.9424,-5.105,-5.1725,-5.4093,-5.8795,0.0,-6.3531,-6.7827,-7.0128,-7.1312,-7.1312,-7.1312,-7.1312,-7.1312,-7.1312,-7.1312,-7.1312,-7.1312,-7.1312,-7.1312,-7.1312,-7.1312,-7.1312,-7.1312,-7.1312,-7.1312,-7.1312,-7.1312,-7.1312,-7.1312,-7.1312,-7.1312,-5.0178,-4.9738,-4.9407,-4.9407,-4.9664,-5.0288,-5.1316,-5.3702,-5.6308,-5.8951,-6.4053,-6.776,-6.8641,-7.1615,-7.356,-7.356,-7.356,-7.356,-7.356,-7.356,-7.3406,-7.31,-7.2662,-7.1131,-6.8349,-6.3689,0.0,-5.4969,0.0,0.0,-4.589,0.0,0.0,0.0,0.0,-4.753,-5.1082,-5.4702,-5.893,-6.3497,-6.7218,-6.7692,0.0,-6.8538,-6.9113,-6.9011,-7.0703,-7.1312,-7.1312,-7.1312,-7.1312,-7.1312,-7.1312,-7.1312,-7.1312,-7.1312,-7.1312,-7.1312,-7.1312,-7.1312,-7.1312,-7.1312,-6.9722,-6.803,-6.7624,-6.5899,-6.4377,0.0,-6.3091,-6.1637,0.0,0.0,0.0,0.0,0.0,0.0,0.0,0.0,0.0,0.0,-4.5162,0.0,-4.6244,-4.7936,-4.9357,-5.0202,-5.1217,-5.4025,0.0,0.0,-6.1637,-6.6643,-6.847,-6.8707,-6.7421,-7.0026,-7.0669,-6.935,-7.0703,-7.1312,-7.1312,-7.1312,-7.1312,-7.1312,-7.1312,-7.1312,-7.1312,-7.1312,-7.1312,-7.1312,-7.1312,-7.1312,-7.1312,-7.1312,-7.1312,-7.1312,-5.0949,-5.0802,-5.0986,-5.1499,-5.1903,-5.3335,-5.6932,-6.0236,-6.2768,-6.3943,-7.0036,-7.323,-7.0403,-7.2973,-7.4918,-7.4918,-7.4918,-7.4918,-7.4918,-7.4888,-7.461,-7.397,-7.3812,-7.3143,-7.1893,-6.7271,-6.261,0.0,0.0,0.0,0.0,0.0,0.0,0.0,0.0,0.0,0.0,-5.8017,-6.1569,-6.2347,-6.5967,-6.7387,-6.7387,-6.7387,-6.9045,-7.1312,-7.1312,-7.1312,-7.1312,-7.1312,-7.1312,-7.1312,-7.1312,-7.1312,-7.1312,-7.1312,-7.1312,-7.1312,-7.1312,-7.1312,-7.1312,-7.1312,-7.1312,-7.1312,-7.1312,-7.1312,-7.1312,-7.1312,-6.8707,-6.6508,-6.6779,0.0,0.0,0.0,0.0,0.0,0.0,0.0,0.0,0.0,0.0,0.0,0.0,-4.7665,-4.8917,-4.8984,-5.0304,-5.3721,0.0,0.0,-5.9404,-6.5459,-6.6406,-6.5561,-6.299,-6.8504,-6.9992,-6.7421,-7.006,-7.1312,-7.1312,-7.1312,-7.1312,-7.1312,-7.1312,-7.1312,-7.1312,-7.1312,-7.1312,-7.1312,-7.1312,-7.1312,-7.1312,-7.1312,-7.1312,-7.1312,-5.0949,-5.0802,-5.1867,-5.517,-5.4216,-5.6271,-6.6072,-6.3172,-6.086,-6.3723,-6.8091,-7.0734,-7.0146,-7.2973,-7.4918,-7.4918,-7.4918,-7.4918,-7.4918,-7.4799,-7.4738,-7.4702,-7.3812,-7.3312,-7.3416,-6.8321,-6.3817,0.0,0.0,0.0,-4.7389,0.0,0.0,0.0,0.0,0.0,-5.3957,-5.9099,0.0,-6.6136,-6.9248,-7.0534,-7.0534,-7.0534,-7.0838,-7.1312,-7.1312,-7.1312,-7.1312,-7.1312,-7.1312,-7.1312,-7.1312,-7.1312,-7.1312,-7.1312,-7.1312,-7.1312,-7.1312,-7.1312,-7.1312,-7.1312,-7.1312,-7.1312,-7.1312,-7.1312,-7.1312,-7.1312,-7.0804,-6.962,-6.7252,0.0,0.0,0.0,0.0,0.0,0.0,0.0,0.0,0.0,0.0,-5.0541,0.0,0.0,0.0,-4.8951,-4.9796,0.0,0.0,0.0,-5.7002,0.0,-6.4241,-6.6576,0.0,0.0,-7.1041,-7.0534,-7.1075,-7.1312,-7.1312,-7.1312,-7.1312,-7.1312,-7.1312,-7.1312,-7.1312,-7.1312,-7.1312,-7.1312,-7.1312,-7.1312,-7.1312,-7.1312,-7.1312,-7.1312,-5.2123,-5.205,-5.2784,-5.5133,-5.6345,-5.9501,-6.7063,-6.7026,-6.7283,-7.0513,-7.2642,-7.3854,-7.3854,-7.5249,-7.6136,-7.6136,-7.6136,-7.6136,-7.6136,-7.6075,-7.6075,-7.6136,-7.5143,-7.4502,-7.4258,-7.0871,-6.6176,-6.0072,0.0,-5.3117,-4.7906,0.0,0.0,0.0,0.0,-5.2469,0.0,0.0,-6.4816,-6.7083,-7.0094,-7.1312,-7.1312,-7.1312,-7.1312,-7.1312,-7.1312,-7.1312,-7.1312,-7.1312,-7.1312,-7.1312,-7.1312,-7.1312,-7.1312,-7.1312,-7.1312,-7.1312,-7.1312,-7.1312,-7.1312,-7.1312,-7.1312,-7.1312,-7.1312,-7.1312,-7.1312,-7.1312,-7.1312,-7.0263,-6.6846,-6.3599,0.0,0.0,0.0,0.0,0.0,0.0,-5.2976,0.0,0.0,0.0,0.0,0.0,0.0,0.0,0.0,0.0,0.0,0.0,-5.5886,0.0,0.0,0.0,-6.2787,0.0,-6.9958,-6.732,-7.0026,-7.1312,-7.1312,-7.1312,-7.1312,-7.1312,-7.1312,-7.1312,-7.1312,-7.1312,-7.1312,-7.1312,-7.1312,-7.1312,-7.1312,-7.1312,-7.1312,-7.1312,-5.5611,-5.5185,-5.5207,-5.6712,-5.9024,-6.2254,-6.7063,-7.0477,-7.367,-7.687,-7.7273,-7.7273,-7.7273,-7.7273,-7.7273,-7.7273,-7.7273,-7.7273,-7.7273,-7.7118,-7.7019,-7.7087,-7.5963,-7.5047,-7.4456,-7.2809,-6.8359,0.0,0.0,0.0,0.0,0.0,0.0,0.0,0.0,0.0,0.0,0.0,-6.6508,-6.7963,-7.0364,-7.1312,-7.1312,-7.1312,-7.1312,-7.1312,-7.1312,-7.1312,-7.1312,-7.1312,-7.1312,-7.1312,-7.1312,-7.1312,-7.1312,-7.1312,-7.1312,-7.1312,-7.1312,-7.1312,-7.1312,-7.1312,-7.1312,-7.1312,-7.1312,-7.1312,-7.1312,-7.1312,-7.1312,-7.0398,-6.7421,-6.6474,0.0,0.0,0.0,0.0,0.0,0.0,0.0,0.0,0.0,0.0,-5.3179,0.0,0.0,0.0,0.0,0.0,-5.6393,0.0,0.0,0.0,0.0,-6.096,-5.9505,0.0,-6.8774,-6.5222,-6.935,-7.1312,-7.1312,-7.1312,-7.1312,-7.1312,-7.1312,-7.1312,-7.1312,-7.1312,-7.1312,-7.1312,-7.1312,-7.1312,-7.1312,-7.1312,-7.1312,-7.1312,-6.3441,-6.1777,-6.0933,-6.4714,-6.3209,-6.3833,-7.0881,-7.2275,-7.367,-7.687,-7.7273,-7.7273,-7.7273,-7.7273,-7.7273,-7.7273,-7.7273,-7.7273,-7.7273,-7.6501,-7.6099,-7.6303,-7.4456,-7.3482,-7.3602,-7.2295,-6.9621,0.0,0.0,-5.7173,0.0,0.0,0.0,0.0,0.0,0.0,-6.4783,-6.5425,-6.7692,-7.0906,-7.121,-7.1312,-7.1312,-7.1312,-7.1312,-7.1312,-7.1312,-7.1312,-7.1312,-7.1312,-7.1312,-7.1312,-7.1312,-7.1312,-7.1312,-7.1312,-7.1312,-7.1312,-7.1312,-7.1312,-7.1312,-7.1312,-7.1312,-7.1312,-7.1312,-7.1312,-7.1312,-7.1312,-7.1312,-7.121,-7.0838,-6.9079,-6.6474,0.0,0.0,0.0,0.0,0.0,-6.1332,-5.7983,0.0,0.0,0.0,-5.2131,0.0,0.0,-5.0507,0.0,0.0,0.0,0.0,-5.7205,-5.8626,-5.9911,-6.1061,-6.5831,-6.9011,-7.0601,-7.1075,-7.1312,-7.1312,-7.1312,-7.1312,-7.1312,-7.1312,-7.1312,-7.1312,-7.1312,-7.1312,-7.1312,-7.1312,-7.1312,-7.1312,-7.1312,-7.1312,-7.1312,-6.4604,-6.4237,-6.4016,-6.6145,-6.7026,-6.8568,-7.1982,-7.4147,-7.5873,-7.7127,-7.7273,-7.7273,-7.7273,-7.7273,-7.7273,-7.7273,-7.7273,-7.7273,-7.7273,-7.6534,-7.6135,-7.6203,-7.49,-7.3874,-7.3247,-7.27,-7.0241,0.0,0.0,0.0,0.0,0.0,0.0,0.0,0.0,-6.2888,-6.5831,-6.8098,-6.9925,-7.1312,-7.1312,-7.1312,-7.1312,-7.1312,-7.1312,-7.1312,-7.1312,-7.1312,-7.1312,-7.1312,-7.1312,-7.1312,-7.1312,-7.1312,-7.1312,-7.1312,-7.1312,-7.1312,-7.1312,-7.1312,-7.1312,-7.1312,-7.1312,-7.1312,-7.1312,-7.1312,-7.1312,-7.1312,-7.1312,-7.1312,-7.1312,-7.0567,-6.9011,-6.617,0.0,0.0,0.0,0.0,0.0,-5.9708,0.0,-6.1873,0.0,-5.4702,0.0,0.0,0.0,0.0,0.0,0.0,0.0,-6.0047,0.0,-6.2854,-6.5256,-6.7015,-6.8368,-6.9282,-7.0669,-7.1312,-7.1312,-7.1312,-7.1312,-7.1312,-7.1312,-7.1312,-7.1312,-7.1312,-7.1312,-7.1312,-7.1312,-7.1312,-7.1312,-7.1312,-7.1312,-7.1312,-6.8164,-6.8091,-6.7614,-6.8164,-7.0146,-7.1835,-7.2422,-7.5249,-7.7273,-7.7273,-7.7273,-7.7273,-7.7273,-7.7273,-7.7273,-7.7273,-7.7273,-7.7212,-7.6956,-7.627,-7.5722,-7.5406,-7.4565,0.0,-7.2666,-7.2575,-7.0797,-6.7354,-6.3599,0.0,0.0,0.0,0.0,0.0,-6.4512,-6.6305,-6.7523,-7.0195,-7.1312,-7.1312,-7.1312,-7.1312,-7.1312,-7.1312,-7.1312,-7.1312,-7.1312,-7.1312,-7.1312,-7.1312,-7.1312,-7.1312,-7.1312,-7.1312,-7.1312,-7.1312,-7.1312,-7.1312,-7.1312,-7.1312,-7.1312,-7.1312,-7.1312,-7.1312,-7.1312,-7.1312,-7.1312,-7.1312,-7.1312,-7.1312,-7.1312,-7.1312,-7.05,-6.7996,0.0,0.0,0.0,-6.414,0.0,-6.0655,-6.1941,-6.2956,-6.2448,-5.707,0.0,0.0,0.0,0.0,0.0,0.0,0.0,0.0,0.0,0.0,-6.6237,-6.6711,-6.759,-6.891,-7.0534,-7.1312,-7.1312,-7.1312,-7.1312,-7.1312,-7.1312,-7.1312,-7.1312,-7.1312,-7.1312,-7.1312,-7.1312,-7.1312,-7.1312,-7.1312,-7.1312,-7.1312,-7.6356,-7.4588,-7.2422,-7.2422,-7.2459,-7.2496,-7.2496,-7.5249,-7.7273,-7.7273,-7.7273,-7.7273,-7.7273,-7.7273,-7.7273,-7.7273,-7.7273,-7.6956,-7.627,-7.5441,-7.4569,0.0,0.0,-7.2081,-7.1644,-7.16,-7.1512,-7.1244,0.0,0.0,-6.3396,0.0,-6.0622,-6.5628,-6.5662,-6.776,-7.1244,-7.1312,-7.1312,-7.1312,-7.1312,-7.1312,-7.1312,-7.1312,-7.1312,-7.1312,-7.1312,-7.1312,-7.1312,-7.1312,-7.1312,-7.1312,-7.1312,-7.1312,-7.1312,-7.1312,-7.1312,-7.1312,-7.1312,-7.1312,-7.1312,-7.1312,-7.1312,-7.1312,-7.1312,-7.1312,-7.1312,-7.1312,-7.1312,-7.1312,-7.1312,-7.1312,-7.0331,-6.732,0.0,0.0,0.0,-6.458,0.0,-6.0723,-6.1467,-6.2415,-6.2381,-5.8964,0.0,0.0,0.0,0.0,0.0,0.0,0.0,-5.893,-5.7645,0.0,-6.2415,-6.3903,-6.688,-7.1278,-7.1312,-7.1312,-7.1312,-7.1312,-7.1312,-7.1312,-7.1312,-7.1312,-7.1312,-7.1312,-7.1312,-7.1312,-7.1312,-7.1312,-7.1312,-7.1312,-7.1312,-7.1312,-7.6613,-7.6466,-7.5769,-7.5769,-7.5769,-7.5769,-7.5769,-7.6613,-7.7273,-7.7273,-7.7273,-7.7273,-7.7273,-7.7273,-7.7273,0.0,-7.7273,-7.715,0.0,-7.5547,-7.4569,-7.4114,-7.2818,-7.1942,-7.16,-7.16,-7.1501,-7.1312,0.0,0.0,0.0,-6.6406,-6.7929,-6.9519,-6.9519,-7.0195,-7.1312,-7.1312,-7.1312,-7.1312,-7.1312,-7.1312,-7.1312,-7.1312,-7.1312,-7.1312,-7.1312,-7.1312,-7.1312,-7.1312,-7.1312,-7.1312,-7.1312,-7.1312,-7.1312,-7.1312,-7.1312,-7.1312,-7.1312,-7.1312,-7.1312,-7.1312,-7.1312,-7.1312,-7.1312,-7.1312,-7.1312,-7.1312,-7.1312,-7.1312,-7.1312,-7.1312,-7.05,-6.7963,-6.9045,0.0,-6.3835,0.0,-6.6711,-6.3531,-6.3599,-6.4478,-6.6,-6.2787,0.0,0.0,0.0,0.0,0.0,0.0,0.0,0.0,-6.4343,0.0,-6.8436,-6.7387,-6.8368,-7.1312,-7.1312,-7.1312,-7.1312,-7.1312,-7.1312,-7.1312,-7.1312,-7.1312,-7.1312,-7.1312,-7.1312,-7.1312,-7.1312,-7.1312,-7.1312,-7.1312,-7.1312,-7.1312,-7.6907,-7.7273,-7.7273,-7.7273,-7.7273,-7.7273,-7.7273,-7.7273,-7.7273,-7.7273,-7.7273,-7.7273,-7.7273,-7.7273,-7.7273,-7.7273,-7.7243,-7.7056,-7.6668,-7.5653,-7.4716,-7.3878,-7.286,-7.2081,-7.1501,-7.1501,0.0,-7.1312,-6.8944,-6.7793,-6.7861,-7.0195,-7.1312,-7.1312,-7.1312,-7.1312,-7.1312,-7.1312,-7.1312,-7.1312,-7.1312,-7.1312,-7.1312,-7.1312,-7.1312,-7.1312,-7.1312,-7.1312,-7.1312,-7.1312,-7.1312,-7.1312,-7.1312,-7.1312,-7.1312,-7.1312,-7.1312,-7.1312,-7.1312,-7.1312,-7.1312,-7.1312,-7.1312,-7.1312,-7.1312,-7.1312,-7.1312,-7.1312,-7.1312,-7.1312,-7.1312,-7.1312,-7.0838,-6.9417,-7.0364,-7.0026,-6.6339,0.0,-6.7963,0.0,0.0,-6.5967,0.0,-6.5392,-6.3971,0.0,0.0,0.0,0.0,0.0,-6.3497,-6.5899,-6.644,-6.776,-7.0026,-6.8605,-6.9045,-7.1312,-7.1312,-7.1312,-7.1312,-7.1312,-7.1312,-7.1312,-7.1312,-7.1312,-7.1312,-7.1312,-7.1312,-7.1312,-7.1312,-7.1312,-7.1312,-7.1312,-7.1312,-7.1312,-7.7273,-7.7273,-7.7273,-7.7273,-7.7273,-7.7273,-7.7273,-7.7273,-7.7273,-7.7273,-7.7273,-7.7273,-7.7273,-7.7273,-7.7273,-7.7273,0.0,0.0,-7.5998,-7.5759,-7.4826,-7.3031,-7.2825,-7.2347,-7.1312,-7.1312,-7.1312,-7.1312,-7.1312,-7.1312,-7.1312,-7.1312,-7.1312,-7.1312,-7.1312,-7.1312,-7.1312,-7.1312,-7.1312,-7.1312,-7.1312,-7.1312,-7.1312,-7.1312,-7.1312,-7.1312,-7.1312,-7.1312,-7.1312,-7.1312,-7.1312,-7.1312,-7.1312,-7.1312,-7.1312,-7.1312,-7.1312,-7.1312,-7.1312,-7.1312,-7.1312,-7.1312,-7.1312,-7.1312,-7.1312,-7.1312,-7.1312,-7.1312,-7.1312,-7.1312,-7.1312,-7.1312,-7.1312,-7.1312,-7.1312,-7.05,-6.8233,-6.9722,-6.9282,0.0,0.0,-6.6948,-6.7117,-6.7117,-6.732,0.0,0.0,0.0,0.0,0.0,-6.3632,-6.5019,-6.5087,-6.6068,-6.8132,-6.8132,-6.9214,-7.1312,-7.1312,-7.1312,-7.1312,-7.1312,-7.1312,-7.1312,-7.1312,-7.1312,-7.1312,-7.1312,-7.1312,-7.1312,-7.1312,-7.1312,-7.1312,-7.1312,-7.1312,-7.1312,-7.7273,-7.7273,-7.7273,-7.7273,-7.7273,-7.7273,-7.7273,-7.7273,-7.7273,-7.7273,-7.7273,-7.7273,-7.7273,-7.7273,-7.7273,-7.7273,-7.7279,-7.7056,-7.6603,-7.5334,-7.4343,-7.3602,-7.2356,-7.1546,-7.1312,-7.1312,-7.1312,-7.1312,-7.1312,-7.1312,-7.1312,-7.1312,-7.1312,-7.1312,-7.1312,-7.1312,-7.1312,-7.1312,-7.1312,-7.1312,-7.1312,-7.1312,-7.1312,-7.1312,-7.1312,-7.1312,-7.1312,-7.1312,-7.1312,-7.1312,-7.1312,-7.1312,-7.1312,-7.1312,-7.1312,-7.1312,-7.1312,-7.1312,-7.1312,-7.1312,-7.1312,-7.1312,-7.1312,-7.1312,-7.1312,-7.1312,-7.1312,-7.1312,-7.1312,-7.1312,-7.1312,-7.1312,-7.1312,-7.1312,-7.1312,-7.05,-6.8233,-6.8368,-6.8267,0.0,-6.732,-6.8335,-7.0094,-7.0229,-6.935,0.0,0.0,-6.8199,-6.4749,-6.7523,-6.935,-6.9722,-6.9722,-6.9992,-7.05,-7.05,-7.077,-7.1312,-7.1312,-7.1312,-7.1312,-7.1312,-7.1312,-7.1312,-7.1312,-7.1312,-7.1312,-7.1312,-7.1312,-7.1312,-7.1312,-7.1312,-7.1312,-7.1312,-7.1312,-7.1312,-7.7273,-7.7273,-7.7273,-7.7273,-7.7273,-7.7273,-7.7273,-7.7273,-7.7273,-7.7273,-7.7273,-7.7273,-7.7273,-7.7273,-7.7273,-7.7273,-7.7248,-7.6961,-7.627,-7.5299,-7.427,-7.3241,-7.2356,-7.1688,-7.1312,-7.1312,-7.1312,-7.1312,-7.1312,-7.1312,-7.1312,-7.1312,-7.1312,-7.1312,-7.1312,-7.1312,-7.1312,-7.1312,-7.1312,-7.1312,-7.1312,-7.1312,-7.1312,-7.1312,-7.1312,-7.1312,-7.1312,-7.1312,-7.1312,-7.1312,-7.1312,-7.1312,-7.1312,-7.1312,-7.1312,-7.1312,-7.1312,-7.1312,-7.1312,-7.1312,-7.1312,-7.1312,-7.1312,-7.1312,-7.1312,-7.1312,-7.1312,-7.1312,-7.1312,-7.1312,-7.1312,-7.1312,-7.1312,-7.1312,-7.0432,-6.9316,-6.8064,-6.7895,-6.7895,-6.7895,-6.8808,-6.9958,-7.121,-7.1312,-7.0635,-6.9011,-6.9417,0.0,-6.7184,-6.8774,-6.9755,-6.9755,-7.077,-7.1312,-7.1312,-7.1312,-7.1312,-7.1312,-7.1312,-7.1312,-7.1312,-7.1312,-7.1312,-7.1312,-7.1312,-7.1312,-7.1312,-7.1312,-7.1312,-7.1312,-7.1312,-7.1312,-7.1312,-7.1312,-7.1312,-7.1312,-7.7273,-7.7273,-7.7273,-7.7273,-7.7273,-7.7273,-7.7273,-7.7273,-7.7273,-7.7273,-7.7273,-7.7273,-7.7273,-7.7273,-7.7243,-7.715,-7.7024,-7.657,-7.5722,-7.5192,-7.4267,-7.2658,-7.2406,-7.2004,-7.1312,-7.1312,-7.1312,-7.1312,-7.1312,-7.1312,-7.1312,-7.1312,-7.1312,-7.1312,-7.1312,-7.1312,-7.1312,-7.1312,-7.1312,-7.1312,-7.1312,-7.1312,-7.1312,-7.1312,-7.1312,-7.1312,-7.1312,-7.1312,-7.1312,-7.1312,-7.1312,-7.1312,-7.1312,-7.1312,-7.1312,-7.1312,-7.1312,-7.1312,-7.1312,-7.1312,-7.1312,-7.1312,-7.1312,-7.1312,-7.1312,-7.1312,-7.1312,-7.1312,-7.1312,-7.1312,-7.1312,-7.1312,-7.121,-7.0838,-6.918,-6.7793,-6.7455,0.0,-6.7895,-6.7895,-6.9925,-7.1312,-7.1312,-7.1312,-7.1312,-7.1312,-6.9519,-6.9113,-7.0703,-6.9282,-6.8267,-6.7895,-7.0128,-7.1312,-7.1312,-7.1312,-7.1312,-7.1312,-7.1312,-7.1312,-7.1312,-7.1312,-7.1312,-7.1312,-7.1312,-7.1312,-7.1312,-7.1312,-7.1312,-7.1312,-7.1312,-7.1312,-7.1312,-7.1312,-7.1312,-7.1312,-7.7273,-7.7273,-7.7273,-7.7273,-7.7273,-7.7273,-7.7273,-7.7273,-7.7273,-7.7273,-7.7273,-7.7273,-7.7273,-7.7273,-7.7056,-7.6403,-7.6336,-7.6203,-7.5895,-7.4345,-7.3247,-7.2866,-7.196,-7.1412,-7.1312,-7.1312,-7.1312,-7.1312,-7.1312,-7.1312,-7.1312,-7.1312,-7.1312,-7.1312,-7.1312,-7.1312,-7.1312,-7.1312,-7.1312,-7.1312,-7.1312,-7.1312,-7.1312,-7.1312,-7.1312,-7.1312,-7.1312,-7.1312,-7.1312,-7.1312,-7.1312,-7.1312,-7.1312,-7.1312,-7.1312,-7.1312,-7.1312,-7.1312,-7.1312,-7.1312,-7.1312,-7.1312,-7.1312,-7.1312,-7.1312,-7.1312,-7.1312,-7.1312,-7.1312,-7.1312,-7.1312,-7.1312,-7.0669,-6.8741,-6.8132,-6.7252,-6.5392,0.0,-6.7895,-6.7895,-6.9925,-7.1312,-7.1312,-7.1312,-7.1312,-7.1312,-7.0973,-7.0094,-6.8504,-6.9925,-6.9891,-6.7963,-7.0128,-7.1312,-7.1312,-7.1312,-7.1312,-7.1312,-7.1312,-7.1312,-7.1312,-7.1312,-7.1312,-7.1312,-7.1312,-7.1312,-7.1312,-7.1312,-7.1312,-7.1312,-7.1312,-7.1312,-7.1312,-7.1312,-7.1312,-7.1312,-7.7273,-7.7273,-7.7273,-7.7273,-7.7273,-7.7273,-7.7273,-7.7273,-7.7273,-7.7273,-7.7273,-7.7273,-7.7273,-7.6961,-7.6603,-7.6236,-7.5406,-7.4864,-7.4755,-7.3725,-7.2832,-7.2228,-7.1634,-7.1312,-7.1312,-7.1312,-7.1312,-7.1312,-7.1312,-7.1312,-7.1312,-7.1312,-7.1312,-7.1312,-7.1312,-7.1312,-7.1312,-7.1312,-7.1312,-7.1312,-7.1312,-7.1312,-7.1312,-7.1312,-7.1312,-7.1312,-7.1312,-7.1312,-7.1312,-7.1312,-7.1312,-7.1312,-7.1312,-7.1312,-7.1312,-7.1312,-7.1312,-7.1312,-7.1312,-7.1312,-7.1312,-7.1312,-7.1312,-7.1312,-7.1312,-7.1312,-7.1312,-7.1312,-7.1312,-7.1312,-7.1312,-7.1312,-7.0567,-6.8267,-6.7895,-6.7117,-6.4918,-6.6508,-6.7895,-6.7895,-6.9925,-7.1312,-7.1312,-7.1312,-7.1312,-7.1312,-7.1312,-7.0838,-6.9789,-7.0737,-7.0838,-6.9755,-7.077,-7.1312,-7.1312,-7.1312,-7.1312,-7.1312,-7.1312,-7.1312,-7.1312,-7.1312,-7.1312,-7.1312,-7.1312,-7.1312,-7.1312,-7.1312,-7.1312,-7.1312,-7.1312,-7.1312,-7.1312,-7.1312,-7.1312,-7.1312,-7.7273,-7.7273,-7.7273,-7.7273,-7.7273,-7.7273,-7.7273,-7.7273,-7.7273,-7.7273,-7.7273,-7.7212,-7.7087,-7.657,-7.6068,-7.5688,-7.4529,-7.3721,-7.3557,-7.3078,-7.249,-7.1732,-7.1412,-7.1312,-7.1312,-7.1312,-7.1312,-7.1312,-7.1312,-7.1312,-7.1312,-7.1312,-7.1312,-7.1312,-7.1312,-7.1312,-7.1312,-7.1312,-7.1312,-7.1312,-7.1312,-7.1312,-7.1312,-7.1312,-7.1312,-7.1312,-7.1312,-7.1312,-7.1312,-7.1312,-7.1312,-7.1312,-7.1312,-7.1312,-7.1312,-7.1312,-7.1312,-7.1312,-7.1312,-7.1312,-7.1312,-7.1312,-7.1312,-7.1312,-7.1312,-7.1312,-7.1312,-7.1312,-7.1312,-7.1312,-7.1312,-7.1312,-7.0567,-6.8267,0.0,-6.732,-6.5595,-6.6812,-6.8098,-6.8639,-7.0229,-7.1312,-7.1312,-7.1312,-7.1312,-7.1312,-7.1312,-7.1312,-7.1312,-7.1312,-7.1312,-7.1312,-7.1312,-7.1312,-7.1312,-7.1312,-7.1312,-7.1312,-7.1312,-7.1312,-7.1312,-7.1312,-7.1312,-7.1312,-7.1312,-7.1312,-7.1312,-7.1312,-7.1312,-7.1312,-7.1312,-7.1312,-7.1312,-7.1312,-7.1312,-7.1312,-7.7273,-7.7273,-7.7273,-7.7273,-7.7273,-7.7273,-7.7273,-7.7273,-7.7273,-7.7273,-7.7273,-7.7056,-7.6336,-7.6236,-7.5618,-7.4111,-7.3878,-7.3517,-7.2838,-7.2373,-7.2072,-7.1985,-7.1535,-7.1312,-7.1312,-7.1312,-7.1312,-7.1312,-7.1312,-7.1312,-7.1312,-7.1312,-7.1312,-7.1312,-7.1312,-7.1312,-7.1312,-7.1312,-7.1312,-7.1312,-7.1312,-7.1312,-7.1312,-7.1312,-7.1312,-7.1312,-7.1312,-7.1312,-7.1312,-7.1312,-7.1312,-7.1312,-7.1312,-7.1312,-7.1312,-7.1312,-7.1312,-7.1312,-7.1312,-7.1312,-7.1312,-7.1312,-7.1312,-7.1312,-7.1312,-7.1312,-7.1312,-7.1312,-7.1312,-7.1312,-7.1312,-7.1312,-7.0567,-6.8267,0.0,0.0,-6.7692,-6.7793,-6.8673,-7.0804,-7.121,-7.1312,-7.1312,-7.1312,-7.1312,-7.1312,-7.1312,-7.1312,-7.1312,-7.1312,-7.1312,-7.1312,-7.1312,-7.1312,-7.1312,-7.1312,-7.1312,-7.1312,-7.1312,-7.1312,-7.1312,-7.1312,-7.1312,-7.1312,-7.1312,-7.1312,-7.1312,-7.1312,-7.1312,-7.1312,-7.1312,-7.1312,-7.1312,-7.1312,-7.1312,-7.1312,-7.7273,-7.7273,-7.7273,-7.7273,-7.7273,-7.7273,-7.7273,-7.7273,-7.7273,-7.7273,-7.6893,-7.6501,-7.6236,-7.5299,-7.4492,-7.3838,-7.3392,-7.3012,-7.2713,-7.2373,-7.1985,-7.158,-7.1401,-7.1312,-7.1312,-7.1312,-7.1312,-7.1312,-7.1312,-7.1312,-7.1312,-7.1312,-7.1312,-7.1312,-7.1312,-7.1312,-7.1312,-7.1312,-7.1312,-7.1312,-7.1312,-7.1312,-7.1312,-7.1312,-7.1312,-7.1312,-7.1312,-7.1312,-7.1312,-7.1312,-7.1312,-7.1312,-7.1312,-7.1312,-7.1312,-7.1312,-7.1312,-7.1312,-7.1312,-7.1312,-7.1312,-7.1312,-7.1312,-7.1312,-7.1312,-7.1312,-7.1312,-7.1312,-7.1312,-7.1312,-7.1312,-7.1312,-7.0567,-6.8267,0.0,-6.9519,-6.8098,-6.9113,-7.0331,-7.121,-7.1312,-7.1312,-7.1312,-7.1312,-7.1312,-7.1312,-7.1312,-7.1312,-7.1312,-7.1312,-7.1312,-7.1312,-7.1312,-7.1312,-7.1312,-7.1312,-7.1312,-7.1312,-7.1312,-7.1312,-7.1312,-7.1312,-7.1312,-7.1312,-7.1312,-7.1312,-7.1312,-7.1312,-7.1312,-7.1312,-7.1312,-7.1312,-7.1312,-7.1312,-7.1312,-7.1312,-7.7273,-7.7273,-7.7273,-7.7273,-7.7273,-7.7273,-7.7273,-7.7273,-7.7212,-7.6956,-7.6501,-7.6034,-7.5477,-7.4492,-7.3681,-7.3477,-7.3012,-7.2713,-7.2713,-7.2373,-7.1985,-7.1412,-7.1356,-7.1312,-7.1312,-7.1312,-7.1312,-7.1312,-7.1312,-7.1312,-7.1312,-7.1312,-7.1312,-7.1312,-7.1312,-7.1312,-7.1312,-7.1312,-7.1312,-7.1312,-7.1312,-7.1312,-7.1312,-7.1312,-7.1312,-7.1312,-7.1312,-7.1312,-7.1312,-7.1312,-7.1312,-7.1312,-7.1312,-7.1312,-7.1312,-7.1312,-7.1312,-7.1312,-7.1312,-7.1312,-7.1312,-7.1312,-7.1312,-7.1312,-7.1312,-7.1312,-7.1312,-7.1312,-7.1312,-7.1312,-7.1312,-7.1312,-7.0804,-6.9214,-7.0297,-7.077,-6.918,-7.0331,-7.1312,-7.1312,-7.1312,-7.1312,-7.1312,-7.1312,-7.1312,-7.1312,-7.1312,-7.1312,-7.1312,-7.1312,-7.1312,-7.1312,-7.1312,-7.1312,-7.1312,-7.1312,-7.1312,-7.1312,-7.1312,-7.1312,-7.1312,-7.1312,-7.1312,-7.1312,-7.1312,-7.1312,-7.1312,-7.1312,-7.1312,-7.1312,-7.1312,-7.1312,-7.1312,-7.1312,-7.1312,-7.1312,-7.7273,-7.7273,-7.7273,-7.7273,-7.7273,-7.7273,-7.7273,-7.731,-7.7056,-7.6303,-7.6203,-7.5547,-7.3994,-7.3799,-7.3477,-7.2755,-7.2713,-7.2713,-7.2671,-7.2245,-7.1898,-7.16,-7.1412,-7.1312,-7.1312,-7.1312,-7.1312,-7.1312,-7.1312,-7.1312,-7.1312,-7.1312,-7.1312,-7.1312,-7.1312,-7.1312,-7.1312,-7.1312,-7.1312,-7.1312,-7.1312,-7.1312,-7.1312,-7.1312,-7.1312,-7.1312,-7.1312,-7.1312,-7.1312,-7.1312,-7.1312,-7.1312,-7.1312,-7.1312,-7.1312,-7.1312,-7.1312,-7.1312,-7.1312,-7.1312,-7.1312,-7.1312,-7.1312,-7.1312,-7.1312,-7.1312,-7.1312,-7.1312,-7.1312,-7.1312,-7.1312,-7.1312,-7.1312,-7.1312,-7.1312,-7.1312,-7.1312,-7.1312,-7.1312,-7.1312,-7.1312,-7.1312,-7.1312,-7.1312,-7.1312,-7.1312,-7.1312,-7.1312,-7.1312,-7.1312,-7.1312,-7.1312,-7.1312,-7.1312,-7.1312,-7.1312,-7.1312,-7.1312,-7.1312,-7.1312,-7.1312,-7.1312,-7.1312,-7.1312,-7.1312,-7.1312,-7.1312,-7.1312,-7.1312,-7.1312,-7.1312,-7.1312,-7.1312,-7.1312,-7.1312,-7.1312,-7.7273,-7.7273,-7.7273,-7.7273,-7.7273,-7.7273,-7.7273,-7.6861,-7.6436,-7.6236,-7.5227,-7.434,-7.3838,-7.3351,-7.2929,-7.2713,-7.2713,-7.2544,-7.2245,-7.2072,-7.181,-7.1412,-7.1356,-7.1312,-7.1312,-7.1312,-7.1312,-7.1312,-7.1312,-7.1312,-7.1312,-7.1312,-7.1312,-7.1312,-7.1312,-7.1312,-7.1312,-7.1312,-7.1312,-7.1312,-7.1312,-7.1312,-7.1312,-7.1312,-7.1312,-7.1312,-7.1312,-7.1312,-7.1312,-7.1312,-7.1312,-7.1312,-7.1312,-7.1312,-7.1312,-7.1312,-7.1312,-7.1312,-7.1312,-7.1312,-7.1312,-7.1312,-7.1312,-7.1312,-7.1312,-7.1312,-7.1312,-7.1312,-7.1312,-7.1312,-7.1312,-7.1312,-7.1312,-7.1312,-7.1312,-7.1312,-7.1312,-7.1312,-7.1312,-7.1312,-7.1312,-7.1312,-7.1312,-7.1312,-7.1312,-7.1312,-7.1312,-7.1312,-7.1312,-7.1312,-7.1312,-7.1312,-7.1312,-7.1312,-7.1312,-7.1312,-7.1312,-7.1312,-7.1312,-7.1312,-7.1312,-7.1312,-7.1312,-7.1312,-7.1312,-7.1312,-7.1312,-7.1312,-7.1312,-7.1312,-7.1312,-7.1312,-7.1312,-7.1312,-7.1312,-7.1312,-7.7273,-7.7273,-7.7273,-7.7273,-7.7273,-7.7273,-7.7273,-7.6668,-7.6102,-7.5757,-7.4604,-7.3681,-7.3392,-7.297,-7.2713,-7.2713,-7.2713,-7.2501,-7.2029,-7.1985,-7.1766,-7.1312,-7.1312,-7.1312,-7.1312,-7.1312,-7.1312,-7.1312,-7.1312,-7.1312,-7.1312,-7.1312,-7.1312,-7.1312,-7.1312,-7.1312,-7.1312,-7.1312,-7.1312,-7.1312,-7.1312,-7.1312,-7.1312,-7.1312,-7.1312,-7.1312,-7.1312,-7.1312,-7.1312,-7.1312,-7.1312,-7.1312,-7.1312,-7.1312,-7.1312,-7.1312,-7.1312,-7.1312,-7.1312,-7.1312,-7.1312,-7.1312,-7.1312,-7.1312,-7.1312,-7.1312,-7.1312,-7.1312,-7.1312,-7.1312,-7.1312,-7.1312,-7.1312,-7.1312,-7.1312,-7.1312,-7.1312,-7.1312,-7.1312,-7.1312,-7.1312,-7.1312,-7.1312,-7.1312,-7.1312,-7.1312,-7.1312,-7.1312,-7.1312,-7.1312,-7.1312,-7.1312,-7.1312,-7.1312,-7.1312,-7.1312,-7.1312,-7.1312,-7.1312,-7.1312,-7.1312,-7.1312,-7.1312,-7.1312,-7.1312,-7.1312,-7.1312,-7.1312,-7.1312,-7.1312,-7.1312,-7.1312,-7.1312,-7.1312,-7.1312,-7.1312,-7.7273,-7.7243,-7.7212,-7.7212,-7.715,-7.7082,-7.7082,-7.6469,-7.5722,-7.501,-7.4187,-7.3472,-7.2797,-7.2713,-7.2713,-7.2713,-7.2713,-7.2501,-7.2029,-7.1985,-7.1766,-7.1312,-7.1312,-7.1312,-7.1312,-7.1312,-7.1312,-7.1312,-7.1312,-7.1312,-7.1312,-7.1312,-7.1312,-7.1312,-7.1312,-7.1312,-7.1312,-7.1312,-7.1312,-7.1312,-7.1312,-7.1312,-7.1312,-7.1312,-7.1312,-7.1312,-7.1312,-7.1312,-7.1312,-7.1312,-7.1312,-7.1312,-7.1312,-7.1312,-7.1312,-7.1312,-7.1312,-7.1312,-7.1312,-7.1312,-7.1312,-7.1312,-7.1312,-7.1312,-7.1312,-7.1312,-7.1312,-7.1312,-7.1312,-7.1312,-7.1312,-7.1312,-7.1312,-7.1312,-7.1312,-7.1312,-7.1312,-7.1312,-7.1312,-7.1312,-7.1312,-7.1312,-7.1312,-7.1312,-7.1312,-7.1312,-7.1312,-7.1312,-7.1312,-7.1312,-7.1312,-7.1312,-7.1312,-7.1312,-7.1312,-7.1312,-7.1312,-7.1312,-7.1312,-7.1312,-7.1312,-7.1312,-7.1312,-7.1312,-7.1312,-7.1312,-7.1312,-7.1312,-7.1312,-7.1312,-7.1312,-7.1312,-7.1312,-7.1312,-7.1312,-7.1312,-7.7273,-7.6829,-7.6436,-7.6436,-7.5929,-7.5512,-7.5512,-7.4828,-7.4264,-7.4072,-7.3432,-7.2887,-7.2713,-7.2713,-7.2713,-7.2713,-7.2713,-7.2501,-7.2029,-7.1985,-7.1766,-7.1312,-7.1312,-7.1312,-7.1312,-7.1312,-7.1312,-7.1312,-7.1312,-7.1312,-7.1312,-7.1312,-7.1312,-7.1312,-7.1312,-7.1312,-7.1312,-7.1312,-7.1312,-7.1312,-7.1312,-7.1312,-7.1312,-7.1312,-7.1312,-7.1312,-7.1312,-7.1312,-7.1312,-7.1312,-7.1312,-7.1312,-7.1312,-7.1312,-7.1312,-7.1312,-7.1312,-7.1312,-7.1312,-7.1312,-7.1312,-7.1312,-7.1312,-7.1312,-7.1312,-7.1312,-7.1312,-7.1312,-7.1312,-7.1312,-7.1312,-7.1312,-7.1312,-7.1312,-7.1312,-7.1312,-7.1312,-7.1312,-7.1312,-7.1312,-7.1312,-7.1312,-7.1312,-7.1312,-7.1312,-7.1312,-7.1312,-7.1312,-7.1312,-7.1312,-7.1312,-7.1312,-7.1312,-7.1312,-7.1312,-7.1312,-7.1312,-7.1312,-7.1312,-7.1312,-7.1312,-7.1312,-7.1312,-7.1312,-7.1312,-7.1312,-7.1312,-7.1312,-7.1312,-7.1312,-7.1312,-7.1312,-7.1312,-7.1312,-7.1312,-7.1312,-7.6829,-7.6436,-7.6102,-7.5688,-7.5263,-7.501,-7.501,-7.434,-7.3799,-7.3799,-7.3183,-7.2713,-7.2713,-7.2713,-7.2713,-7.2713,-7.2586,-7.2373,-7.2029,-7.1898,-7.1678,-7.1312,-7.1312,-7.1312,-7.1312,-7.1312,-7.1312,-7.1312,-7.1312,-7.1312,-7.1312,-7.1312,-7.1312,-7.1312,-7.1312,-7.1312,-7.1312,-7.1312,-7.1312,-7.1312,-7.1312,-7.1312,-7.1312,-7.1312,-7.1312,-7.1312,-7.1312,-7.1312,-7.1312,-7.1312,-7.1312,-7.1312,-7.1312,-7.1312,-7.1312,-7.1312,-7.1312,-7.1312,-7.1312,-7.1312,-7.1312,-7.1312,-7.1312,-7.1312,-7.1312,-7.1312,-7.1312,-7.1312,-7.1312,-7.1312,-7.1312,-7.1312,-7.1312,-7.1312,-7.1312,-7.1312,-7.1312,-7.1312,-7.1312,-7.1312,-7.1312,-7.1312,-7.1312,-7.1312,-7.1312,-7.1312,-7.1312,-7.1312,-7.1312,-7.1312,-7.1312,-7.1312,-7.1312,-7.1312,-7.1312,-7.1312,-7.1312,-7.1312,-7.1312,-7.1312,-7.1312,-7.1312,-7.1312,-7.1312,-7.1312,-7.1312,-7.1312,-7.1312,-7.1312,-7.1312,-7.1312,-7.1312,-7.1312,-7.1312,-7.1312,-7.1267,-7.6099,-7.5861,-7.5583,-7.4937,-7.4679,-7.4604,-7.4604,-7.4033,-7.3637,-7.3637,-7.306,-7.2713,-7.2713,-7.2671,-7.2628,-7.2671,-7.2416,-7.2202,-7.1985,-7.1732,-7.1546,-7.1312,-7.1312,-7.1312,-7.1312,-7.1312,-7.1312,-7.1312,-7.1312,-7.1312,-7.1312,-7.1312,-7.1244,-7.1142,-7.1244,-7.1244,-7.1142,-7.1278,-7.1312,-7.1312,-7.1312,-7.1312,-7.1312,-7.1312,-7.1312,-7.1312,-7.1312,-7.1312,-7.1312,-7.1312,-7.1312,-7.1312,-7.1312,-7.1312,-7.1312,-7.1312,-7.1312,-7.1312,-7.1312,-7.1312,-7.1312,-7.1312,-7.1312,-7.1312,-7.1312,-7.1312,-7.1312,-7.1312,-7.1312,-7.1312,-7.1312,-7.1312,-7.1312,-7.1312,-7.1312,-7.1312,-7.1312,-7.1312,-7.1312,-7.1312,-7.1312,-7.1312,-7.1312,-7.1312,-7.1312,-7.1312,-7.1312,-7.1312,-7.1312,-7.1312,-7.1312,-7.1312,-7.1312,-7.1312,-7.1312,-7.1312,-7.1312,-7.1312,-7.1312,-7.1312,-7.1312,-7.1312,-7.1312,-7.1312,-7.1312,-7.1312,-7.1312,-7.1312,-7.1312,-7.1312,-7.1312,-7.1312,-7.1312,-7.1312,-7.1267,-7.1222,-7.5192,-7.4604,-7.4111,-7.3994,-7.3432,-7.3012,-7.3012,-7.2929,-7.2846,-7.2846,-7.2755,-7.2713,-7.2713,-7.2501,-7.2459,-7.2671,-7.2288,-7.2029,-7.1985,-7.1732,-7.1546,-7.1312,-7.1312,-7.1312,-7.1312,-7.1312,-7.1312,-7.1312,-7.1312,-7.1312,-7.1312,-7.1312,-7.0973,-7.0364,-7.1041,-7.0939,-7.0398,-7.1041,-7.1312,-7.1312,-7.1312,-7.1312,-7.1312,-7.1312,-7.1312,-7.1312,-7.1312,-7.1312,-7.1312,-7.1312,-7.1312,-7.1312,-7.1312,-7.1312,-7.1312,-7.1312,-7.1312,-7.1312,-7.1312,-7.1312,-7.1312,-7.1312,-7.1312,-7.1312,-7.1312,-7.1312,-7.1312,-7.1312,-7.1312,-7.1312,-7.1312,-7.1312,-7.1312,-7.1312,-7.1312,-7.1312,-7.1312,-7.1312,-7.1312,-7.1312,-7.1312,-7.1312,-7.1312,-7.1312,-7.1312,-7.1312,-7.1312,-7.1312,-7.1312,-7.1312,-7.1312,-7.1312,-7.1312,-7.1312,-7.1312,-7.1312,-7.1312,-7.1312,-7.1312,-7.1312,-7.1312,-7.1312,-7.1312,-7.1312,-7.1312,-7.1312,-7.1312,-7.1312,-7.1312,-7.1312,-7.1312,-7.1312,-7.1312,-7.1312,-7.1176,-7.0961,-7.4416,-7.4033,-7.3677,-7.3229,-7.2929,-7.2713,-7.2713,-7.2713,-7.2713,-7.2713,-7.2713,-7.2713,-7.2713,-7.2459,-7.2373,-7.2459,-7.2072,-7.181,-7.181,-7.1546,-7.1367,-7.1312,-7.1312,-7.1312,-7.1312,-7.1312,-7.1312,-7.1312,-7.1312,-7.1312,-7.1312,-7.1312,-7.0906,-7.0195,-7.0534,-7.05,-7.0195,-7.0534,-7.0939,-7.1312,-7.1312,-7.1312,-7.1312,-7.1312,-7.1312,-7.1312,-7.1312,-7.1312,-7.1312,-7.1312,-7.1312,-7.1312,-7.1312,-7.1312,-7.1312,-7.1312,-7.1312,-7.1312,-7.1312,-7.1312,-7.1312,-7.1312,-7.1312,-7.1312,-7.1312,-7.1312,-7.1312,-7.1312,-7.1312,-7.1312,-7.1312,-7.1312,-7.1312,-7.1312,-7.1312,-7.1312,-7.1312,-7.1312,-7.1312,-7.1312,-7.1312,-7.1312,-7.1312,-7.1312,-7.1312,-7.1312,-7.1312,-7.1312,-7.1312,-7.1312,-7.1312,-7.1312,-7.1312,-7.1312,-7.1312,-7.1312,-7.1312,-7.1312,-7.1312,-7.1312,-7.1312,-7.1312,-7.1312,-7.1312,-7.1312,-7.1312,-7.1312,-7.1312,-7.1312,-7.1312,-7.1312,-7.1312,-7.1267,-7.1131,-7.1007,-7.087]},{"header":{"parameterUnit":"m.s-1","parameterCategory":1,"la1":30.6,"la2":28.766,"lo1":-90.7593,"lo2":-88.6598,"dy":0.0162,"dx":0.0183,"nx":116,"ny":114,"refTime":"2023-03-31T06:00:00:Z","depth":0,"parameterNumber":3,"parameterNumberName":"V-component_of_WINDS"},"data":[0.0,0.0,0.0,0.0,0.0,0.0,0.0,0.0,0.0,0.0,0.0,0.0,0.0,0.0,0.0,0.0,0.0,0.0,0.0,0.0,0.0,0.0,0.0,0.0,0.0,0.0,0.0,0.0,0.0,0.0,0.0,0.0,0.0,0.0,0.0,0.0,0.0,0.0,0.0,0.0,0.0,0.0,0.0,0.0,0.0,0.0,0.0,0.0,0.0,0.0,0.0,0.0,0.0,0.0,0.0,0.0,0.0,0.0,0.0,0.0,0.0,0.0,0.0,0.0,0.0,0.0,0.0,0.0,0.0,0.0,0.0,0.0,0.0,0.0,0.0,0.0,0.0,0.0,0.0,0.0,0.0,0.0,0.0,0.0,0.0,0.0,0.0,0.0,0.0,0.0,0.0,0.0,0.0,0.0,0.0,0.0,0.0,0.0,0.0,0.0,0.0,0.0,0.0,0.0,0.0,0.0,0.0,0.0,0.0,0.0,0.0,0.0,0.0,0.0,0.0,0.0,0.0,0.0,0.0,0.0,0.0,0.0,0.0,0.0,0.0,0.0,0.0,0.0,0.0,0.0,0.0,0.0,0.0,0.0,0.0,0.0,0.0,0.0,0.0,0.0,0.0,0.0,0.0,0.0,0.0,0.0,0.0,0.0,0.0,0.0,0.0,0.0,0.0,0.0,0.0,0.0,0.0,0.0,0.0,0.0,0.0,0.0,0.0,0.0,0.0,0.0,0.0,0.0,0.0,0.0,0.0,0.0,0.0,0.0,0.0,0.0,0.0,0.0,0.0,0.0,0.0,0.0,0.0,0.0,0.0,0.0,0.0,0.0,0.0,0.0,0.0,0.0,0.0,0.0,0.0,0.0,0.0,0.0,0.0,0.0,0.0,0.0,0.0,0.0,0.0,0.0,0.0,0.0,0.0,0.0,0.0,0.0,0.0,0.0,0.0,0.0,0.0,0.0,0.0,0.0,0.0,0.0,0.0,0.0,0.0,0.0,0.0,0.0,0.0,0.0,0.0,0.0,0.0,0.0,0.0,0.0,0.0,0.0,0.0,0.0,0.0,0.0,0.0,0.0,0.0,0.0,0.0,0.0,0.0,0.0,0.0,0.0,0.0,0.0,0.0,0.0,0.0,0.0,0.0,0.0,0.0,0.0,0.0,0.0,0.0,0.0,0.0,0.0,0.0,0.0,0.0,0.0,0.0,0.0,0.0,0.0,0.0,0.0,0.0,0.0,0.0,0.0,0.0,0.0,0.0,0.0,0.0,0.0,0.0,0.0,0.0,0.0,0.0,0.0,0.0,0.0,0.0,0.0,0.0,0.0,0.0,0.0,0.0,0.0,0.0,0.0,0.0,0.0,0.0,0.0,0.0,0.0,0.0,0.0,0.0,0.0,0.0,0.0,0.0,0.0,0.0,0.0,0.0,0.0,0.0,0.0,0.0,0.0,0.0,0.0,0.0,0.0,0.0,0.0,0.0,0.0,0.0,0.0,0.0,0.0,0.0,0.0,0.0,0.0,0.0,0.0,0.0,0.0,0.0,0.0,0.0,0.0,0.0,0.0,0.0,0.0,0.0,0.0,0.0,0.0,0.0,0.0,0.0,0.0,0.0,0.0,0.0,0.0,0.0,0.0,0.0,0.0,0.0,0.0,0.0,0.0,0.0,0.0,0.0,0.0,0.0,0.0,0.0,0.0,0.0,0.0,0.0,0.0,0.0,0.0,0.0,0.0,0.0,0.0,0.0,0.0,0.0,0.0,0.0,0.0,0.0,0.0,0.0,0.0,0.0,0.0,0.0,0.0,0.0,0.0,0.0,0.0,0.0,0.0,0.0,0.0,0.0,0.0,0.0,0.0,0.0,0.0,0.0,0.0,0.0,0.0,0.0,0.0,0.0,0.0,0.0,0.0,0.0,0.0,0.0,0.0,0.0,0.0,0.0,0.0,0.0,0.0,0.0,0.0,0.0,0.0,0.0,0.0,0.0,0.0,0.0,0.0,0.0,0.0,0.0,0.0,0.0,0.0,0.0,0.0,0.0,0.0,0.0,0.0,0.0,0.0,0.0,0.0,0.0,0.0,0.0,0.0,0.0,0.0,0.0,0.0,0.0,0.0,0.0,0.0,0.0,0.0,0.0,0.0,0.0,0.0,0.0,0.0,0.0,0.0,0.0,0.0,0.0,0.0,0.0,0.0,0.0,0.0,0.0,0.0,0.0,0.0,0.0,0.0,0.0,0.0,0.0,0.0,0.0,0.0,0.0,0.0,0.0,0.0,0.0,0.0,0.0,0.0,0.0,0.0,0.0,0.0,0.0,0.0,0.0,0.0,0.0,0.0,0.0,0.0,0.0,0.0,0.0,0.0,0.0,0.0,0.0,0.0,0.0,0.0,0.0,0.0,0.0,0.0,0.0,0.0,0.0,0.0,0.0,0.0,0.0,0.0,0.0,0.0,0.0,0.0,0.0,0.0,0.0,0.0,0.0,0.0,0.0,0.0,0.0,0.0,0.0,0.0,0.0,0.0,0.0,0.0,0.0,0.0,0.0,0.0,0.0,0.0,0.0,0.0,0.0,0.0,0.0,0.0,0.0,0.0,0.0,0.0,0.0,0.0,0.0,0.0,0.0,0.0,0.0,0.0,0.0,0.0,0.0,0.0,0.0,0.0,0.0,0.0,0.0,0.0,0.0,0.0,0.0,0.0,0.0,0.0,0.0,0.0,0.0,0.0,0.0,0.0,0.0,0.0,0.0,0.0,0.0,0.0,0.0,0.0,0.0,0.0,0.0,0.0,0.0,0.0,0.0,0.0,0.0,0.0,0.0,0.0,0.0,0.0,0.0,0.0,0.0,0.0,0.0,0.0,0.0,0.0,0.0,0.0,0.0,0.0,0.0,0.0,0.0,0.0,0.0,0.0,0.0,0.0,0.0,0.0,0.0,0.0,0.0,0.0,0.0,0.0,0.0,0.0,0.0,0.0,0.0,0.0,0.0,0.0,0.0,0.0,0.0,0.0,0.0,0.0,0.0,0.0,0.0,0.0,0.0,0.0,0.0,0.0,0.0,0.0,0.0,0.0,0.0,0.0,0.0,0.0,0.0,0.0,0.0,0.0,0.0,0.0,0.0,0.0,0.0,0.0,0.0,0.0,0.0,0.0,0.0,0.0,0.0,0.0,0.0,0.0,0.0,0.0,0.0,0.0,0.0,0.0,0.0,0.0,0.0,0.0,0.0,0.0,0.0,0.0,0.0,0.0,0.0,0.0,0.0,0.0,0.0,0.0,0.0,0.0,0.0,0.0,0.0,0.0,0.0,0.0,0.0,0.0,0.0,0.0,0.0,0.0,0.0,0.0,0.0,0.0,0.0,0.0,0.0,0.0,0.0,0.0,0.0,0.0,0.0,0.0,0.0,0.0,0.0,0.0,0.0,0.0,0.0,0.0,0.0,0.0,0.0,0.0,0.0,0.0,0.0,0.0,0.0,0.0,0.0,0.0,0.0,0.0,0.0,0.0,0.0,0.0,0.0,0.0,0.0,0.0,0.0,0.0,0.0,0.0,0.0,0.0,0.0,0.0,0.0,0.0,0.0,0.0,0.0,0.0,0.0,0.0,0.0,0.0,0.0,0.0,0.0,0.0,0.0,0.0,0.0,0.0,0.0,0.0,0.0,0.0,0.0,0.0,0.0,0.0,0.0,0.0,0.0,0.0,0.0,0.0,0.0,0.0,0.0,0.0,0.0,0.0,0.0,0.0,0.0,0.0,0.0,0.0,0.0,0.0,0.0,0.0,0.0,0.0,0.0,0.0,0.0,0.0,0.0,0.0,0.0,0.0,0.0,0.0,0.0,0.0,0.0,0.0,0.0,0.0,0.0,0.0,0.0,0.0,0.0,0.0,0.0,0.0,0.0,0.0,0.0,0.0,0.0,0.0,0.0,0.0,0.0,0.0,0.0,0.0,0.0,0.0,0.0,0.0,0.0,0.0,0.0,0.0,0.0,0.0,0.0,0.0,0.0,0.0,0.0,0.0,0.0,0.0,0.0,0.0,0.0,0.0,0.0,0.0,0.0,0.0,0.0,0.0,0.0,0.0,0.0,0.0,0.0,0.0,0.0,0.0,0.0,0.0,0.0,0.0,0.0,0.0,0.0,0.0,0.0,0.0,0.0,0.0,0.0,0.0,0.0,0.0,0.0,0.0,0.0,0.0,0.0,0.0,0.0,0.0,0.0,0.0,0.0,0.0,0.0,0.0,0.0,0.0,0.0,0.0,0.0,0.0,0.0,0.0,0.0,0.0,0.0,0.0,0.0,0.0,0.0,0.0,0.0,0.0,0.0,0.0,0.0,0.0,0.0,0.0,0.0,0.0,0.0,0.0,0.0,0.0,0.0,0.0,0.0,0.0,0.0,0.0,0.0,0.0,0.0,0.0,0.0,0.0,0.0,0.0,0.0,0.0,0.0,0.0,0.0,0.0,0.0,0.0,0.0,0.0,0.0,0.0,0.0,0.0,0.0,0.0,0.0,0.0,0.0,0.0,0.0,0.0,0.0,0.0,0.0,0.0,0.0,0.0,0.0,0.0,0.0,0.0,0.0,0.0,0.0,0.0,0.0,0.0,0.0,0.0,0.0,0.0,0.0,0.0,0.0,0.0,0.0,0.0,0.0,0.0,0.0,0.0,0.0,0.0,0.0,0.0,0.0,0.0,0.0,0.0,0.0,0.0,0.0,0.0,0.0,0.0,0.0,0.0,0.0,0.0,0.0,0.0,0.0,0.0,0.0,0.0,0.0,0.0,0.0,0.0,0.0,0.0,0.0,0.0,0.0,0.0,0.0,0.0,0.0,0.0,0.0,0.0,0.0,0.0,0.0,0.0,0.0,0.0,0.0,0.0,0.0,0.0,0.0,0.0,0.0,0.0,0.0,0.0,0.0,0.0,0.0,0.0,0.0,0.0,0.0,0.0,0.0,0.0,0.0,0.0,0.0,0.0,0.0,0.0,0.0,0.0,0.0,0.0,0.0,0.0,0.0,0.0,0.0,0.0,0.0,0.0,0.0,0.0,0.0,0.0,0.0,0.0,0.0,0.0,0.0,0.0,0.0,0.0,0.0,0.0,0.0,0.0,0.0,0.0,0.0,0.0,0.0,0.0,0.0,0.0,0.0,0.0,0.0,0.0,0.0,0.0,0.0,0.0,0.0,0.0,0.0,0.0,0.0,0.0,0.0,0.0,0.0,0.0,0.0,0.0,0.0,0.0,0.0,0.0,0.0,0.0,0.0,0.0,0.0,0.0,0.0,0.0,0.0,0.0,0.0,0.0,0.0,0.0,0.0,0.0,0.0,0.0,0.0,0.0,0.0,0.0,0.0,0.0,0.0,0.0,0.0,0.0,0.0,0.0,0.0,0.0,0.0,0.0,0.0,0.0,0.0,0.0,0.0,0.0,0.0,0.0,0.0,0.0,0.0,0.0,0.0,0.0,0.0,0.0,0.0,0.0,0.0,0.0,0.0,0.0,0.0,0.0,0.0,0.0,0.0,0.0,0.0,0.0,0.0,0.0,0.0,0.0,0.0,0.0,0.0,0.0,0.0,0.0,0.0,0.0,0.0,0.0,0.0,0.0,0.0,0.0,0.0,0.0,0.0,0.0,0.0,0.0,0.0,0.0,0.0,0.0,0.0,0.0,0.0,0.0,0.0,0.0,0.0,0.0,0.0,0.0,0.0,0.0,0.0,0.0,0.0,0.0,0.0,0.0,0.0,0.0,0.0,0.0,0.0,0.0,0.0,0.0,0.0,0.0,0.0,0.0,0.0,0.0,0.0,0.0,0.0,0.0,0.0,0.0,0.0,0.0,0.0,0.0,0.0,0.0,0.0,0.0,0.0,0.0,0.0,0.0,0.0,0.0,0.0,0.0,0.0,0.0,0.0,0.0,0.0,0.0,0.0,0.0,0.0,0.0,0.0,0.0,0.0,0.0,0.0,0.0,0.0,0.0,0.0,0.0,0.0,0.0,0.0,0.0,0.0,0.0,0.0,0.0,0.0,0.0,0.0,0.0,0.0,0.0,0.0,0.0,0.0,0.0,0.0,0.0,0.0,0.0,0.0,0.0,0.0,0.0,0.0,0.0,3.0527,2.9626,0.0,0.0,0.0,0.0,0.0,0.0,0.0,0.0,0.0,0.0,0.0,0.0,0.0,0.0,0.0,0.0,0.0,0.0,0.0,0.0,0.0,0.0,0.0,0.0,0.0,0.0,0.0,0.0,0.0,0.0,0.0,0.0,0.0,0.0,0.0,0.0,0.0,0.0,1.8397,1.9279,2.0414,1.996,1.9452,1.8891,0.0,0.0,0.0,0.0,0.0,0.0,0.0,0.0,0.0,0.0,0.0,0.0,0.0,0.0,0.0,0.0,0.0,0.0,0.0,0.0,0.0,0.0,0.0,0.0,0.0,0.0,0.0,0.0,0.0,0.0,0.0,0.0,0.0,0.0,0.0,0.0,0.0,0.0,0.0,0.0,0.0,0.0,0.0,0.0,0.0,0.0,0.0,0.0,0.0,0.0,0.0,0.0,0.0,0.0,0.0,0.0,0.0,0.0,0.0,0.0,0.0,0.0,0.0,0.0,0.0,0.0,0.0,0.0,0.0,0.0,3.0781,3.043,0.0,0.0,0.0,0.0,0.0,0.0,0.0,0.0,0.0,0.0,0.0,0.0,0.0,0.0,0.0,0.0,0.0,0.0,0.0,0.0,0.0,0.0,0.0,0.0,1.7529,1.7529,1.7582,1.7582,0.0,0.0,0.0,0.0,0.0,0.0,0.0,1.7582,1.7662,1.7822,1.9172,2.0321,2.1269,2.1269,2.0748,1.9832,1.8691,0.0,0.0,0.0,0.0,0.0,0.0,0.0,0.0,0.0,0.0,0.0,0.0,0.0,0.0,0.0,0.0,0.0,0.0,0.0,0.0,0.0,0.0,0.0,0.0,0.0,0.0,0.0,0.0,0.0,0.0,0.0,0.0,0.0,0.0,0.0,0.0,0.0,0.0,0.0,0.0,0.0,0.0,0.0,0.0,0.0,0.0,0.0,0.0,0.0,0.0,0.0,0.0,0.0,0.0,0.0,0.0,0.0,0.0,0.0,0.0,0.0,0.0,0.0,2.9938,3.0607,3.1562,3.1562,3.1562,3.1543,3.1406,3.1641,3.2031,3.0156,0.0,0.0,0.0,0.0,0.0,0.0,0.0,0.0,0.0,0.0,0.0,0.0,0.0,0.0,0.0,0.0,0.0,0.0,0.0,0.0,0.0,1.6908,1.7226,1.7226,1.749,1.7582,0.0,0.0,0.0,0.0,0.0,0.0,1.7582,1.7582,1.7969,1.8744,2.0695,2.1724,2.1871,2.1871,2.179,2.1617,2.0949,2.0241,1.9546,0.0,0.0,0.0,0.0,0.0,0.0,0.0,0.0,0.0,0.0,0.0,0.0,0.0,0.0,0.0,0.0,0.0,0.0,0.0,0.0,0.0,0.0,0.0,0.0,0.0,0.0,0.0,0.0,0.0,0.0,0.0,0.0,0.0,0.0,0.0,0.0,0.0,0.0,0.0,0.0,0.0,2.2432,2.3091,0.0,0.0,0.0,0.0,0.0,0.0,0.0,0.0,0.0,0.0,0.0,0.0,0.0,2.7327,3.0747,3.1011,3.2065,3.3908,3.3966,3.407,3.4199,3.4199,3.4199,3.416,3.3418,0.0,3.217,3.1445,0.0,0.0,0.0,0.0,0.0,0.0,0.0,0.0,0.0,0.0,0.0,0.0,0.0,0.0,0.0,0.0,0.0,0.0,0.0,0.0,0.0,1.7418,1.8072,1.7958,1.8831,1.9038,1.8384,1.833,0.0,0.0,0.0,1.7582,1.7582,1.8076,1.9092,2.0641,2.155,2.2325,2.2993,2.2993,2.2993,2.2979,2.2726,2.1657,2.004,1.9907,0.0,0.0,0.0,0.0,0.0,0.0,0.0,0.0,0.0,0.0,0.0,0.0,0.0,0.0,0.0,0.0,0.0,0.0,0.0,0.0,0.0,0.0,0.0,0.0,0.0,0.0,0.0,0.0,0.0,0.0,0.0,0.0,0.0,0.0,0.0,0.0,0.0,0.0,0.0,2.2418,2.3486,2.413,2.4013,2.3706,0.0,0.0,0.0,0.0,0.0,0.0,0.0,0.0,0.0,2.8841,2.9084,3.0116,3.2216,3.3019,3.3796,3.4707,3.4707,3.4707,3.4707,3.4707,3.4707,3.4668,3.4297,3.3926,3.3516,3.2617,3.1953,3.1406,0.0,0.0,0.0,0.0,2.8785,2.8902,0.0,0.0,0.0,0.0,0.0,0.0,0.0,0.0,0.0,0.0,0.0,0.0,1.6745,1.8231,1.9148,1.8978,2.004,2.0174,1.8998,1.8918,0.0,0.0,1.7582,1.7582,1.7582,1.8691,2.012,2.1871,2.2098,2.2672,2.3541,2.3541,2.3541,2.3541,2.3541,2.2512,2.0788,2.0708,2.0174,1.9345,0.0,0.0,0.0,0.0,0.0,0.0,0.0,0.0,0.0,0.0,0.0,0.0,0.0,0.0,0.0,0.0,0.0,0.0,0.0,0.0,0.0,0.0,0.0,0.0,0.0,0.0,0.0,0.0,0.0,0.0,0.0,0.0,0.0,0.0,0.0,0.0,0.0,2.3062,2.4203,2.4914,2.4788,2.4598,0.0,0.0,0.0,0.0,0.0,0.0,2.6917,2.8009,2.9415,3.1187,3.1899,3.2588,3.3468,3.4489,3.5039,3.5039,3.5039,3.5039,3.5039,3.5039,3.5039,3.5039,3.5039,3.498,3.4785,3.373,3.291,3.2285,3.1855,3.1094,3.0215,3.0117,3.0078,3.0156,0.0,0.0,0.0,0.0,0.0,0.0,0.0,0.0,0.0,0.0,0.0,1.7582,1.799,1.9221,2.0092,2.0094,2.0442,2.0174,1.8998,1.8918,1.8517,1.7622,1.7582,1.7582,1.7582,1.9279,2.0628,2.1641,2.2472,2.2914,2.2981,2.2981,2.2981,2.2981,2.2981,2.2686,2.2285,2.2017,2.139,2.0494,1.9372,0.0,0.0,0.0,0.0,0.0,0.0,0.0,0.0,0.0,0.0,0.0,0.0,0.0,0.0,0.0,0.0,0.0,0.0,0.0,0.0,0.0,0.0,0.0,0.0,0.0,0.0,0.0,0.0,0.0,0.0,0.0,0.0,0.0,0.0,0.0,0.0,0.0,0.0,2.451,2.5652,0.0,0.0,0.0,0.0,2.4057,2.5417,2.7343,2.9774,2.9975,3.1702,3.5569,3.4427,3.4377,3.5821,3.5889,3.5957,3.5957,3.5957,3.5957,3.5957,3.5957,3.5957,3.5957,3.5957,3.5723,3.5312,3.4805,3.457,3.4375,3.2773,3.215,3.2053,3.1582,3.1426,3.1601,0.0,0.0,0.0,0.0,0.0,0.0,0.0,0.0,1.5885,1.5885,1.6815,1.7537,1.7713,1.9623,2.0863,2.0721,2.1684,2.1819,2.0708,1.9907,1.9172,1.8477,1.7716,1.7929,1.9265,2.0468,2.151,2.2459,2.278,2.2928,2.2928,2.2928,2.2928,2.2928,2.2928,2.2806,2.2699,2.2592,2.211,2.1266,2.0788,1.9933,0.0,0.0,0.0,0.0,0.0,0.0,0.0,0.0,0.0,0.0,0.0,0.0,0.0,0.0,0.0,0.0,0.0,0.0,0.0,0.0,0.0,0.0,0.0,0.0,0.0,0.0,0.0,0.0,0.0,0.0,0.0,0.0,0.0,0.0,0.0,0.0,0.0,2.511,2.5593,0.0,2.5403,2.6337,2.6858,2.6486,2.9345,3.1499,3.2402,3.3391,3.4564,3.5928,3.547,3.5451,3.6016,3.6016,3.6016,3.6016,3.6016,3.6016,3.6016,3.6016,3.6016,3.6016,3.6016,3.5937,3.5781,3.5625,3.5215,3.4648,3.4023,3.3789,3.3769,3.3633,3.3398,3.3223,0.0,0.0,0.0,0.0,0.0,0.0,0.0,0.0,1.6018,1.638,1.7358,1.8216,1.8703,2.0607,2.1873,2.1889,2.2665,2.2644,2.1363,2.0428,1.9506,1.8517,1.8009,1.8664,2.0641,2.1256,2.2043,2.2928,2.2928,2.2928,2.2928,2.2928,2.2928,2.2928,2.2928,2.2928,2.2928,2.2928,2.2593,2.203,2.1735,2.0681,1.939,0.0,0.0,0.0,0.0,0.0,0.0,0.0,0.0,0.0,0.0,0.0,0.0,0.0,0.0,0.0,0.0,0.0,0.0,0.0,0.0,0.0,0.0,0.0,0.0,0.0,0.0,0.0,0.0,0.0,0.0,0.0,0.0,0.0,0.0,2.4013,2.5052,2.5476,2.5827,2.6228,2.6703,2.7246,2.794,2.8959,3.1496,3.3276,3.3762,3.5177,3.6016,3.6016,3.6016,3.6016,3.6016,3.6016,3.6016,3.6016,3.6016,3.6016,3.6016,3.6016,3.6016,3.6016,3.6016,3.6016,3.6016,3.6016,3.5684,3.5137,3.498,3.4941,3.4922,3.4766,3.4531,3.4277,0.0,0.0,0.0,0.0,0.0,0.0,0.0,1.5885,1.6272,1.7346,1.8408,1.9679,2.1096,2.2271,2.3041,2.3567,2.3353,2.2487,2.0855,2.0401,1.9426,1.7675,1.8504,1.98,2.1574,2.1641,2.207,2.2928,2.2928,2.2928,2.2928,2.2928,2.2928,2.2928,2.2928,2.2928,2.2928,2.2928,2.2928,2.2861,2.2003,2.1069,2.0174,0.0,0.0,0.0,0.0,0.0,0.0,0.0,0.0,0.0,0.0,0.0,0.0,0.0,0.0,0.0,0.0,0.0,0.0,0.0,0.0,0.0,0.0,0.0,0.0,0.0,0.0,0.0,0.0,0.0,0.0,0.0,0.0,0.0,2.4086,2.4949,2.5549,2.5579,2.6413,2.755,2.8963,2.7913,2.8331,3.1296,3.1578,3.2281,3.3762,3.5245,3.6016,3.6016,3.6016,3.6016,3.6016,3.6035,3.6035,3.6035,3.6055,3.6055,3.6055,3.6055,3.6055,3.6055,3.6055,3.6055,3.6055,3.6055,3.6055,3.6016,3.5586,3.541,3.5351,3.4902,3.4726,3.4726,0.0,0.0,0.0,0.0,0.0,0.0,0.0,1.5885,1.6272,1.7346,1.8408,1.9548,2.0764,2.1837,2.267,2.313,2.2921,2.2458,2.1724,2.0361,1.9092,1.7943,1.9786,2.1119,2.1601,2.2244,2.2686,2.2928,2.2928,2.2928,2.2928,2.2928,2.2928,2.2928,2.2928,2.2928,2.2928,2.2928,2.2928,2.2914,2.2673,2.2043,2.1226,0.0,0.0,0.0,0.0,0.0,0.0,0.0,0.0,0.0,0.0,0.0,0.0,0.0,0.0,0.0,0.0,0.0,0.0,0.0,0.0,0.0,0.0,0.0,0.0,0.0,0.0,0.0,0.0,0.0,0.0,0.0,2.4423,2.5037,2.5125,2.5564,2.6061,2.653,2.6822,2.7129,2.755,2.925,3.0589,3.1437,3.3554,3.4971,3.5382,3.5811,3.6016,3.6016,3.6016,3.6016,3.6016,3.6328,3.6484,3.6484,3.6797,3.6953,3.6953,3.6953,3.6953,3.6953,3.6953,3.6953,3.6953,3.6953,3.6953,3.6875,3.6133,3.5859,3.584,3.5703,3.5469,3.5156,0.0,0.0,0.0,0.0,0.0,0.0,0.0,1.5885,1.6429,1.795,1.8686,1.9652,2.1172,2.197,2.2496,2.2928,2.2195,2.1548,2.1239,1.9847,1.9145,1.9479,2.0877,2.1789,2.2164,2.2673,2.2928,2.2928,2.2928,2.2928,2.2928,2.2928,2.2928,2.2928,2.2928,2.2928,2.2928,2.2928,2.2928,2.2928,2.2928,2.2405,2.1614,2.1757,2.1568,2.1194,2.1375,2.1749,2.2096,2.1525,0.0,0.0,0.0,0.0,0.0,0.0,0.0,0.0,0.0,0.0,0.0,0.0,0.0,0.0,0.0,0.0,0.0,0.0,0.0,0.0,0.0,0.0,0.0,0.0,2.5096,2.5827,2.6105,2.631,2.6559,2.6939,2.6983,2.7492,2.8763,2.9322,3.066,3.3188,3.3831,3.4677,3.5947,3.6191,3.6289,3.6289,3.6465,3.6562,3.6562,3.6816,3.6934,3.6934,3.7187,3.7305,3.7305,3.7305,3.7305,3.7305,3.7305,3.7305,3.7305,3.7305,3.7305,3.7246,0.0,0.0,0.0,0.0,3.6016,3.5605,0.0,0.0,0.0,0.0,0.0,0.0,0.0,1.5885,1.6658,1.8794,1.9072,1.9893,2.2103,2.2334,2.2483,2.2856,2.1381,2.0328,2.0022,1.9304,1.9639,2.1494,2.1695,2.2137,2.2914,2.2928,2.2928,2.2928,2.2928,2.2928,2.2928,2.2928,2.2928,2.2928,2.2928,2.2928,2.2928,2.2928,2.2928,2.2928,2.2928,2.2459,2.1762,2.1762,2.1583,2.1441,2.1502,2.1943,2.243,2.2374,0.0,0.0,0.0,0.0,0.0,0.0,0.0,0.0,0.0,0.0,0.0,0.0,0.0,0.0,0.0,0.0,0.0,0.0,0.0,0.0,0.0,0.0,0.0,0.0,2.5491,2.6325,2.691,2.6983,2.6983,2.6983,2.6983,2.8057,3.073,2.8891,2.9679,3.4815,3.3312,3.3191,3.5664,3.6435,0.0,0.0,0.0,3.7305,3.7305,3.7344,3.7363,3.7363,3.7422,3.7441,3.7441,3.7441,3.7441,3.7441,3.7441,3.7441,3.7441,3.7441,3.7441,3.7441,3.7324,3.7305,3.7246,3.6875,3.6504,3.6172,0.0,0.0,0.0,0.0,0.0,0.0,0.0,1.5885,1.6658,1.8794,1.9072,1.9893,2.2103,2.2334,2.2483,2.2856,2.1554,2.0366,1.9585,2.0465,2.1029,2.1189,2.2098,2.2753,2.2928,2.2928,2.2928,2.2928,2.2928,2.2928,2.2928,2.2928,2.2928,2.2928,2.2928,2.2928,2.2928,2.2928,2.2928,2.2928,2.2928,2.2834,2.2673,2.2673,2.2768,2.302,2.3353,2.3686,2.3969,2.3461,2.3325,2.3193,2.2432,2.1511,0.0,0.0,0.0,0.0,0.0,0.0,0.0,0.0,0.0,0.0,0.0,0.0,0.0,0.0,0.0,0.0,0.0,0.0,0.0,2.5315,2.6164,2.6852,2.6969,2.6983,2.6983,2.6983,2.6983,2.7202,2.784,2.9536,3.0589,3.0518,3.3705,3.5395,3.4748,3.6285,3.7168,3.7168,3.7266,3.7305,3.7305,3.7637,3.7812,3.7812,3.8164,0.0,3.832,3.832,3.832,3.832,3.832,3.832,3.832,3.832,3.832,3.8262,3.7559,3.7305,3.7285,3.7207,3.7129,3.7051,0.0,0.0,0.0,0.0,0.0,0.0,0.0,1.5885,1.6465,1.807,1.8275,1.8891,2.0496,2.0557,2.061,2.0816,2.0207,1.9549,1.9037,2.0482,2.1523,2.1964,2.2552,2.2928,2.2928,2.2928,2.2928,2.2928,2.2928,2.2928,2.2928,2.2928,2.2928,2.2928,2.2928,2.2928,2.2928,2.2928,2.2928,2.2928,2.2928,2.2928,2.2928,2.2928,2.3133,2.3475,2.3884,2.4224,2.4491,2.4349,2.432,2.4247,2.3764,2.2945,2.2067,0.0,0.0,0.0,0.0,0.0,0.0,0.0,0.0,0.0,0.0,0.0,0.0,0.0,0.0,2.413,0.0,0.0,2.5579,2.5754,2.6457,2.6983,2.6983,2.6983,2.6983,2.6983,2.7623,2.8114,2.8114,2.9625,3.0926,3.1711,3.3571,3.5034,3.5811,3.6939,3.7617,3.7617,3.7832,3.793,3.793,3.8144,3.8242,3.8242,3.8476,3.8574,3.8574,3.8789,3.8887,3.8887,3.8887,3.8887,3.8867,3.8652,3.8574,3.8535,3.8105,3.7812,3.7617,3.7617,3.748,3.7305,0.0,0.0,0.0,0.0,0.0,0.0,0.0,0.0,1.6272,1.7346,1.7479,1.7889,1.8963,1.8843,1.8577,1.8324,1.8888,1.9086,1.8705,2.045,2.1937,2.2887,2.2928,2.2928,2.2928,2.2928,2.2928,2.2928,2.2928,2.2928,2.2928,2.2928,2.2928,2.2928,2.2928,2.2928,2.2928,2.2928,2.2928,2.2928,2.2928,2.2928,2.2928,2.2928,2.3065,2.3338,2.3816,2.4043,2.4185,2.4858,2.5002,2.487,2.5061,2.4379,2.3442,2.2681,2.233,0.0,0.0,0.0,0.0,0.0,0.0,0.0,0.0,0.0,2.4423,2.4613,2.4642,2.473,2.4993,2.5461,2.59,2.6164,2.6647,2.6983,2.6983,2.7042,2.7086,2.7086,2.8149,2.8857,2.8857,2.9736,3.1092,3.2965,3.3171,3.4125,3.639,3.7148,3.7687,3.8047,3.8398,3.8613,3.8691,3.8691,3.875,3.8828,3.8828,3.8828,3.8848,3.918,3.9336,3.9336,3.9336,3.9336,3.9316,3.8965,3.8828,3.8828,3.873,3.8476,3.8164,3.8086,3.7832,3.7539,0.0,0.0,0.0,0.0,0.0,0.0,0.0,0.0,0.0,1.7346,1.7479,1.7889,1.8963,1.8843,1.8215,1.7032,1.9287,2.0221,1.9005,2.1516,2.302,2.2873,2.2928,2.2928,2.2928,2.2928,2.2928,2.2928,2.2928,2.2928,2.2928,2.2928,2.2928,2.2928,2.2928,2.2928,2.2928,2.2928,2.2928,2.2928,2.2928,2.2928,2.2928,2.2928,2.2928,2.3065,2.3747,2.342,2.2976,2.4558,2.4481,2.391,2.4855,2.4379,2.3574,2.3471,0.0,2.192,2.0676,2.0837,2.1525,2.2184,2.312,2.413,0.0,0.0,2.5622,2.6486,2.6661,2.6676,2.6705,2.6778,2.6837,2.6881,2.6939,2.6983,2.6983,2.7247,2.7422,2.7422,2.757,2.7703,2.7703,3.0469,3.1252,2.8777,3.2691,3.4755,3.38,3.5428,3.7068,3.8496,3.8555,3.875,3.9121,3.9141,3.9336,3.9746,3.9746,3.9746,3.9746,3.9805,3.9824,3.9824,3.9824,3.9824,3.9824,3.9766,3.9746,3.9707,3.9297,3.9101,3.9004,3.8633,3.8476,3.8437,0.0,0.0,0.0,0.0,0.0,0.0,0.0,0.0,0.0,0.0,1.6561,1.673,1.7177,1.6851,1.6247,1.5378,1.8081,1.9517,1.8821,2.1582,2.3193,2.2873,2.2928,2.2928,2.2928,2.2928,2.2928,2.2928,2.2928,2.2928,2.2928,2.2928,2.2928,2.2928,2.2928,2.2928,2.2928,2.2928,2.2928,2.2928,2.2928,2.2928,2.2928,2.2928,2.2928,2.2929,2.307,2.2837,0.0,0.0,2.394,2.3764,2.4744,2.4379,2.3588,2.3588,2.2798,0.0,2.2374,2.2403,2.274,0.0,2.4949,2.5183,2.6149,2.6383,2.65,2.691,2.6983,2.6983,2.6983,2.6983,2.6983,0.0,2.6983,2.7056,2.7247,2.7393,2.7539,2.773,2.792,2.7964,2.7773,3.0021,3.0975,2.9698,3.2617,3.4631,3.4946,3.6681,3.8012,3.8926,3.8945,3.916,3.9609,3.9609,3.9707,3.9902,3.9902,3.9902,3.9902,4.0156,4.0254,4.0254,4.0254,4.0117,3.9902,3.9902,3.9902,3.9883,3.9687,3.9609,3.9531,3.8828,3.8574,3.8574,0.0,0.0,0.0,0.0,0.0,0.0,0.0,0.0,0.0,0.0,0.0,1.5837,1.5692,1.533,1.4896,1.434,1.6884,1.8524,1.859,2.1292,2.2857,2.2928,2.2928,2.2928,2.2928,2.2928,2.2928,2.2928,2.2928,2.2928,2.2928,2.2928,2.2928,2.2928,2.2928,2.2928,2.2928,2.2928,2.2928,2.2928,2.2928,2.2928,2.2928,2.2928,2.278,2.2553,2.2428,2.2215,0.0,0.0,2.2824,2.2828,2.372,2.3574,2.3062,2.2959,2.2037,2.1423,2.3193,0.0,0.0,2.5959,2.6252,2.612,2.6822,2.6983,2.6983,2.6983,2.6983,2.6983,2.6983,2.6983,2.6983,2.6983,2.7071,2.7203,2.7452,2.7627,2.7832,2.7976,2.8359,2.8461,2.8227,2.9838,3.089,3.095,3.2238,3.3785,3.5564,3.6329,3.711,3.7897,3.846,3.8895,3.9356,3.9831,4.0137,4.0254,4.0254,4.0254,4.0254,4.0566,4.0703,4.0703,4.0703,4.0527,4.0254,4.0254,4.0254,4.0234,4.0117,4.0078,3.998,3.9219,3.8945,3.8926,0.0,0.0,0.0,0.0,0.0,0.0,0.0,0.0,0.0,0.0,0.0,0.0,0.0,1.5113,1.4896,1.434,1.6159,1.7686,1.8551,2.0537,2.2017,2.2832,2.2928,2.2928,2.2928,2.2928,2.2928,2.2928,2.2928,2.2928,2.2928,2.2928,2.2928,2.2928,2.2928,2.2928,2.2928,2.2928,2.2928,2.2928,2.2928,2.2928,2.2928,2.2928,2.2405,2.1655,2.2015,0.0,0.0,0.0,2.0887,2.0402,2.1115,2.1525,0.0,2.1379,2.0369,0.0,0.0,0.0,2.2754,2.5008,2.6266,2.6954,2.6983,2.6983,2.6983,2.6983,2.6983,2.6983,2.6983,2.6983,2.6983,2.6983,2.7261,2.7466,2.7481,2.8008,2.8417,2.8341,2.8695,2.8871,0.0,3.033,3.1239,3.1239,3.1331,3.2244,3.4205,3.2834,3.2859,3.4769,3.6492,3.7539,3.7924,3.9625,4.0723,4.1133,4.1133,4.1133,4.1133,4.1152,4.1152,4.1152,4.1152,4.1152,4.1133,4.1133,4.1133,4.1094,4.0664,4.0508,4.0449,4.0019,3.9863,3.9785,0.0,0.0,0.0,0.0,0.0,0.0,0.0,0.0,0.0,0.0,0.0,0.0,0.0,0.0,0.0,0.0,1.5962,1.7219,1.7742,2.0015,2.1542,2.2057,2.2619,2.2928,2.2928,2.2928,2.2928,2.2928,2.2928,2.2928,2.2928,2.2928,2.2928,2.2928,2.2928,2.2928,2.2928,2.2928,2.2928,2.2928,2.2928,2.2579,2.2057,2.2057,2.1387,2.0307,0.0,0.0,0.0,0.0,0.0,0.0,2.0883,0.0,0.0,2.0281,0.0,0.0,0.0,0.0,2.394,2.5988,2.6749,2.6983,2.6983,2.6983,2.6983,2.6983,2.631,2.571,2.571,2.5359,2.5271,2.5915,2.6471,2.713,2.7993,2.83,2.8505,2.871,2.8827,0.0,0.0,0.0,0.0,3.0043,3.1074,3.1996,3.2881,3.4538,3.5857,3.6791,3.8473,3.9644,4.0065,4.0628,4.1035,4.1172,4.1172,4.1172,4.1172,4.1172,4.1172,4.1172,4.1172,4.1172,4.1172,4.1172,4.1172,4.1152,4.1016,4.0957,4.0937,4.0801,4.0742,4.0644,0.0,0.0,0.0,0.0,0.0,0.0,0.0,0.0,0.0,0.0,0.0,0.0,0.0,0.0,0.0,0.0,0.0,1.6574,1.6937,1.9011,2.0398,2.0783,2.1363,2.171,2.1911,2.151,2.151,2.1924,2.2031,2.2191,2.2472,2.2712,2.2928,2.2928,2.2928,2.2928,2.2928,2.2928,2.2753,2.2459,2.2459,2.1871,2.1082,2.1082,2.0414,0.0,1.8597,0.0,0.0,0.0,0.0,0.0,0.0,0.0,0.0,0.0,0.0,0.0,0.0,2.4086,2.4554,2.65,2.6983,2.6983,2.6983,2.6983,2.6896,2.6544,2.571,2.5017,2.4598,2.4188,2.4262,2.5359,2.6076,2.6954,2.8256,2.8534,2.8666,2.8871,2.8886,2.893,0.0,0.0,0.0,3.0224,3.0818,3.181,3.335,3.4851,3.6184,3.7202,3.8903,3.9988,4.0275,4.0275,3.9962,3.9393,3.9943,4.0275,4.0275,4.0919,4.1172,4.1172,4.1172,4.1172,4.1172,4.1172,4.1172,4.1172,4.1172,4.1172,4.1172,4.1172,4.1172,4.1074,0.0,0.0,0.0,0.0,0.0,0.0,0.0,0.0,0.0,0.0,0.0,0.0,0.0,0.0,0.0,0.0,0.0,0.0,1.6355,1.7721,1.8743,1.9305,1.9415,1.9666,2.0167,1.9145,1.9118,2.0167,2.0494,2.0985,2.1547,2.2365,2.2753,2.2753,2.2753,2.2753,2.2767,2.2767,2.2298,2.1547,2.1547,2.0962,2.01,2.01,1.9541,1.8731,1.8156,0.0,0.0,0.0,0.0,0.0,0.0,0.0,0.0,0.0,0.0,2.0615,2.3413,2.4188,2.4642,2.6515,2.6983,2.6983,2.6983,2.6954,2.6647,2.5696,2.5169,2.4665,0.0,0.0,2.3969,2.5242,2.6076,2.6998,2.8286,2.871,2.8886,0.0,0.0,0.0,0.0,0.0,0.0,3.1606,0.0,3.161,3.5129,3.3965,3.4113,3.6058,3.7834,3.8724,3.8645,3.8469,3.7675,3.6155,3.7834,3.8645,3.8803,4.0431,4.1172,4.1172,4.1172,4.1172,4.1172,4.1172,4.1172,4.1172,4.1172,4.1172,4.1172,4.1172,4.1172,4.1113,0.0,0.0,0.0,0.0,0.0,0.0,0.0,0.0,0.0,0.0,0.0,0.0,0.0,0.0,0.0,0.0,0.0,0.0,1.5989,1.7383,1.8364,1.8717,1.9516,2.008,2.0227,1.9947,1.9933,2.0167,2.0094,2.0094,2.0241,2.0254,2.0315,2.0315,2.0315,2.0374,2.0575,2.0575,2.0575,2.0575,2.0575,2.004,1.9252,1.9252,1.8424,1.7248,1.7101,0.0,0.0,0.0,0.0,0.0,0.0,2.054,2.1072,0.0,0.0,2.274,2.492,2.552,2.5754,2.6749,2.6983,2.6983,2.6983,2.6427,2.5769,2.5286,2.3779,2.2403,0.0,0.0,0.0,2.4276,2.6018,0.0,2.8622,2.8842,0.0,2.8886,2.9105,2.9281,2.9369,2.9807,0.0,0.0,3.1603,3.2678,3.3839,3.5937,3.7409,3.7914,3.9629,3.9943,3.8645,3.7277,3.7117,3.7914,3.8408,3.9295,4.0529,4.1016,4.1172,4.1172,4.1172,4.1172,4.1172,4.1172,4.1172,4.1172,4.1172,4.1172,4.1172,4.1172,4.1172,4.1152,0.0,0.0,0.0,0.0,0.0,0.0,0.0,0.0,0.0,0.0,0.0,0.0,0.0,0.0,0.0,0.0,0.0,0.0,0.0,1.7079,1.7831,1.7762,1.8324,1.8811,1.9065,1.8557,1.849,1.8878,1.8838,1.8891,1.9038,1.9265,1.943,1.943,1.943,1.9533,1.98,1.98,1.9746,0.0,0.0,1.9132,1.833,1.833,1.7742,1.6901,0.0,0.0,0.0,0.0,0.0,2.0642,2.1047,2.1661,2.2416,2.3426,0.0,2.3896,2.5564,2.612,2.6354,2.6866,2.6983,2.6837,2.6266,2.5725,2.4993,2.3823,2.2462,2.1467,2.1423,2.1979,2.2974,0.0,0.0,0.0,2.8739,2.8886,2.8886,0.0,2.9178,0.0,2.9573,3.0056,3.0407,3.0554,3.2165,3.3222,3.3429,3.6717,3.8249,3.7516,3.9138,3.9216,3.7516,3.6477,3.6477,3.7436,3.8231,3.9119,4.0099,4.0841,4.1172,4.1172,4.1172,4.1172,4.1172,4.1172,4.1172,4.1172,4.1172,4.1172,4.1172,4.1172,4.1172,4.1172,0.0,0.0,0.0,0.0,0.0,0.0,0.0,0.0,0.0,0.0,1.4908,0.0,0.0,0.0,0.0,0.0,0.0,0.0,0.0,0.0,0.0,1.6873,1.6815,1.7061,1.7569,1.658,1.642,1.7206,1.7407,1.7609,1.7836,1.8571,1.8975,1.9015,1.9015,1.9118,1.9386,1.9439,1.9172,1.8744,1.8744,1.8277,1.7582,0.0,0.0,0.0,0.0,0.0,0.0,0.0,2.1026,2.2139,2.201,2.273,2.3825,2.4377,2.4448,2.454,2.5754,2.6296,2.6574,2.691,2.6983,2.6647,2.5413,2.5017,2.4312,2.2081,0.0,2.1145,2.1554,2.1935,2.3032,2.5593,0.0,2.7437,2.871,2.8886,2.89,2.8944,2.9237,2.9573,2.9895,3.0217,3.0525,3.0803,3.2376,3.3429,3.3429,3.6477,3.7596,3.6075,3.7436,3.7516,3.5994,3.5994,3.6155,3.6396,3.7914,3.8724,3.8961,4.0509,4.1172,4.1172,4.1172,4.1172,4.1172,4.1172,4.1172,4.1172,4.1172,4.1172,4.1172,4.1172,4.1172,4.1172,0.0,0.0,0.0,0.0,0.0,0.0,0.0,0.0,0.0,0.0,1.5016,1.4883,0.0,0.0,0.0,0.0,0.0,0.0,0.0,0.0,0.0,0.0,1.7305,1.7475,1.7582,1.7382,1.7235,1.7206,1.6954,1.6887,1.6927,1.6593,1.658,1.6857,1.6857,1.6967,1.7261,1.7554,1.7742,1.7809,1.7809,1.7716,1.7582,0.0,0.0,0.0,0.0,0.0,0.0,0.0,2.1669,2.2249,2.2926,2.3672,2.4405,2.4767,2.5099,2.5447,2.6208,2.6457,2.6574,2.691,2.6983,2.6647,2.5413,2.4437,0.0,0.0,2.0618,2.0281,2.113,2.1789,2.3032,2.5593,2.6559,2.7437,2.871,2.8886,2.8988,0.0,2.9573,2.991,3.0313,3.0554,0.0,0.0,3.2376,3.3429,3.3429,3.5349,3.6316,3.5994,3.6316,3.6316,3.5994,3.5994,3.6717,3.8152,3.8487,3.9374,4.0763,4.1094,4.1172,4.1172,4.1172,0.0,4.1172,4.1172,4.1172,4.1172,4.1172,4.1172,4.1172,4.1172,4.1172,4.1172,0.0,0.0,0.0,0.0,0.0,0.0,0.0,1.5753,1.5596,1.5873,1.533,1.5016,1.527,1.5077,1.5127,0.0,0.0,0.0,0.0,0.0,0.0,0.0,0.0,0.0,0.0,1.7582,1.7368,1.6914,0.0,1.678,1.6473,1.6339,1.6353,1.65,1.65,1.666,1.6941,1.7139,1.7367,1.7582,1.7582,1.7582,0.0,0.0,0.0,0.0,0.0,0.0,0.0,0.0,2.0711,2.1578,2.2944,2.386,2.4436,2.4184,2.4884,2.5707,2.5728,2.6237,2.6793,2.6954,2.6983,2.6471,2.4496,0.0,0.0,0.0,1.9828,1.9857,2.0998,2.1598,2.2608,2.4671,2.5988,2.7013,2.7788,2.8476,2.9017,2.9339,2.9661,2.9998,3.0401,3.0642,3.0817,3.0817,3.155,3.2046,3.2046,3.2854,3.374,3.4636,3.4636,3.5106,3.5994,3.6877,3.8249,3.9943,3.9943,4.0353,4.1172,4.1172,4.1172,4.1172,4.1172,4.1172,4.1172,4.1172,4.1172,4.1172,4.1172,4.1172,4.1172,4.1172,4.1172,4.1172,0.0,0.0,0.0,0.0,0.0,0.0,0.0,1.5934,1.5813,1.6223,1.5741,1.5342,1.5282,1.5221,1.5372,0.0,0.0,0.0,0.0,0.0,0.0,0.0,0.0,0.0,0.0,0.0,0.0,1.67,1.6941,0.0,0.0,0.0,0.0,0.0,1.6807,1.6927,1.7206,1.7259,1.742,0.0,0.0,0.0,0.0,0.0,0.0,0.0,0.0,0.0,0.0,0.0,1.9706,2.0922,2.2311,2.327,2.3732,2.344,2.4438,2.5582,2.5386,2.6137,2.6983,2.6983,2.6983,2.631,2.3706,2.3106,0.0,1.9798,1.9272,1.9667,2.0969,2.1247,2.1891,0.0,2.4979,2.5988,2.6866,2.7847,2.8739,0.0,2.9705,0.0,3.0407,3.0671,0.0,3.0817,3.0817,3.0817,3.0817,3.0817,3.1632,3.3347,3.3756,3.4799,3.6557,3.8329,3.9864,4.1172,4.1172,4.1172,4.1172,4.1172,4.1172,4.1172,4.1172,4.1172,4.1172,4.1172,4.1172,4.1172,4.1172,4.1172,4.1172,4.1172,4.1172,4.1172,0.0,0.0,0.0,0.0,0.0,0.0,0.0,1.626,1.6247,1.6272,1.6235,1.6103,1.5849,1.5608,1.5579,0.0,0.0,0.0,0.0,0.0,0.0,0.0,0.0,0.0,0.0,0.0,0.0,1.67,1.6727,0.0,0.0,0.0,0.0,0.0,0.0,1.7179,1.7219,1.7487,0.0,0.0,0.0,0.0,0.0,0.0,0.0,0.0,0.0,0.0,0.0,0.0,0.0,2.0708,2.0869,2.1425,2.2098,2.2802,0.0,0.0,2.5999,2.6605,2.6983,2.6983,2.6983,2.631,2.3706,0.0,2.2374,1.9798,1.9272,1.9667,2.0969,2.0516,2.0908,2.3632,2.3457,2.391,2.6617,2.7086,2.7817,2.9603,0.0,0.0,3.0715,3.0803,3.0817,3.0817,3.0817,3.0817,3.0817,3.0817,3.1632,3.3347,3.4961,3.6637,3.831,4.0118,4.1016,4.1172,4.1172,4.1172,4.1172,4.1172,4.1172,4.1172,4.1172,4.1172,0.0,4.1172,4.1172,4.1172,4.1172,4.1172,4.1172,4.1172,4.1172,4.1172,0.0,0.0,0.0,0.0,0.0,0.0,1.6235,1.6151,1.6175,1.6489,1.6392,1.6247,1.6139,1.6057,1.6036,1.6135,0.0,0.0,0.0,0.0,0.0,0.0,0.0,0.0,0.0,0.0,1.674,1.6446,1.6794,0.0,0.0,0.0,0.0,0.0,0.0,1.746,1.7474,0.0,0.0,0.0,0.0,0.0,0.0,0.0,0.0,0.0,0.0,0.0,1.8277,0.0,0.0,0.0,1.8878,1.926,0.0,0.0,2.2724,2.4062,2.4585,2.5667,2.6692,2.691,2.6983,2.631,2.3706,0.0,2.2374,1.9798,1.9272,1.9433,1.9945,1.9725,1.9974,2.1511,2.2096,0.0,2.5505,2.6676,2.8372,3.1145,3.0755,0.0,0.0,0.0,3.1233,3.2293,3.2376,3.2854,3.3903,3.2936,3.3183,3.4863,3.6637,3.7914,3.8566,4.0353,4.1172,4.1172,4.1172,4.1172,4.1172,4.1172,4.1172,4.1172,4.1172,4.1172,0.0,4.1172,4.1172,4.1172,4.1172,4.1172,4.1172,4.1172,4.1172,4.1172,0.0,0.0,0.0,0.0,0.0,1.5982,1.6235,1.6199,1.6272,1.6658,1.6598,1.6489,1.6416,1.6446,1.6468,1.6531,1.647,0.0,0.0,0.0,0.0,0.0,0.0,0.0,0.0,0.0,1.6433,1.6393,1.682,1.6994,0.0,0.0,1.7582,1.7582,0.0,0.0,0.0,0.0,0.0,0.0,0.0,0.0,0.0,0.0,0.0,0.0,0.0,0.0,0.0,0.0,0.0,0.0,0.0,0.0,0.0,0.0,2.1415,2.2838,2.3412,2.4744,2.6114,2.6692,2.6633,2.5842,0.0,0.0,2.192,1.9725,1.9272,1.9272,1.9272,1.9272,1.9491,2.0081,0.0,2.2286,2.4203,2.5871,2.7792,3.0313,0.0,3.0846,3.1972,3.1325,3.1715,3.3985,3.3674,3.4636,3.7374,3.5914,3.5511,3.6717,3.7993,3.8882,3.9374,4.0607,4.1172,4.1172,4.1172,4.1172,4.1172,4.1172,4.1172,4.1172,4.1172,4.1172,0.0,4.1172,4.1172,4.1172,4.1172,4.1172,4.1172,4.1172,4.1172,4.1172,0.0,0.0,0.0,0.0,0.0,0.0,1.6235,1.6513,1.6694,1.6706,1.6923,1.6984,1.6718,1.6729,1.6896,1.706,1.6871,0.0,0.0,0.0,0.0,0.0,0.0,0.0,0.0,0.0,1.6126,1.67,1.67,1.7007,1.7569,1.7582,1.7582,1.7582,0.0,0.0,0.0,0.0,0.0,0.0,0.0,0.0,0.0,0.0,0.0,0.0,0.0,0.0,0.0,0.0,0.0,0.0,0.0,0.0,0.0,0.0,2.0096,2.1197,2.2994,2.4259,2.5295,2.6156,2.5736,2.4797,0.0,0.0,2.0852,1.955,1.9272,1.9272,1.9272,1.9272,1.9491,2.0081,2.0197,0.0,2.2857,2.4525,2.5681,0.0,2.8618,2.9992,2.9027,3.0071,3.2196,3.5672,3.4392,0.0,4.0841,3.9453,3.8566,3.8566,3.8566,3.9453,4.1172,4.1172,4.1172,4.1172,4.1172,4.1172,4.1172,4.1172,4.1172,4.1172,4.1172,4.1172,0.0,4.1172,4.1172,4.1172,4.1172,4.1172,4.1172,4.1172,4.1172,4.1172,0.0,0.0,0.0,0.0,0.0,0.0,0.0,1.597,1.6211,1.6392,1.6489,1.6573,1.6682,1.6569,1.648,1.6556,1.6691,0.0,0.0,0.0,0.0,0.0,0.0,0.0,0.0,1.6233,1.6219,1.6406,1.6857,1.7152,1.734,1.7488,1.7582,1.7582,1.7582,1.7582,0.0,0.0,0.0,0.0,0.0,0.0,0.0,0.0,0.0,0.0,0.0,0.0,0.0,0.0,0.0,0.0,0.0,0.0,0.0,1.8036,1.8964,0.0,2.1129,2.2046,2.293,2.3671,2.3652,2.3145,2.2051,2.1496,2.0837,1.9535,1.9272,1.9272,1.9272,1.9272,1.9491,2.0081,2.0183,0.0,0.0,0.0,0.0,3.0447,3.2892,3.3177,0.0,0.0,3.3495,3.5833,3.6557,3.817,4.1094,4.0685,4.0353,4.0353,4.0353,4.0607,4.1172,4.1172,4.1172,4.1172,4.1172,4.1172,4.1172,4.1172,4.1172,4.1172,4.1172,4.1172,4.1172,4.1172,4.1172,4.1172,4.1172,4.1172,4.1172,4.1172,4.1172,4.1172,0.0,0.0,0.0,0.0,0.0,0.0,0.0,1.5572,1.5837,1.6103,1.6223,1.6392,1.667,1.6735,1.6825,1.6911,1.7146,0.0,0.0,0.0,0.0,0.0,0.0,0.0,1.6433,1.6219,1.6206,1.6433,1.6737,1.7045,1.7367,1.7434,1.7474,1.7474,1.7528,1.7462,0.0,0.0,0.0,0.0,0.0,0.0,1.7582,0.0,0.0,0.0,0.0,0.0,0.0,0.0,0.0,0.0,0.0,0.0,0.0,0.0,1.8116,1.8894,0.0,2.0602,2.1376,2.2284,2.2262,0.0,0.0,2.0837,2.0252,1.9447,1.9272,1.9272,1.9272,1.9272,1.9491,2.0081,2.0183,2.0779,0.0,0.0,2.7311,3.1739,3.3483,0.0,0.0,3.2786,3.4392,3.6797,3.7993,3.9374,4.1094,4.1172,4.1172,4.1172,4.1172,4.1172,4.1172,4.1172,4.1172,4.1172,4.1172,4.1172,4.1172,4.1172,4.1172,4.1172,4.1172,4.1172,0.0,4.1172,4.1172,4.1172,4.1172,4.1172,4.1172,4.1172,4.1172,4.1172,0.0,0.0,0.0,0.0,0.0,0.0,0.0,1.5306,1.5559,1.5825,1.6108,1.6363,1.6665,1.7166,1.7588,1.7868,0.0,0.0,0.0,0.0,0.0,0.0,0.0,0.0,1.6673,1.6179,1.6166,1.6673,1.6446,1.6804,1.7542,1.7326,1.7206,1.7206,1.7487,1.7248,1.6754,1.7085,1.7367,1.7582,1.7582,1.7582,0.0,0.0,0.0,0.0,0.0,0.0,0.0,0.0,0.0,0.0,0.0,0.0,0.0,0.0,0.0,0.0,0.0,1.973,2.0433,2.1567,0.0,0.0,2.1015,2.012,0.0,1.9324,1.9257,1.9242,1.9324,1.9272,1.9491,2.0081,2.0183,2.0574,2.1554,2.4394,2.7587,3.0667,3.1498,3.2304,3.3509,3.3591,3.4961,3.8329,3.8724,3.9453,4.1094,4.1172,4.1172,4.1172,4.1172,4.1172,4.1172,4.1172,4.1172,4.1172,4.1172,4.1172,4.1172,4.1172,4.1172,0.0,4.1172,4.1172,4.1172,4.1172,4.1172,4.1172,4.1172,4.1172,4.1172,4.1172,4.1172,4.1172,0.0,0.0,0.0,0.0,0.0,0.0,0.0,0.0,0.0,0.0,1.567,1.586,1.6353,1.6348,1.647,0.0,0.0,0.0,0.0,0.0,0.0,0.0,0.0,0.0,1.638,1.6737,1.6687,1.638,1.6804,1.7099,1.73,1.7233,1.7206,1.7206,1.7273,1.7233,1.7099,1.7166,1.7367,1.7582,1.7582,1.7582,0.0,0.0,0.0,0.0,1.7582,1.7582,0.0,0.0,0.0,0.0,0.0,0.0,0.0,0.0,1.7582,1.7649,1.7929,0.0,1.8428,1.9125,1.912,1.907,0.0,1.9301,1.8979,1.928,1.9081,1.8979,1.9228,1.9272,1.9491,2.0081,2.0183,2.0574,2.1554,2.668,3.0909,3.2239,3.3923,3.5066,3.5384,3.5388,3.6316,3.8487,3.9864,4.0763,4.1172,4.1172,4.1172,4.1172,4.1172,4.1172,4.1172,4.1172,4.1172,4.1172,4.1172,4.1172,4.1172,4.1172,4.1172,4.1172,4.1172,4.1172,4.1172,4.1172,4.1172,4.1172,4.1172,4.1172,4.1172,4.1172,4.1172,4.1172,0.0,0.0,0.0,0.0,0.0,0.0,0.0,0.0,0.0,0.0,0.0,1.5683,1.6058,1.61,0.0,0.0,0.0,0.0,0.0,0.0,0.0,0.0,0.0,1.6967,1.6737,1.6898,1.6794,1.6473,1.6513,1.6804,1.7192,1.6924,1.6871,1.6991,1.6857,1.6951,1.7206,1.7206,1.7367,1.7582,1.7582,0.0,0.0,0.0,0.0,0.0,1.7582,1.7582,0.0,1.7582,1.7582,1.7582,0.0,0.0,0.0,0.0,1.7582,1.7582,1.7582,1.7582,1.774,1.8265,1.8422,1.8579,1.9168,1.9023,1.8877,1.9213,1.9023,1.8891,1.9213,1.9456,1.9864,2.084,2.1846,2.3212,2.5375,3.029,3.3499,3.3174,3.5496,3.7197,0.0,3.7197,3.7914,3.9707,4.0685,4.1172,4.1172,4.1172,4.1172,4.1172,4.1172,4.1172,4.1172,4.1172,4.1172,4.1172,4.1172,4.1172,4.1172,4.1172,4.1172,4.1172,4.1172,4.1172,4.1172,4.1172,4.1172,4.1172,4.1172,4.1172,4.1172,4.1172,4.1172,4.1172,0.0,0.0,0.0,0.0,0.0,0.0,0.0,0.0,0.0,0.0,0.0,0.0,0.0,0.0,0.0,0.0,0.0,0.0,0.0,0.0,0.0,0.0,1.7582,1.7448,1.7206,1.6901,1.6727,1.6647,1.6139,1.6299,1.7125,1.6576,1.6406,1.6633,1.638,1.663,1.7139,1.7179,1.7367,1.7582,1.7582,0.0,0.0,0.0,0.0,0.0,0.0,0.0,0.0,1.7582,1.7582,1.7582,1.7582,0.0,0.0,0.0,0.0,0.0,1.7582,1.7635,1.7793,1.8265,1.8422,1.8579,1.9168,1.9023,1.8877,1.9213,1.9023,1.8964,1.9535,1.9925,2.0674,2.249,2.4327,2.6777,3.0338,3.3588,3.5265,3.4284,3.6785,0.0,3.8961,3.8724,3.9295,4.1094,4.1172,4.1172,4.1172,4.1172,4.1172,4.1172,4.1172,4.1172,4.1172,4.1172,4.1172,4.1172,4.1172,4.1172,4.1172,4.1172,4.1172,4.1172,4.1172,0.0,4.1172,4.1172,4.1172,4.1172,4.1172,4.1172,4.1172,4.1172,4.1172,4.1172,0.0,0.0,0.0,0.0,0.0,0.0,0.0,0.0,0.0,0.0,0.0,0.0,0.0,0.0,0.0,0.0,0.0,0.0,0.0,0.0,0.0,1.7582,1.7582,1.7448,1.7206,1.7152,1.6884,1.6339,1.6246,1.6393,1.6767,1.6433,1.6299,1.6339,1.6348,1.646,1.6794,1.7099,1.7367,1.7582,1.7582,0.0,0.0,0.0,0.0,0.0,0.0,0.0,0.0,1.7582,1.7582,1.7582,1.7582,0.0,0.0,0.0,0.0,0.0,1.7582,1.7753,1.8016,1.8318,1.8422,1.8579,1.9168,1.9023,1.8877,1.9213,1.9023,1.9316,2.1013,2.1364,2.2467,2.5721,2.6954,2.876,3.2108,3.3428,3.4953,3.7454,3.8287,3.9216,4.0685,3.9453,3.9295,4.1094,4.1172,4.1172,4.1172,4.1172,4.1172,4.1172,4.1172,4.1172,4.1172,4.1172,4.1172,4.1172,4.1172,4.1172,4.1172,4.1172,4.1172,4.1172,0.0,4.1172,4.1172,4.1172,4.1172,4.1172,4.1172,4.1172,4.1172,4.1172,4.1172,4.1172,0.0,0.0,0.0,0.0,0.0,0.0,0.0,0.0,0.0,0.0,0.0,0.0,0.0,0.0,0.0,0.0,0.0,0.0,0.0,0.0,1.7582,1.7582,1.7582,1.7515,1.7434,1.7125,1.678,1.6513,1.6353,1.642,1.67,1.6567,1.6339,1.6046,1.6206,1.6353,1.6486,1.678,1.7139,1.7393,0.0,0.0,0.0,0.0,0.0,0.0,0.0,0.0,0.0,0.0,1.7582,1.7582,1.7582,0.0,0.0,0.0,0.0,0.0,1.7542,1.7687,1.8061,1.9207,1.9088,1.8803,1.922,1.9023,1.8877,1.9213,1.952,2.0089,2.145,2.2303,2.4313,2.8826,3.111,3.3037,3.5007,3.6257,3.739,3.8481,3.9391,4.0353,4.1094,4.0509,4.0353,4.1172,4.1172,4.1172,4.1172,4.1172,4.1172,4.1172,4.1172,4.1172,4.1172,4.1172,4.1172,4.1172,4.1172,4.1172,4.1172,4.1172,4.1172,4.1172,0.0,4.1172,4.1172,4.1172,4.1172,4.1172,4.1172,4.1172,4.1172,4.1172,4.1172,4.1172,0.0,0.0,0.0,0.0,0.0,0.0,0.0,0.0,0.0,0.0,0.0,0.0,0.0,0.0,0.0,0.0,0.0,0.0,0.0,1.7474,1.7582,1.7582,1.7582,1.7582,1.7582,1.7074,1.678,1.67,1.6486,1.646,1.6607,1.6607,1.6326,1.5798,1.6139,1.6321,1.6335,1.658,1.6874,1.7206,0.0,0.0,0.0,0.0,0.0,0.0,0.0,0.0,0.0,0.0,0.0,0.0,0.0,0.0,0.0,1.7474,1.738,1.7246,1.7474,1.7581,1.8062,1.9556,1.958,1.9492,2.047,2.0243,1.9979,2.0593,2.1239,2.2048,2.3067,2.5168,2.7922,3.1635,3.4353,3.6494,3.7707,3.8709,3.9338,3.9202,4.0353,4.1172,4.1172,4.1172,4.1172,4.1172,4.1172,4.1172,4.1172,4.1172,4.1172,4.1172,4.1172,4.1172,4.1172,4.1172,4.1172,4.1172,4.1172,4.1172,4.1172,4.1172,4.1172,4.1172,4.1172,4.1172,4.1172,4.1172,4.1172,4.1172,4.1172,4.1172,4.1172,4.1172,4.1172,4.1172,0.0,0.0,0.0,0.0,0.0,0.0,0.0,0.0,0.0,0.0,0.0,0.0,0.0,0.0,0.0,0.0,0.0,0.0,0.0,1.7474,1.7582,1.7582,1.7582,1.7582,1.7582,1.7326,1.7032,1.67,1.6687,1.654,1.6348,1.6348,1.6139,1.5798,1.6139,1.6321,1.6335,1.658,1.6874,1.7206,1.7206,0.0,0.0,0.0,0.0,0.0,0.0,0.0,0.0,0.0,0.0,0.0,0.0,0.0,1.7206,1.7233,1.7219,1.7206,1.7233,1.759,1.803,1.8429,1.9415,2.1133,2.4272,2.3841,2.3228,2.4693,2.5298,2.607,2.7653,3.196,3.4866,3.3684,3.5027,3.6998,3.937,3.8557,3.8534,4.0744,4.1094,4.1172,4.1172,4.1172,4.1172,4.1172,4.1172,4.1172,4.1172,4.1172,4.1172,4.1172,4.1172,4.1172,4.1172,4.1172,4.1172,4.1172,4.1172,4.1172,4.1172,4.1172,4.1172,4.1172,4.1172,4.1172,4.1172,4.1172,4.1172,4.1172,4.1172,4.1172,4.1172,4.1172,4.1172,4.1172,0.0,0.0,0.0,0.0,0.0,0.0,0.0,0.0,0.0,0.0,0.0,0.0,0.0,0.0,0.0,0.0,0.0,0.0,0.0,1.7315,1.7582,1.7582,1.7582,1.7582,1.7582,1.7353,1.7058,1.67,1.6526,1.638,1.6321,1.6321,1.6112,1.5832,1.5952,1.5992,1.6005,1.6112,1.6326,1.6656,1.6656,1.6938,0.0,0.0,0.0,0.0,0.0,0.0,0.0,0.0,1.7582,1.7555,1.742,1.7166,1.6874,1.6874,1.6874,1.6914,1.7152,1.8171,1.9654,2.1712,2.2008,2.2014,2.263,2.3671,2.444,2.4023,2.559,2.7824,3.0648,3.3086,3.4759,3.5139,3.6584,3.8204,3.969,3.9335,3.9567,4.0996,4.1172,4.1172,4.1172,4.1172,4.1172,4.1172,4.1172,4.1172,4.1172,4.1172,4.1172,4.1172,4.1172,4.1172,4.1172,4.1172,4.1172,4.1172,4.1172,4.1172,4.1172,4.1172,4.1172,4.1172,4.1172,4.1172,4.1172,4.1172,4.1172,4.1172,4.1172,4.1172,4.1172,4.1172,4.1172,4.1172,0.0,0.0,0.0,0.0,0.0,0.0,0.0,0.0,0.0,0.0,0.0,0.0,0.0,0.0,0.0,0.0,0.0,0.0,1.6834,1.7315,1.7582,1.7582,1.7582,1.7582,1.7582,1.7434,1.7192,1.6847,1.646,1.6321,1.6321,1.6179,1.6019,1.5784,1.5784,1.5784,1.5784,1.5784,1.6005,1.6321,1.6321,1.6616,0.0,0.0,0.0,0.0,0.0,0.0,0.0,0.0,1.7301,1.7275,1.7125,1.6807,1.658,1.6687,1.67,1.6767,1.7125,1.8863,2.1148,2.3378,2.4687,2.5031,2.3445,2.4299,2.5404,2.5296,2.7794,3.074,3.3403,3.4647,3.5463,3.6013,3.7552,3.8887,3.9766,3.9902,4.0215,4.1074,4.1172,4.1172,4.1172,4.1172,4.1172,4.1172,4.1172,4.1172,4.1172,4.1172,4.1172,4.1172,4.1172,4.1172,4.1172,4.1172,4.1172,4.1172,4.1172,4.1172,4.1172,4.1172,4.1172,4.1172,4.1172,4.1172,4.1172,4.1172,4.1172,4.1172,4.1172,4.1172,4.1172,4.1172,4.1172,4.1172,0.0,0.0,0.0,0.0,0.0,0.0,0.0,0.0,0.0,0.0,0.0,0.0,0.0,0.0,0.0,0.0,0.0,0.0,1.7179,1.7474,1.7582,1.7582,1.7582,1.7582,1.7582,1.7582,1.7487,1.7206,1.6616,1.6321,1.6308,1.5965,1.5784,1.5784,1.5784,1.5784,1.5784,1.5784,1.6005,1.6321,1.6321,1.6446,1.67,0.0,0.0,0.0,0.0,0.0,0.0,0.0,1.67,1.67,1.67,1.65,1.6326,1.662,1.6714,1.678,1.7139,1.9675,2.2281,2.2595,2.7021,3.0678,2.7932,2.6358,2.6327,2.9438,3.2695,3.5213,3.5898,3.7422,3.8027,3.6328,3.7461,3.8887,3.9766,3.9902,4.0215,4.1074,4.1172,4.1172,4.1172,4.1172,4.1172,4.1172,4.1172,4.1172,4.1172,4.1172,4.1172,4.1172,4.1172,4.1172,4.1172,4.1172,4.1172,4.1172,4.1172,4.1172,4.1172,4.1172,4.1172,4.1172,4.1172,4.1172,4.1172,4.1172,4.1172,4.1172,4.1172,4.1172,4.1172,4.1172,4.1172,4.1172,0.0,0.0,0.0,0.0,0.0,0.0,0.0,0.0,0.0,0.0,0.0,0.0,0.0,0.0,0.0,0.0,0.0,0.0,1.6834,1.7301,1.7582,1.7582,1.7582,1.7582,1.7582,1.7582,1.7487,1.7206,1.6616,1.6321,1.6308,1.5965,1.5784,1.5784,1.5784,1.5784,1.5784,1.5784,1.5885,1.5965,1.5965,1.6139,1.6406,0.0,0.0,0.0,0.0,0.0,0.0,0.0,0.0,0.0,1.646,1.6339,1.6335,1.638,1.7141,1.8023,1.8317,2.1653,2.5373,2.6498,2.7665,2.8922,3.0447,3.0089,2.9566,2.9859,3.2012,3.4252,3.5731,3.6461,3.714,3.7747,3.8242,3.8887,3.9766,3.9902,4.0215,4.1074,4.1172,4.1172,4.1172,4.1172,4.1172,4.1172,4.1172,4.1172,4.1172,4.1172,4.1172,4.1172,4.1172,4.1172,4.1172,4.1172,4.1172,4.1172,4.1172,4.1172,4.1172,4.1172,4.1172,4.1172,4.1172,4.1172,4.1172,4.1172,4.1172,4.1172,4.1172,4.1172,4.1172,4.1172,4.1172,4.1172,0.0,0.0,0.0,0.0,0.0,0.0,0.0,0.0,0.0,0.0,1.5784,1.5784,0.0,0.0,0.0,0.0,0.0,0.0,1.6874,1.7315,1.7582,1.7582,1.7582,1.7582,1.7582,1.7582,1.7502,1.738,1.6898,1.6549,1.6321,1.6086,1.5939,1.5784,1.5784,1.5784,1.5784,1.5784,1.5784,1.5784,1.5784,1.5939,1.6099,0.0,0.0,0.0,0.0,0.0,0.0,0.0,0.0,0.0,1.6152,1.6099,1.6139,1.638,1.7863,1.9485,1.9878,2.3994,2.8378,2.9296,3.0157,3.1123,3.245,3.2283,3.1921,3.2057,3.3734,3.5539,3.6778,3.7062,3.7438,3.8428,3.8574,3.8887,3.9766,3.9902,4.0215,4.1074,4.1172,4.1172,4.1172,4.1172,4.1172,4.1172,4.1172,4.1172,4.1172,4.1172,4.1172,4.1172,4.1172,4.1172,4.1172,4.1172,4.1172,4.1172,4.1172,4.1172,4.1172,4.1172,4.1172,4.1172,4.1172,4.1172,4.1172,4.1172,4.1172,4.1172,4.1172,4.1172,4.1172,4.1172,4.1172,4.1172,0.0,0.0,0.0,0.0,0.0,0.0,0.0,0.0,0.0,0.0,1.5784,1.5784,0.0,0.0,0.0,0.0,0.0,0.0,0.0,1.7408,1.7582,1.7582,1.7582,1.7582,1.7582,1.7582,1.7582,1.7582,1.734,1.6911,1.6362,1.6335,1.6112,1.5784,1.5784,1.5784,1.5784,1.5784,1.5784,1.5784,1.5784,1.5784,1.5784,1.5784,0.0,0.0,0.0,0.0,0.0,0.0,0.0,0.0,1.5784,1.5879,1.6034,1.654,1.8665,2.1012,2.1699,2.6266,3.0861,3.1071,3.3567,3.5558,3.3869,3.3424,3.368,3.4879,3.6641,3.8066,3.8301,3.8476,3.8574,3.8574,3.8574,3.8887,3.9766,3.9902,4.0215,4.1074,4.1172,4.1172,4.1172,4.1172,4.1172,4.1172,4.1172,4.1172,4.1172,4.1172,4.1172,4.1172,4.1172,4.1172,4.1172,4.1172,4.1172,4.1172,4.1172,4.1172,4.1172,4.1172,4.1172,4.1172,4.1172,4.1172,4.1172,4.1172,4.1172,4.1172,4.1172,4.1172,4.1172,4.1172,4.1172,4.1172,0.0,0.0,0.0,0.0,0.0,0.0,0.0,0.0,0.0,0.0,0.0,0.0,0.0,0.0,0.0,0.0,0.0,0.0,0.0,1.7288,1.7582,1.7582,1.7582,1.7582,1.7582,1.7582,1.7582,1.7582,1.734,1.7018,1.6607,1.638,1.6112,1.5784,1.5784,1.5784,1.5784,1.5784,1.5784,1.5784,1.5784,1.5784,1.5784,1.5784,1.5784,0.0,0.0,0.0,0.0,0.0,0.0,0.0,1.5784,1.6339,1.6938,1.6724,1.8925,2.172,2.311,2.6843,3.0722,3.2291,3.4395,3.5655,3.4483,3.5294,3.5724,3.3398,3.584,3.8047,3.6797,3.7676,3.8574,3.8574,3.8574,3.8887,3.9766,3.9902,4.0215,4.1074,4.1172,4.1172,4.1172,4.1172,4.1172,4.1172,4.1172,4.1172,4.1172,4.1172,4.1172,4.1172,4.1172,4.1172,4.1172,4.1172,4.1172,4.1172,4.1172,4.1172,4.1172,4.1172,4.1172,4.1172,4.1172,4.1172,4.1172,4.1172,4.1172,4.1172,4.1172,4.1172,4.1172,4.1172,4.1172,4.1172,0.0,0.0,0.0,0.0,0.0,0.0,0.0,0.0,0.0,0.0,0.0,0.0,0.0,0.0,0.0,0.0,0.0,0.0,0.0,0.0,1.7582,1.7582,1.7582,1.7582,1.7582,1.7582,1.7582,1.7582,1.7487,1.7259,1.6914,1.662,1.6326,1.6032,1.5885,1.5784,1.5784,1.5784,1.5784,1.5784,1.5784,1.5784,1.5784,1.5784,1.5738,1.5692,1.6297,0.0,0.0,0.0,0.0,0.0,0.0,0.0,1.8023,1.7945,2.0194,2.3119,2.5031,2.8383,3.1791,3.3972,0.0,3.5928,3.5572,3.6412,3.6855,3.5254,3.6875,3.8301,3.7402,3.7969,3.8574,3.8574,3.8574,3.8887,3.9766,3.9902,4.0215,4.1074,4.1172,4.1172,4.1172,4.1172,4.1172,4.1172,4.1172,4.1172,4.1172,4.1172,4.1172,4.1172,4.1172,4.1172,4.1172,4.1172,4.1172,4.1172,4.1172,4.1172,4.1172,4.1172,4.1172,4.1172,4.1172,4.1172,4.1172,4.1172,4.1172,4.1172,4.1172,4.1172,4.1172,4.1172,4.1172,4.1172,0.0,0.0,0.0,0.0,0.0,0.0,0.0,0.0,0.0,0.0,0.0,0.0,0.0,0.0,0.0,0.0,0.0,0.0,0.0,0.0,0.0,1.7582,1.7582,1.7582,1.7582,1.7582,1.7582,1.7582,1.7582,1.7514,1.7273,1.6914,1.6593,1.6308,1.6019,1.5824,1.5784,1.5784,1.5758,1.5752,1.5893,1.5987,1.6035,1.6176,1.6058,1.6017,1.7162,1.7383,1.7281,1.844,0.0,0.0,0.0,0.0,1.8859,1.9209,2.123,2.3965,2.6271,2.972,3.3123,3.5451,3.6016,0.0,3.666,3.7051,3.7441,3.793,3.832,3.8574,3.8574,3.8574,3.8574,3.8574,3.8574,3.8887,3.9766,3.9902,4.0215,4.1074,4.1172,4.1172,4.1172,4.1172,4.1172,4.1172,4.1172,4.1172,4.1172,4.1172,4.1172,4.1172,4.1172,4.1172,4.1172,4.1172,4.1172,4.1172,4.1172,4.1172,4.1172,4.1172,4.1172,4.1172,4.1172,4.1172,4.1172,4.1172,4.1172,4.1172,4.1172,4.1172,4.1172,4.1172,4.1172,4.1172,0.0,0.0,0.0,0.0,0.0,0.0,0.0,0.0,0.0,0.0,1.7179,1.7018,0.0,0.0,0.0,0.0,0.0,0.0,0.0,0.0,0.0,1.7582,1.7582,1.7582,1.7582,1.7582,1.7582,1.7582,1.7582,1.7569,1.7515,1.7273,1.6844,1.6321,1.6233,1.6072,1.5784,1.5784,1.5685,1.5504,1.626,1.6658,1.6841,1.7583,1.7869,1.7869,1.8394,1.8345,1.811,1.8639,1.8796,0.0,0.0,0.0,1.8905,1.9381,2.0523,2.2114,2.4739,0.0,3.3444,0.0,3.6016,3.623,0.0,0.0,3.7519,0.0,3.8535,3.8574,3.8574,3.8574,3.8574,3.8574,3.8574,3.8887,3.9766,3.9902,4.0215,4.1074,4.1172,4.1172,4.1172,4.1172,4.1172,4.1172,4.1172,4.1172,4.1172,4.1172,4.1172,4.1172,4.1172,4.1172,4.1172,4.1172,4.1172,4.1172,4.1172,4.1172,4.1172,4.1172,4.1172,4.1172,4.1172,4.1172,4.1172,4.1172,4.1172,4.1172,4.1172,4.1172,4.1172,4.1172,4.1172,4.1172,0.0,0.0,0.0,0.0,0.0,0.0,0.0,0.0,0.0,0.0,0.0,1.7206,0.0,0.0,0.0,1.67,0.0,0.0,0.0,0.0,0.0,1.7582,1.7582,1.7582,1.7582,1.7582,1.7582,1.7582,1.7582,1.7582,1.7582,1.7501,1.7074,1.6513,1.6339,1.6112,1.5784,1.5784,1.5939,1.6172,1.6355,1.6636,1.7085,1.7796,1.7978,1.8034,1.9517,1.9822,1.9594,2.0525,2.0844,2.0844,2.0844,0.0,0.0,0.0,2.1661,2.2832,2.5633,2.9698,3.3403,0.0,3.5488,3.6543,3.7168,3.748,3.7832,3.8457,3.8574,3.8574,3.8574,3.8574,3.8574,3.8574,3.8574,3.8789,3.9414,3.9726,4.0117,4.0742,4.1035,4.1172,4.1172,4.1172,4.1172,4.1172,4.1172,4.1172,4.1172,4.1172,4.1172,4.1172,4.1172,4.1172,4.1172,4.1172,4.1172,4.1172,4.1172,4.1172,4.1172,4.1172,4.1172,4.1172,4.1172,4.1172,4.1172,4.1172,4.1172,4.1172,4.1172,4.1172,4.1172,4.1172,4.1172,4.1172,0.0,0.0,0.0,0.0,0.0,0.0,0.0,0.0,0.0,0.0,0.0,0.0,0.0,0.0,0.0,0.0,1.7179,0.0,0.0,0.0,0.0,1.7582,1.7582,1.7582,1.7582,1.7582,1.7582,1.7582,1.7582,1.7582,1.7582,1.7582,1.7315,1.6807,1.6513,1.6219,1.5939,1.5826,1.6183,1.6828,1.6788,1.7249,1.8034,1.8819,1.9014,1.906,2.0889,2.1318,2.116,2.2108,2.2397,2.2397,2.2397,2.2246,0.0,0.0,0.0,2.3698,0.0,0.0,3.2046,3.2984,3.4648,3.623,0.0,0.0,3.8047,0.0,3.8574,3.8574,3.8574,3.8574,3.8574,3.8574,3.8574,3.873,3.9141,3.9609,4.0059,4.0469,4.0898,4.1172,4.1172,4.1172,4.1172,4.1172,4.1172,4.1172,4.1172,4.1172,4.1172,4.1172,4.1172,4.1172,4.1172,4.1172,4.1172,4.1172,4.1172,4.1172,4.1172,4.1172,4.1172,4.1172,4.1172,4.1172,4.1172,4.1172,4.1172,4.1172,4.1172,4.1172,4.1172,4.1172,4.1172,4.1172,0.0,0.0,0.0,0.0,0.0,0.0,0.0,0.0,0.0,0.0,0.0,0.0,1.7942,1.7729,1.7542,1.7542,1.7555,1.7569,1.7582,1.7582,0.0,1.7582,1.7582,0.0,1.7582,1.7582,1.7582,1.7582,1.7582,1.7582,1.7582,1.7582,1.7474,1.7166,1.682,1.6526,1.6268,1.5892,1.6264,1.7221,1.7994,1.9107,2.0455,2.1787,2.2264,2.2302,2.2787,2.2718,2.2378,2.2397,2.2397,2.2397,2.2397,2.1784,2.132,0.0,0.0,0.0,0.0,2.7033,0.0,3.1951,3.3535,0.0,0.0,0.0,3.8047,3.8476,3.8574,3.8574,3.8574,3.8574,3.8574,3.8574,3.8574,3.873,3.9141,3.9609,4.0059,4.0469,4.0898,4.1172,4.1172,4.1172,4.1172,4.1172,4.1172,4.1172,4.1172,4.1172,4.1172,4.1172,4.1172,4.1172,4.1172,4.1172,4.1172,4.1172,4.1172,4.1172,4.1172,4.1172,4.1172,4.1172,4.1172,4.1172,4.1172,4.1172,4.1172,4.1172,4.1172,4.1172,4.1172,4.1172,4.1172,4.1172,0.0,0.0,0.0,0.0,0.0,0.0,0.0,0.0,0.0,0.0,0.0,0.0,0.0,1.7769,1.7582,1.7582,1.7582,1.7582,1.7582,1.7582,0.0,1.7582,1.7582,1.7582,1.7582,1.7582,1.7582,1.7582,1.7582,1.7582,1.7582,1.7582,1.7528,1.7408,1.6927,1.6652,1.6586,1.655,1.7221,1.8313,1.8759,1.978,2.1139,2.1747,2.234,2.3028,2.4622,2.5286,2.5557,2.664,2.6098,2.4996,2.4996,2.3752,2.2403,2.2882,2.3304,0.0,0.0,0.0,0.0,2.8715,3.0781,3.2637,3.3418,3.5195,3.6758,3.6894,3.7812,3.8574,3.8574,3.8574,3.8574,3.8574,3.8574,3.8633,3.8769,3.9434,3.9961,4.0098,4.0742,4.1172,4.1172,4.1172,4.1172,4.1172,4.1172,4.1172,4.1172,4.1172,4.1172,4.1172,4.1172,4.1172,4.1172,4.1172,4.1172,4.1172,4.1172,4.1172,4.1172,4.1172,4.1172,4.1172,4.1172,4.1172,4.1172,4.1172,4.1172,4.1172,4.1172,4.1172,4.1172,4.1172,4.1172,4.1172,0.0,0.0,0.0,0.0,0.0,0.0,0.0,0.0,1.7969,1.8156,0.0,0.0,0.0,0.0,1.7582,1.7582,1.7582,1.7582,1.7582,1.7582,1.7582,1.7582,1.7582,1.7582,1.7582,1.7582,1.7582,1.7582,1.7582,1.7582,1.7582,1.7582,1.7832,1.8224,1.7775,1.7365,1.7105,1.7244,1.8105,1.9543,1.979,2.0695,2.2091,2.3289,2.4003,2.4646,2.6885,2.7851,2.8242,2.9238,2.8242,2.6582,2.6426,2.4883,2.3101,2.3101,2.3296,2.3574,2.3574,0.0,0.0,0.0,0.0,3.0625,3.1348,0.0,3.5859,3.5996,3.7383,3.8574,3.8574,3.8574,3.8574,3.8574,3.8574,3.8574,3.8574,3.9199,3.9726,3.9883,4.0527,4.1016,4.1152,4.1172,4.1172,4.1172,4.1172,0.0,4.1172,4.1172,4.1172,4.1172,4.1172,4.1172,4.1172,4.1172,4.1172,4.1172,4.1172,4.1172,4.1172,4.1172,4.1172,4.1172,4.1172,4.1172,4.1172,4.1172,4.1172,4.1172,4.1172,4.1172,4.1172,4.1172,4.1172,4.1172,0.0,0.0,0.0,0.0,0.0,0.0,0.0,0.0,1.7582,1.7582,0.0,0.0,0.0,0.0,0.0,1.7582,1.7582,1.7582,1.7582,1.7582,1.7582,1.7582,0.0,0.0,1.7582,1.7582,1.7582,1.7582,1.7582,1.7582,1.7582,1.7635,1.8356,1.9561,1.9349,1.879,1.7927,1.7888,1.8968,2.075,2.1126,2.2076,2.351,2.6582,2.748,2.7402,2.9512,3.0273,3.0234,2.9883,2.8574,2.6992,2.6465,2.4844,2.3101,2.3101,2.3101,2.3101,0.0,0.0,0.0,0.0,0.0,0.0,3.0937,0.0,3.5391,3.5918,3.7344,3.8516,3.8555,3.8574,3.8574,3.8574,3.8574,3.8574,3.8574,3.8945,3.9375,3.9844,4.0273,4.0684,4.1133,4.1172,4.1172,4.1172,4.1172,4.1172,4.1172,4.1172,4.1172,4.1172,4.1172,4.1172,4.1172,4.1172,4.1172,4.1172,4.1172,4.1172,4.1172,4.1172,4.1172,4.1172,4.1172,4.1172,4.1172,4.1172,4.1172,4.1172,4.1172,4.1172,4.1172,4.1172,4.1172,4.1172,0.0,0.0,0.0,0.0,0.0,1.7582,1.7582,1.7582,1.7582,0.0,0.0,0.0,1.7582,1.7582,1.7582,1.7582,1.7582,1.7582,1.7582,1.7582,1.7582,1.7582,1.7582,1.7582,1.7582,1.7582,1.7582,1.7582,1.7582,1.7582,1.7635,1.8603,1.8812,1.8527,2.046,2.01,1.8225,1.939,2.013,2.0692,2.3081,2.4617,2.5742,2.8144,2.9375,3.0019,3.1523,3.2266,3.2695,3.3848,3.1836,2.8301,2.5059,2.3588,2.3101,2.3101,2.3101,2.3101,2.3101,0.0,0.0,0.0,0.0,0.0,0.0,0.0,3.2461,3.541,3.6387,3.7109,3.834,3.8574,3.8574,3.8574,3.8574,3.8574,3.8574,3.8945,3.9375,3.9844,4.0273,4.0684,4.1133,4.1172,4.1172,0.0,4.1172,4.1172,4.1172,4.1172,4.1172,4.1172,4.1172,4.1172,4.1172,4.1172,4.1172,4.1172,4.1172,4.1172,4.1172,4.1172,4.1172,4.1172,4.1172,4.1172,4.1172,4.1172,4.1172,4.1172,4.1172,4.1172,4.1172,4.1172,4.1172,4.1172,0.0,0.0,0.0,0.0,0.0,1.7582,1.7582,1.7582,1.7582,0.0,0.0,0.0,1.7582,1.7582,1.7582,1.7582,1.7582,1.7582,1.7582,1.7582,1.7582,1.7582,1.7582,1.7582,1.7582,1.7582,1.7582,1.7582,1.7582,1.7582,1.7635,1.8408,1.902,1.9591,2.0708,2.0949,2.0537,2.0873,2.1361,2.1957,2.3666,2.5234,2.6914,2.9238,3.0332,3.0918,3.3281,3.4414,3.4922,3.5957,3.4141,3.0605,2.5742,2.459,2.4844,2.39,2.3627,2.3627,2.3627,2.3848,2.4043,2.4043,0.0,0.0,2.75,2.8945,3.0879,3.4238,3.4941,3.5469,3.7187,3.6914,3.666,3.7383,3.75,3.7754,3.8476,3.8789,3.9101,3.9551,4.0,4.043,4.0859,4.1074,4.1172,4.1172,4.1172,4.1172,4.1172,4.1172,4.1172,4.1172,4.1172,4.1172,4.1172,4.1172,4.1172,4.1172,4.1172,4.1172,4.1172,4.1172,4.1172,4.1172,4.1172,4.1172,4.1172,4.1172,4.1172,4.1172,4.1172,4.1172,4.1172,4.1172,4.1172,4.1172,0.0,0.0,1.7582,1.7582,1.7582,1.7582,1.7582,1.7582,1.7582,0.0,1.7582,1.7582,1.7582,1.7582,1.7582,1.7582,1.7582,1.7582,1.7582,1.7582,1.7582,1.7582,1.7582,1.7582,1.7582,1.7582,1.7582,1.7582,1.7582,1.7582,1.7635,1.7884,1.9213,2.1304,2.0845,2.1637,2.3255,2.2184,2.2594,2.3922,2.3801,2.5273,2.7871,3.0527,3.1269,3.1367,3.4902,3.6406,3.668,3.625,3.5195,3.3125,2.7715,2.6816,2.7344,2.5371,2.4629,2.4473,2.4434,2.4453,2.4492,2.4492,2.4824,0.0,2.6445,2.7988,3.0,3.2773,3.3203,3.3613,3.541,3.4473,3.3926,3.5469,3.5898,3.6621,3.834,3.8574,3.873,3.9141,3.957,4.0,4.0469,4.0879,4.1113,4.1172,4.1172,4.1172,4.1172,4.1172,4.1172,4.1172,4.1172,4.1172,4.1172,4.1172,4.1172,4.1172,4.1172,4.1172,4.1172,4.1172,4.1172,4.1172,4.1172,4.1172,4.1172,4.1172,4.1172,4.1172,4.1172,4.1172,4.1172,4.1172,4.1172,4.1172,0.0,1.7582,1.7582,1.7582,1.7582,1.7582,1.7582,1.7582,1.7582,1.7582,1.7582,1.7582,1.7582,1.7582,1.7582,1.7582,1.7582,1.7582,1.7582,1.7582,1.7582,1.7582,1.7582,1.7582,1.7582,1.7582,1.7582,1.7582,1.7582,1.7582,1.7635,1.987,2.0231,1.9228,2.2935,2.2937,2.0339,2.2436,2.3937,2.5008,2.6666,2.8848,3.1484,3.4434,3.5488,3.5547,3.666,3.7109,3.6699,3.3574,3.3203,3.334,2.9121,2.7969,2.8008,2.7266,2.6035,2.4863,2.4512,2.4668,2.4941,2.4941,2.5273,0.0,2.7988,2.7695,2.8125,3.2109,3.1797,3.1465,3.3535,3.3652,3.3535,3.3867,3.5098,3.6621,3.834,3.8574,3.873,3.9141,3.9277,3.9648,4.0449,4.0605,4.0801,4.1152,4.1172,4.1172,4.1172,4.1172,4.1172,4.1172,4.1172,4.1172,4.1172,4.1172,4.1172,4.1172,4.1172,4.1172,4.1172,4.1172,4.1172,4.1172,4.1172,4.1172,4.1172,4.1172,4.1172,4.1172,4.1172,4.1172,4.1172,4.1172,4.1172,4.1172,1.7582,1.7582,1.7582,1.7582,1.7582,1.7582,1.7582,1.7582,1.7582,1.7582,1.7582,1.7582,1.7582,1.7582,1.7582,1.7582,1.7582,1.7582,1.7582,1.7582,1.7582,1.7582,1.7582,1.7582,1.7582,1.7582,1.7582,1.7582,1.8146,1.8461,1.8603,2.004,2.0956,2.1409,2.2569,2.2885,2.2613,2.4201,2.6104,2.7959,2.7752,2.9336,3.2129,3.4707,3.5684,3.582,3.6914,3.7441,3.7207,3.4629,3.4336,3.4512,3.1484,2.9941,2.9121,2.8476,2.707,2.5625,2.5195,2.5234,2.541,2.541,2.5566,0.0,0.0,2.6992,2.7305,3.0527,2.9805,2.9199,3.1152,3.0801,3.0586,3.1641,3.2539,3.3789,3.5723,3.748,3.8652,3.8867,3.9082,3.9473,4.0156,4.0391,4.0703,4.1133,4.1172,4.1172,4.1172,4.1172,4.1172,4.1172,4.1172,4.1172,4.1172,4.1172,4.1172,4.1172,4.1172,4.1172,4.1172,4.1172,4.1172,4.1172,4.1172,4.1172,4.1172,4.1172,4.1172,4.1172,4.1172,4.1172,4.1172,4.1172,4.1172,4.1172,1.7582,1.7582,1.7582,1.7582,1.7582,1.7582,1.7582,1.7582,1.7582,1.7582,1.7635,1.7756,1.7983,1.7862,1.7849,1.8076,1.7889,1.7729,1.7675,1.7662,1.7635,1.7582,1.7582,1.7582,1.7582,1.7582,1.7582,1.7582,1.8461,1.902,1.9228,1.9813,2.1206,2.322,2.2128,2.3131,2.5705,2.6327,2.829,3.0859,2.918,2.9961,3.2363,3.4512,3.5117,3.5078,3.6894,3.7754,3.7832,3.6484,3.623,3.6094,3.3672,3.1953,3.0586,0.0,0.0,0.0,2.583,2.5693,2.5693,2.5693,2.5693,2.5791,0.0,0.0,0.0,2.8594,0.0,0.0,0.0,0.0,0.0,0.0,0.0,0.0,0.0,3.541,0.0,3.7578,3.7891,3.8398,3.9199,4.0039,4.0703,4.1133,4.1172,4.1172,4.1172,4.1172,4.1172,4.1172,4.1172,4.1172,4.1172,4.1172,4.1172,4.1172,4.1172,4.1172,4.1172,4.1172,4.1172,4.1172,4.1172,4.1172,4.1172,4.1172,4.1172,4.1172,4.1172,4.1172,4.1172,4.1172,4.1172,4.1172,1.7582,1.7582,1.7582,1.7582,1.7582,1.7582,1.7582,1.7582,1.7582,1.7582,1.7822,1.8342,1.9439,1.8851,1.8798,1.984,1.8985,1.8277,1.7955,1.7983,1.7849,1.7595,1.7582,1.7582,1.7582,1.7582,1.7582,1.7582,1.774,1.7793,1.7884,2.0333,2.0778,1.9725,2.3885,2.5681,2.5743,2.771,2.9692,3.1582,3.3184,3.4043,3.457,3.6738,3.6621,3.5586,3.7676,3.8457,3.8242,3.6582,3.7031,3.7715,3.4394,3.3223,3.2578,3.0195,0.0,0.0,0.0,0.0,2.5693,2.5693,2.5693,2.5693,2.5752,0.0,2.5996,2.6621,0.0,0.0,0.0,0.0,0.0,0.0,0.0,0.0,2.9004,3.1836,3.4004,3.4004,3.4043,3.4863,3.6836,3.9141,4.0703,4.1133,4.1172,4.1172,4.1172,4.1172,4.1172,4.1172,4.1172,4.1172,4.1172,4.1172,4.1172,4.1172,4.1172,4.1172,4.1172,4.1172,4.1172,4.1172,4.1172,4.1172,4.1172,4.1172,4.1172,4.1172,4.1172,4.1172,4.1172,4.1172,4.1172,4.1172,1.7582,1.7582,1.7582,1.7582,1.7582,1.7582,1.7582,1.7582,1.7582,1.7582,1.7702,1.829,1.9653,1.8704,1.8851,2.1056,2.0027,1.9559,2.0281,1.9533,1.9372,2.0107,1.849,1.7983,1.8851,1.8023,1.7898,1.8513,1.9332,2.0143,2.0947,2.2232,2.2993,2.3341,2.5798,2.7281,2.8127,3.1339,3.2519,3.2441,3.459,3.4863,3.4277,3.7187,3.7851,3.7363,3.8262,3.8574,3.8457,3.7754,3.7324,0.0,0.0,0.0,0.0,3.125,0.0,0.0,0.0,0.0,0.0,0.0,0.0,0.0,2.6348,0.0,2.5752,0.0,0.0,0.0,0.0,0.0,0.0,0.0,2.7168,0.0,0.0,0.0,3.0449,0.0,0.0,0.0,3.6797,3.7109,3.7851,3.9531,3.9434,3.9394,3.9648,4.0625,4.1172,4.1172,4.1172,4.1172,4.1172,4.1172,4.1172,4.1172,4.1172,4.1172,4.1172,4.1172,4.1172,4.1172,4.1172,4.1172,4.1172,4.1172,4.1172,4.1172,4.1172,4.1172,4.1172,4.1172,4.1172,4.1172,1.7582,1.7582,1.7582,1.7582,1.7582,1.7582,1.7582,1.7582,1.7582,1.7582,1.7662,1.8397,2.0201,1.9225,1.9586,2.2458,2.1443,2.1056,2.2044,2.0735,2.0535,2.1924,1.9546,1.8691,1.9773,1.8744,1.8413,1.876,1.9797,2.081,2.1878,2.2752,2.3767,2.4979,2.6539,2.8255,3.0238,3.3467,3.4668,3.4512,3.6094,3.5957,3.5059,3.709,3.8164,3.8574,3.8574,3.8652,3.875,3.875,3.8008,3.7226,3.7988,3.5664,3.2656,0.0,0.0,0.0,2.9766,0.0,0.0,0.0,0.0,0.0,0.0,0.0,0.0,0.0,0.0,0.0,0.0,0.0,0.0,0.0,0.0,2.6367,0.0,2.6719,0.0,0.0,0.0,0.0,0.0,3.4922,3.541,3.7539,3.7402,3.7617,3.8535,3.9785,4.0684,4.1152,4.1172,4.1172,4.1172,4.1172,4.1172,4.1172,4.1172,4.1172,4.1172,4.1172,4.1172,4.1172,4.1172,4.1172,4.1172,4.1172,4.1172,4.1172,4.1172,4.1172,4.1172,4.1172,4.1172,4.1172,1.7582,1.7582,1.7582,1.7582,1.7582,1.7582,1.7582,1.7582,1.7582,1.7582,1.7849,1.8968,2.163,2.1122,2.1657,2.4315,2.346,2.2659,2.2418,2.1029,2.0748,2.1937,2.0535,1.9746,1.98,1.9746,1.9025,1.7635,1.7687,1.7845,1.8227,2.0641,2.1499,2.126,2.5231,2.8477,3.1058,3.2738,3.5391,3.8398,3.8457,3.8457,3.8242,3.6699,3.7129,3.8574,3.8574,3.8828,3.918,3.918,3.9453,3.9492,3.7851,0.0,0.0,0.0,0.0,0.0,0.0,0.0,0.0,3.166,0.0,0.0,0.0,0.0,2.5693,0.0,0.0,0.0,0.0,0.0,0.0,0.0,0.0,0.0,0.0,0.0,0.0,0.0,0.0,0.0,0.0,3.291,3.4473,3.543,3.5488,3.6387,3.8457,3.8633,3.9434,4.1113,4.1172,4.1172,4.1172,4.1172,4.1172,4.1172,4.1172,4.1172,4.1172,4.1172,4.1172,4.1172,4.1172,4.1172,4.1172,4.1172,4.1172,4.1172,4.1172,4.1172,4.1172,4.1172,4.1172,4.1172,1.7582,1.7582,1.7582,1.7582,1.7582,1.7582,1.7582,1.7582,1.7929,1.8918,1.9145,2.0294,2.314,2.2311,2.2686,2.5545,2.4543,2.4115,2.4983,2.3674,2.3474,2.4836,2.3602,2.2734,2.2307,2.2438,2.1973,2.0826,2.1218,2.1659,2.235,2.3701,2.4189,2.3921,2.6931,2.9579,3.1907,3.3869,3.5566,3.6914,3.7207,3.6621,3.5781,3.748,3.8476,3.9023,3.9336,3.9531,3.9668,3.9668,3.9766,3.9785,3.9199,3.8223,3.709,3.6094,3.4863,3.4082,0.0,0.0,3.4473,3.5351,0.0,0.0,0.0,0.0,0.0,0.0,0.0,0.0,0.0,0.0,0.0,0.0,0.0,0.0,0.0,0.0,0.0,0.0,0.0,0.0,0.0,0.0,3.1191,3.3496,3.3672,3.4609,3.6777,3.7949,3.9375,4.1113,4.1172,4.1172,4.1172,4.1172,4.1172,4.1172,4.1172,4.1172,4.1172,4.1172,4.1172,4.1172,4.1172,4.1172,4.1172,4.1172,4.1172,4.1172,4.1172,4.1172,4.1172,4.1172,4.1172,4.1172,1.7609,1.7582,1.7582,1.7582,1.7582,1.7582,1.7582,1.8036,1.8557,1.9105,2.0,2.1336,2.3354,2.31,2.3754,2.6172,2.5531,2.5384,2.6333,2.501,2.5148,2.7171,2.5398,2.4771,2.5561,2.4376,2.3562,2.3142,2.2775,2.2953,2.3669,2.4559,2.4971,2.4979,2.7066,2.9297,3.1601,3.3613,3.5254,3.6504,3.6777,3.623,0.0,0.0,3.8652,3.8652,3.957,4.0,4.0117,4.0117,4.0215,4.0351,4.0351,3.959,3.8633,3.8359,3.7363,3.6621,3.7734,3.748,0.0,3.8008,3.5918,0.0,3.2676,0.0,2.8887,0.0,0.0,0.0,0.0,0.0,0.0,0.0,0.0,0.0,0.0,2.5693,0.0,0.0,0.0,0.0,0.0,0.0,2.9062,3.1465,3.1641,3.293,3.5859,3.707,3.875,4.1094,4.1172,4.1172,4.1172,4.1172,4.1172,4.1172,4.1172,4.1172,4.1172,4.1172,4.1172,4.1172,4.1172,4.1172,4.1172,4.1172,4.1172,4.1172,4.1172,4.1172,4.1172,4.1172,4.1172,4.1172,1.7662,1.7595,1.7582,1.7582,1.7582,1.7582,1.7582,1.8798,1.9345,1.8235,2.0401,2.2138,2.2485,2.3594,2.4877,2.6266,2.6386,2.6386,2.6386,2.509,2.5662,2.8642,2.601,2.584,2.885,0.0,0.0,0.0,0.0,2.1641,2.2131,2.3285,0.0,0.0,2.5706,2.7793,3.0312,3.1973,3.4453,3.7305,3.7422,3.7402,3.7383,3.7891,3.7773,3.7578,3.9336,4.0215,4.0547,4.0547,4.084,4.1172,4.1172,4.1172,4.1172,4.1172,4.0879,4.0547,4.0547,3.9062,3.7891,3.9551,3.709,0.0,0.0,0.0,3.3457,0.0,0.0,0.0,0.0,0.0,0.0,0.0,0.0,0.0,0.0,0.0,0.0,0.0,0.0,0.0,0.0,2.7422,2.8276,2.9528,2.9646,3.1445,0.0,3.5957,3.7539,4.0937,4.1133,4.1172,4.1172,4.1172,4.1172,4.1172,4.1172,4.1172,4.1172,4.1172,4.1172,4.1172,4.1172,4.1172,4.1172,4.1172,4.1172,4.1172,4.1172,4.1172,4.1172,4.1172,4.1172,4.1172,1.7889,1.7742,1.7582,1.7582,1.7582,1.7582,1.7582,1.8103,1.8728,1.9514,2.1216,2.2752,2.3941,2.5117,2.5985,2.636,2.6386,2.6386,2.6386,2.6039,2.6232,2.6991,2.7474,2.7386,2.6671,2.5865,2.4797,2.3409,0.0,0.0,2.2735,0.0,0.0,0.0,0.0,2.75,3.0234,3.0684,3.3359,3.7441,3.9043,3.8926,3.7949,0.0,3.9473,3.8476,4.0215,4.0918,4.1016,4.1016,4.1074,4.1172,4.1172,4.1172,4.1172,4.1172,4.1094,4.1016,4.1016,4.0605,4.0293,4.0723,3.8867,3.6973,0.0,0.0,0.0,0.0,0.0,0.0,0.0,0.0,0.0,0.0,0.0,0.0,0.0,0.0,0.0,2.5693,0.0,0.0,0.0,2.7695,2.8535,2.9548,2.9863,3.123,3.3945,0.0,3.668,3.916,4.0488,4.1172,4.1172,4.1172,4.1172,4.1172,4.1172,4.1172,4.1172,4.1172,4.1172,4.1172,4.1172,4.1172,4.1172,4.1172,4.1172,4.1172,4.1172,4.1172,4.1172,4.1172,4.1172,4.1172,1.8263,1.8103,1.7983,1.7983,1.8076,1.8303,1.8677,1.9546,2.0494,2.1456,2.3313,2.4663,2.4983,2.6066,2.6774,2.6774,2.6774,2.6774,2.6774,2.6774,2.7081,2.7786,2.8806,2.9464,2.9719,2.8857,0.0,2.6662,0.0,0.0,2.4272,0.0,0.0,0.0,0.0,2.7441,2.9492,3.1582,3.4023,3.666,3.8809,3.9082,0.0,3.957,3.9902,3.9844,4.082,4.1172,4.1172,4.1172,4.1172,4.1172,4.1172,4.1172,4.1172,4.1172,4.1172,4.1172,4.1172,4.1172,4.1172,4.1172,4.0254,3.9277,3.9043,3.8047,3.7168,0.0,3.6426,3.5586,0.0,0.0,0.0,0.0,0.0,0.0,0.0,0.0,0.0,0.0,2.6074,0.0,2.6699,2.7676,2.8496,2.8984,2.957,3.1191,0.0,0.0,3.5586,3.8476,3.9531,3.9668,3.8926,4.043,4.0801,4.0039,4.082,4.1172,4.1172,4.1172,4.1172,4.1172,4.1172,4.1172,4.1172,4.1172,4.1172,4.1172,4.1172,4.1172,4.1172,4.1172,4.1172,4.1172,1.8544,1.849,1.8557,1.8744,1.8891,1.9412,2.0722,2.1924,2.2846,2.3273,2.5491,2.6653,2.5625,2.656,2.7268,2.7268,2.7268,2.7268,2.7268,2.735,2.7988,2.9324,2.9822,3.133,3.4099,3.2357,3.1216,0.0,0.0,0.0,0.0,0.0,0.0,0.0,0.0,0.0,0.0,3.3496,3.5547,3.5996,3.8086,3.8906,3.8906,3.8906,3.9863,4.1172,4.1172,4.1172,4.1172,4.1172,4.1172,4.1172,4.1172,4.1172,4.1172,4.1172,4.1172,4.1172,4.1172,4.1172,4.1172,4.1172,4.1172,4.1172,4.1172,4.1172,4.1172,4.1172,3.9668,3.8398,3.8555,0.0,0.0,0.0,0.0,0.0,0.0,0.0,0.0,0.0,0.0,0.0,0.0,2.7519,2.8242,2.8281,2.9043,3.1016,0.0,0.0,3.4297,3.7793,3.834,3.7851,3.6367,3.9551,4.041,3.8926,4.0449,4.1172,4.1172,4.1172,4.1172,4.1172,4.1172,4.1172,4.1172,4.1172,4.1172,4.1172,4.1172,4.1172,4.1172,4.1172,4.1172,4.1172,1.8544,1.849,1.8878,2.008,1.9733,2.0481,2.4048,2.2993,2.2151,2.3193,2.4783,2.5745,2.5531,2.656,2.7268,2.7268,2.7268,2.7268,2.7268,2.7595,2.7758,2.7744,2.9822,3.0931,3.0786,3.1316,3.0525,0.0,0.0,0.0,2.5197,0.0,0.0,0.0,0.0,0.0,3.1152,3.4121,0.0,3.8184,3.998,4.0723,4.0723,4.0723,4.0898,4.1172,4.1172,4.1172,4.1172,4.1172,4.1172,4.1172,4.1172,4.1172,4.1172,4.1172,4.1172,4.1172,4.1172,4.1172,4.1172,4.1172,4.1172,4.1172,4.1172,4.1172,4.1172,4.1172,4.0879,4.0195,3.8828,0.0,0.0,0.0,0.0,0.0,0.0,0.0,0.0,0.0,0.0,2.918,0.0,0.0,0.0,2.8262,2.875,0.0,0.0,0.0,3.291,0.0,3.709,3.8437,0.0,0.0,4.1016,4.0723,4.1035,4.1172,4.1172,4.1172,4.1172,4.1172,4.1172,4.1172,4.1172,4.1172,4.1172,4.1172,4.1172,4.1172,4.1172,4.1172,4.1172,4.1172,1.8971,1.8945,1.9212,2.0067,2.0508,2.1657,2.4409,2.4396,2.4489,2.5665,2.644,2.6881,2.6881,2.7388,2.7805,2.7805,2.7805,2.7805,2.7805,2.7971,2.7971,2.7805,3.0074,3.1528,3.2,3.352,3.2994,3.0526,0.0,2.9141,2.6214,0.0,0.0,0.0,0.0,3.0293,0.0,0.0,3.7422,3.873,4.0469,4.1172,4.1172,4.1172,4.1172,4.1172,4.1172,4.1172,4.1172,4.1172,4.1172,4.1172,4.1172,4.1172,4.1172,4.1172,4.1172,4.1172,4.1172,4.1172,4.1172,4.1172,4.1172,4.1172,4.1172,4.1172,4.1172,4.1172,4.1172,4.0566,3.8594,3.6719,0.0,0.0,0.0,0.0,0.0,0.0,3.0586,0.0,0.0,0.0,0.0,0.0,0.0,0.0,0.0,0.0,0.0,0.0,3.2266,0.0,0.0,0.0,3.625,0.0,4.0391,3.8867,4.043,4.1172,4.1172,4.1172,4.1172,4.1172,4.1172,4.1172,4.1172,4.1172,4.1172,4.1172,4.1172,4.1172,4.1172,4.1172,4.1172,4.1172,2.0241,2.0154,2.0094,2.0641,2.1483,2.2659,2.4409,2.5651,2.6814,2.8073,2.8221,2.8221,2.8221,2.8221,2.8221,2.8221,2.8221,2.8221,2.8221,2.8642,2.8796,2.8726,3.1271,3.3217,3.4522,3.65,3.6347,0.0,0.0,0.0,0.0,0.0,0.0,0.0,0.0,0.0,0.0,0.0,3.8398,3.9238,4.0625,4.1172,4.1172,4.1172,4.1172,4.1172,4.1172,4.1172,4.1172,4.1172,4.1172,4.1172,4.1172,4.1172,4.1172,4.1172,4.1172,4.1172,4.1172,4.1172,4.1172,4.1172,4.1172,4.1172,4.1172,4.1172,4.1172,4.1172,4.1172,4.0644,3.8926,3.8379,0.0,0.0,0.0,0.0,0.0,0.0,0.0,0.0,0.0,0.0,3.0703,0.0,0.0,0.0,0.0,0.0,3.2559,0.0,0.0,0.0,0.0,3.5195,3.4355,0.0,3.9707,3.7656,4.0039,4.1172,4.1172,4.1172,4.1172,4.1172,4.1172,4.1172,4.1172,4.1172,4.1172,4.1172,4.1172,4.1172,4.1172,4.1172,4.1172,4.1172,2.3169,2.2485,2.2178,2.3554,2.3006,2.3233,2.5798,2.6306,2.6814,2.8073,2.8221,2.8221,2.8221,2.8221,2.8221,2.8221,2.8221,2.8221,2.8221,3.0038,3.0939,3.0538,3.4522,3.6637,3.6396,3.8845,3.9089,0.0,0.0,3.2926,0.0,0.0,0.0,0.0,0.0,0.0,3.7402,3.7773,3.9082,4.0937,4.1113,4.1172,4.1172,4.1172,4.1172,4.1172,4.1172,4.1172,4.1172,4.1172,4.1172,4.1172,4.1172,4.1172,4.1172,4.1172,4.1172,4.1172,4.1172,4.1172,4.1172,4.1172,4.1172,4.1172,4.1172,4.1172,4.1172,4.1172,4.1172,4.1113,4.0898,3.9883,3.8379,0.0,0.0,0.0,0.0,0.0,3.541,3.3476,0.0,0.0,0.0,3.0098,0.0,0.0,2.916,0.0,0.0,0.0,0.0,3.3027,3.3848,3.459,3.5254,3.8008,3.9844,4.0762,4.1035,4.1172,4.1172,4.1172,4.1172,4.1172,4.1172,4.1172,4.1172,4.1172,4.1172,4.1172,4.1172,4.1172,4.1172,4.1172,4.1172,4.1172,2.3514,2.338,2.33,2.4075,2.4396,2.4957,2.6199,2.6987,2.7615,2.8167,2.8221,2.8221,2.8221,2.8221,2.8221,2.8221,2.8221,2.8221,2.8221,2.9955,3.0954,3.0788,3.374,3.5931,3.702,3.8249,3.8535,0.0,0.0,0.0,0.0,0.0,0.0,0.0,0.0,3.6309,3.8008,3.9316,4.0371,4.1172,4.1172,4.1172,4.1172,4.1172,4.1172,4.1172,4.1172,4.1172,4.1172,4.1172,4.1172,4.1172,4.1172,4.1172,4.1172,4.1172,4.1172,4.1172,4.1172,4.1172,4.1172,4.1172,4.1172,4.1172,4.1172,4.1172,4.1172,4.1172,4.1172,4.1172,4.1172,4.0742,3.9844,3.8203,0.0,0.0,0.0,0.0,0.0,3.4473,0.0,3.5723,0.0,3.1582,0.0,0.0,0.0,0.0,0.0,0.0,0.0,3.4668,0.0,3.6289,3.7676,3.8691,3.9473,4.0,4.0801,4.1172,4.1172,4.1172,4.1172,4.1172,4.1172,4.1172,4.1172,4.1172,4.1172,4.1172,4.1172,4.1172,4.1172,4.1172,4.1172,4.1172,2.481,2.4783,2.4609,2.481,2.5531,2.6146,2.636,2.7388,2.8221,2.8221,2.8221,2.8221,2.8221,2.8221,2.8221,2.8221,2.8221,2.8389,2.8964,3.0622,3.185,3.2494,3.4474,0.0,3.8231,3.8487,3.874,3.8887,3.6719,0.0,0.0,0.0,0.0,0.0,3.7246,3.8281,3.8984,4.0527,4.1172,4.1172,4.1172,4.1172,4.1172,4.1172,4.1172,4.1172,4.1172,4.1172,4.1172,4.1172,4.1172,4.1172,4.1172,4.1172,4.1172,4.1172,4.1172,4.1172,4.1172,4.1172,4.1172,4.1172,4.1172,4.1172,4.1172,4.1172,4.1172,4.1172,4.1172,4.1172,4.1172,4.1172,4.0703,3.9258,0.0,0.0,0.0,3.7031,0.0,3.5019,3.5762,3.6348,3.6055,3.2949,0.0,0.0,0.0,0.0,0.0,0.0,0.0,0.0,0.0,0.0,3.8242,3.8516,3.9023,3.9785,4.0723,4.1172,4.1172,4.1172,4.1172,4.1172,4.1172,4.1172,4.1172,4.1172,4.1172,4.1172,4.1172,4.1172,4.1172,4.1172,4.1172,4.1172,2.7886,2.7148,2.636,2.636,2.6373,2.6386,2.6386,2.7388,2.8221,2.8221,2.8221,2.8221,2.8221,2.8221,2.8221,2.8221,2.8221,2.8964,3.0622,3.2412,3.4278,0.0,0.0,3.9647,4.0431,4.0509,4.0666,4.1133,0.0,0.0,3.6601,0.0,3.5,3.7891,3.791,3.9121,4.1133,4.1172,4.1172,4.1172,4.1172,4.1172,4.1172,4.1172,4.1172,4.1172,4.1172,4.1172,4.1172,4.1172,4.1172,4.1172,4.1172,4.1172,4.1172,4.1172,4.1172,4.1172,4.1172,4.1172,4.1172,4.1172,4.1172,4.1172,4.1172,4.1172,4.1172,4.1172,4.1172,4.1172,4.1172,4.1172,4.0605,3.8867,0.0,0.0,0.0,3.7285,0.0,3.5059,3.5488,3.6035,3.6016,3.4043,0.0,0.0,0.0,0.0,0.0,0.0,0.0,3.4023,3.3281,0.0,3.6035,3.6894,3.8613,4.1152,4.1172,4.1172,4.1172,4.1172,4.1172,4.1172,4.1172,4.1172,4.1172,4.1172,4.1172,4.1172,4.1172,4.1172,4.1172,4.1172,4.1172,4.1172,2.798,2.7926,2.7671,2.7671,2.7671,2.7671,2.7671,2.798,2.8221,2.8221,2.8221,2.8221,2.8221,2.8221,2.8221,0.0,2.8221,2.8558,0.0,3.2165,3.4278,3.5251,3.8109,3.9981,4.0509,4.0509,4.0763,4.1172,0.0,0.0,0.0,3.834,3.9219,4.0137,4.0137,4.0527,4.1172,4.1172,4.1172,4.1172,4.1172,4.1172,4.1172,4.1172,4.1172,4.1172,4.1172,4.1172,4.1172,4.1172,4.1172,4.1172,4.1172,4.1172,4.1172,4.1172,4.1172,4.1172,4.1172,4.1172,4.1172,4.1172,4.1172,4.1172,4.1172,4.1172,4.1172,4.1172,4.1172,4.1172,4.1172,4.1172,4.0703,3.9238,3.9863,0.0,3.6855,0.0,3.8516,3.668,3.6719,3.7226,3.8105,3.625,0.0,0.0,0.0,0.0,0.0,0.0,0.0,0.0,3.7148,0.0,3.9512,3.8906,3.9473,4.1172,4.1172,4.1172,4.1172,4.1172,4.1172,4.1172,4.1172,4.1172,4.1172,4.1172,4.1172,4.1172,4.1172,4.1172,4.1172,4.1172,4.1172,4.1172,2.8087,2.8221,2.8221,2.8221,2.8221,2.8221,2.8221,2.8221,2.8221,2.8221,2.8221,2.8221,2.8221,2.8221,2.8221,2.8221,2.8305,2.881,2.9718,3.2015,3.405,3.5833,3.8029,3.9647,4.0763,4.0763,0.0,4.1172,3.9805,3.9141,3.918,4.0527,4.1172,4.1172,4.1172,4.1172,4.1172,4.1172,4.1172,4.1172,4.1172,4.1172,4.1172,4.1172,4.1172,4.1172,4.1172,4.1172,4.1172,4.1172,4.1172,4.1172,4.1172,4.1172,4.1172,4.1172,4.1172,4.1172,4.1172,4.1172,4.1172,4.1172,4.1172,4.1172,4.1172,4.1172,4.1172,4.1172,4.1172,4.1172,4.1172,4.1172,4.0898,4.0078,4.0625,4.043,3.8301,0.0,3.9238,0.0,0.0,3.8086,0.0,3.7754,3.6934,0.0,0.0,0.0,0.0,0.0,3.666,3.8047,3.8359,3.9121,4.043,3.9609,3.9863,4.1172,4.1172,4.1172,4.1172,4.1172,4.1172,4.1172,4.1172,4.1172,4.1172,4.1172,4.1172,4.1172,4.1172,4.1172,4.1172,4.1172,4.1172,4.1172,2.8221,2.8221,2.8221,2.8221,2.8221,2.8221,2.8221,2.8221,2.8221,2.8221,2.8221,2.8221,2.8221,2.8221,2.8221,2.8221,0.0,0.0,3.1188,3.1865,3.3903,3.7614,3.8011,3.9077,4.1172,4.1172,4.1172,4.1172,4.1172,4.1172,4.1172,4.1172,4.1172,4.1172,4.1172,4.1172,4.1172,4.1172,4.1172,4.1172,4.1172,4.1172,4.1172,4.1172,4.1172,4.1172,4.1172,4.1172,4.1172,4.1172,4.1172,4.1172,4.1172,4.1172,4.1172,4.1172,4.1172,4.1172,4.1172,4.1172,4.1172,4.1172,4.1172,4.1172,4.1172,4.1172,4.1172,4.1172,4.1172,4.1172,4.1172,4.1172,4.1172,4.1172,4.1172,4.0703,3.9394,4.0254,4.0,0.0,0.0,3.8652,3.875,3.875,3.8867,0.0,0.0,0.0,0.0,0.0,3.6738,3.7539,3.7578,3.8144,3.9336,3.9336,3.9961,4.1172,4.1172,4.1172,4.1172,4.1172,4.1172,4.1172,4.1172,4.1172,4.1172,4.1172,4.1172,4.1172,4.1172,4.1172,4.1172,4.1172,4.1172,4.1172,2.8221,2.8221,2.8221,2.8221,2.8221,2.8221,2.8221,2.8221,2.8221,2.8221,2.8221,2.8221,2.8221,2.8221,2.8221,2.8221,2.8318,2.881,2.9886,3.2561,3.4765,3.6396,3.898,4.0685,4.1172,4.1172,4.1172,4.1172,4.1172,4.1172,4.1172,4.1172,4.1172,4.1172,4.1172,4.1172,4.1172,4.1172,4.1172,4.1172,4.1172,4.1172,4.1172,4.1172,4.1172,4.1172,4.1172,4.1172,4.1172,4.1172,4.1172,4.1172,4.1172,4.1172,4.1172,4.1172,4.1172,4.1172,4.1172,4.1172,4.1172,4.1172,4.1172,4.1172,4.1172,4.1172,4.1172,4.1172,4.1172,4.1172,4.1172,4.1172,4.1172,4.1172,4.1172,4.0703,3.9394,3.9473,3.9414,0.0,3.8867,3.9453,4.0469,4.0547,4.0039,0.0,0.0,3.9375,3.7383,3.8984,4.0039,4.0254,4.0254,4.041,4.0703,4.0703,4.0859,4.1172,4.1172,4.1172,4.1172,4.1172,4.1172,4.1172,4.1172,4.1172,4.1172,4.1172,4.1172,4.1172,4.1172,4.1172,4.1172,4.1172,4.1172,4.1172,2.8221,2.8221,2.8221,2.8221,2.8221,2.8221,2.8221,2.8221,2.8221,2.8221,2.8221,2.8221,2.8221,2.8221,2.8221,2.8221,2.8403,2.9062,3.0622,3.2643,3.483,3.7117,3.898,4.0353,4.1172,4.1172,4.1172,4.1172,4.1172,4.1172,4.1172,4.1172,4.1172,4.1172,4.1172,4.1172,4.1172,4.1172,4.1172,4.1172,4.1172,4.1172,4.1172,4.1172,4.1172,4.1172,4.1172,4.1172,4.1172,4.1172,4.1172,4.1172,4.1172,4.1172,4.1172,4.1172,4.1172,4.1172,4.1172,4.1172,4.1172,4.1172,4.1172,4.1172,4.1172,4.1172,4.1172,4.1172,4.1172,4.1172,4.1172,4.1172,4.1172,4.1172,4.0664,4.0019,3.9297,3.9199,3.9199,3.9199,3.9726,4.0391,4.1113,4.1172,4.0781,3.9844,4.0078,0.0,3.8789,3.9707,4.0273,4.0273,4.0859,4.1172,4.1172,4.1172,4.1172,4.1172,4.1172,4.1172,4.1172,4.1172,4.1172,4.1172,4.1172,4.1172,4.1172,4.1172,4.1172,4.1172,4.1172,4.1172,4.1172,4.1172,4.1172,4.1172,2.8221,2.8221,2.8221,2.8221,2.8221,2.8221,2.8221,2.8221,2.8221,2.8221,2.8221,2.8221,2.8221,2.8221,2.8305,2.8558,2.8894,2.9969,3.185,3.289,3.4928,3.8329,3.8803,3.9707,4.1172,4.1172,4.1172,4.1172,4.1172,4.1172,4.1172,4.1172,4.1172,4.1172,4.1172,4.1172,4.1172,4.1172,4.1172,4.1172,4.1172,4.1172,4.1172,4.1172,4.1172,4.1172,4.1172,4.1172,4.1172,4.1172,4.1172,4.1172,4.1172,4.1172,4.1172,4.1172,4.1172,4.1172,4.1172,4.1172,4.1172,4.1172,4.1172,4.1172,4.1172,4.1172,4.1172,4.1172,4.1172,4.1172,4.1172,4.1172,4.1113,4.0898,3.9941,3.9141,3.8945,0.0,3.9199,3.9199,4.0371,4.1172,4.1172,4.1172,4.1172,4.1172,4.0137,3.9902,4.082,4.0,3.9414,3.9199,4.0488,4.1172,4.1172,4.1172,4.1172,4.1172,4.1172,4.1172,4.1172,4.1172,4.1172,4.1172,4.1172,4.1172,4.1172,4.1172,4.1172,4.1172,4.1172,4.1172,4.1172,4.1172,4.1172,4.1172,2.8221,2.8221,2.8221,2.8221,2.8221,2.8221,2.8221,2.8221,2.8221,2.8221,2.8221,2.8221,2.8221,2.8221,2.881,3.0289,3.0455,3.0788,3.1437,3.4668,3.702,3.7932,3.9786,4.0919,4.1172,4.1172,4.1172,4.1172,4.1172,4.1172,4.1172,4.1172,4.1172,4.1172,4.1172,4.1172,4.1172,4.1172,4.1172,4.1172,4.1172,4.1172,4.1172,4.1172,4.1172,4.1172,4.1172,4.1172,4.1172,4.1172,4.1172,4.1172,4.1172,4.1172,4.1172,4.1172,4.1172,4.1172,4.1172,4.1172,4.1172,4.1172,4.1172,4.1172,4.1172,4.1172,4.1172,4.1172,4.1172,4.1172,4.1172,4.1172,4.0801,3.9687,3.9336,3.8828,3.7754,0.0,3.9199,3.9199,4.0371,4.1172,4.1172,4.1172,4.1172,4.1172,4.0976,4.0469,3.9551,4.0371,4.0351,3.9238,4.0488,4.1172,4.1172,4.1172,4.1172,4.1172,4.1172,4.1172,4.1172,4.1172,4.1172,4.1172,4.1172,4.1172,4.1172,4.1172,4.1172,4.1172,4.1172,4.1172,4.1172,4.1172,4.1172,4.1172,2.8221,2.8221,2.8221,2.8221,2.8221,2.8221,2.8221,2.8221,2.8221,2.8221,2.8221,2.8221,2.8221,2.9062,2.9886,3.0705,3.2494,3.3724,3.3871,3.6058,3.7914,3.9216,4.0529,4.1172,4.1172,4.1172,4.1172,4.1172,4.1172,4.1172,4.1172,4.1172,4.1172,4.1172,4.1172,4.1172,4.1172,4.1172,4.1172,4.1172,4.1172,4.1172,4.1172,4.1172,4.1172,4.1172,4.1172,4.1172,4.1172,4.1172,4.1172,4.1172,4.1172,4.1172,4.1172,4.1172,4.1172,4.1172,4.1172,4.1172,4.1172,4.1172,4.1172,4.1172,4.1172,4.1172,4.1172,4.1172,4.1172,4.1172,4.1172,4.1172,4.0742,3.9414,3.9199,3.875,3.748,3.8398,3.9199,3.9199,4.0371,4.1172,4.1172,4.1172,4.1172,4.1172,4.1172,4.0898,4.0293,4.084,4.0898,4.0273,4.0859,4.1172,4.1172,4.1172,4.1172,4.1172,4.1172,4.1172,4.1172,4.1172,4.1172,4.1172,4.1172,4.1172,4.1172,4.1172,4.1172,4.1172,4.1172,4.1172,4.1172,4.1172,4.1172,4.1172,2.8221,2.8221,2.8221,2.8221,2.8221,2.8221,2.8221,2.8221,2.8221,2.8221,2.8221,2.8389,2.8726,2.9969,3.112,3.1933,3.4457,3.6155,3.6574,3.7436,3.8645,4.0275,4.0919,4.1172,4.1172,4.1172,4.1172,4.1172,4.1172,4.1172,4.1172,4.1172,4.1172,4.1172,4.1172,4.1172,4.1172,4.1172,4.1172,4.1172,4.1172,4.1172,4.1172,4.1172,4.1172,4.1172,4.1172,4.1172,4.1172,4.1172,4.1172,4.1172,4.1172,4.1172,4.1172,4.1172,4.1172,4.1172,4.1172,4.1172,4.1172,4.1172,4.1172,4.1172,4.1172,4.1172,4.1172,4.1172,4.1172,4.1172,4.1172,4.1172,4.0742,3.9414,0.0,3.8867,3.7871,3.8574,3.9316,3.9629,4.0547,4.1172,4.1172,4.1172,4.1172,4.1172,4.1172,4.1172,4.1172,4.1172,4.1172,4.1172,4.1172,4.1172,4.1172,4.1172,4.1172,4.1172,4.1172,4.1172,4.1172,4.1172,4.1172,4.1172,4.1172,4.1172,4.1172,4.1172,4.1172,4.1172,4.1172,4.1172,4.1172,4.1172,4.1172,4.1172,2.8221,2.8221,2.8221,2.8221,2.8221,2.8221,2.8221,2.8221,2.8221,2.8221,2.8221,2.881,3.0455,3.0705,3.2098,3.5349,3.5833,3.6654,3.8322,3.9193,3.9745,3.9902,4.0782,4.1172,4.1172,4.1172,4.1172,4.1172,4.1172,4.1172,4.1172,4.1172,4.1172,4.1172,4.1172,4.1172,4.1172,4.1172,4.1172,4.1172,4.1172,4.1172,4.1172,4.1172,4.1172,4.1172,4.1172,4.1172,4.1172,4.1172,4.1172,4.1172,4.1172,4.1172,4.1172,4.1172,4.1172,4.1172,4.1172,4.1172,4.1172,4.1172,4.1172,4.1172,4.1172,4.1172,4.1172,4.1172,4.1172,4.1172,4.1172,4.1172,4.0742,3.9414,0.0,0.0,3.9082,3.9141,3.9648,4.0879,4.1113,4.1172,4.1172,4.1172,4.1172,4.1172,4.1172,4.1172,4.1172,4.1172,4.1172,4.1172,4.1172,4.1172,4.1172,4.1172,4.1172,4.1172,4.1172,4.1172,4.1172,4.1172,4.1172,4.1172,4.1172,4.1172,4.1172,4.1172,4.1172,4.1172,4.1172,4.1172,4.1172,4.1172,4.1172,4.1172,2.8221,2.8221,2.8221,2.8221,2.8221,2.8221,2.8221,2.8221,2.8221,2.8221,2.9132,3.0038,3.0705,3.2741,3.4538,3.5914,3.6992,3.7906,3.856,3.9193,3.9902,4.0704,4.1016,4.1172,4.1172,4.1172,4.1172,4.1172,4.1172,4.1172,4.1172,4.1172,4.1172,4.1172,4.1172,4.1172,4.1172,4.1172,4.1172,4.1172,4.1172,4.1172,4.1172,4.1172,4.1172,4.1172,4.1172,4.1172,4.1172,4.1172,4.1172,4.1172,4.1172,4.1172,4.1172,4.1172,4.1172,4.1172,4.1172,4.1172,4.1172,4.1172,4.1172,4.1172,4.1172,4.1172,4.1172,4.1172,4.1172,4.1172,4.1172,4.1172,4.0742,3.9414,0.0,4.0137,3.9316,3.9902,4.0605,4.1113,4.1172,4.1172,4.1172,4.1172,4.1172,4.1172,4.1172,4.1172,4.1172,4.1172,4.1172,4.1172,4.1172,4.1172,4.1172,4.1172,4.1172,4.1172,4.1172,4.1172,4.1172,4.1172,4.1172,4.1172,4.1172,4.1172,4.1172,4.1172,4.1172,4.1172,4.1172,4.1172,4.1172,4.1172,4.1172,4.1172,2.8221,2.8221,2.8221,2.8221,2.8221,2.8221,2.8221,2.8221,2.8389,2.8964,3.0038,3.1203,3.233,3.4538,3.6236,3.6735,3.7906,3.856,3.856,3.9193,3.9902,4.0919,4.1094,4.1172,4.1172,4.1172,4.1172,4.1172,4.1172,4.1172,4.1172,4.1172,4.1172,4.1172,4.1172,4.1172,4.1172,4.1172,4.1172,4.1172,4.1172,4.1172,4.1172,4.1172,4.1172,4.1172,4.1172,4.1172,4.1172,4.1172,4.1172,4.1172,4.1172,4.1172,4.1172,4.1172,4.1172,4.1172,4.1172,4.1172,4.1172,4.1172,4.1172,4.1172,4.1172,4.1172,4.1172,4.1172,4.1172,4.1172,4.1172,4.1172,4.0879,3.9961,4.0586,4.0859,3.9941,4.0605,4.1172,4.1172,4.1172,4.1172,4.1172,4.1172,4.1172,4.1172,4.1172,4.1172,4.1172,4.1172,4.1172,4.1172,4.1172,4.1172,4.1172,4.1172,4.1172,4.1172,4.1172,4.1172,4.1172,4.1172,4.1172,4.1172,4.1172,4.1172,4.1172,4.1172,4.1172,4.1172,4.1172,4.1172,4.1172,4.1172,4.1172,4.1172,2.8221,2.8221,2.8221,2.8221,2.8221,2.8221,2.8221,2.8234,2.881,3.0538,3.0788,3.2165,3.5591,3.5994,3.6735,3.8481,3.856,3.856,3.864,3.943,4.0059,4.0509,4.0919,4.1172,4.1172,4.1172,4.1172,4.1172,4.1172,4.1172,4.1172,4.1172,4.1172,4.1172,4.1172,4.1172,4.1172,4.1172,4.1172,4.1172,4.1172,4.1172,4.1172,4.1172,4.1172,4.1172,4.1172,4.1172,4.1172,4.1172,4.1172,4.1172,4.1172,4.1172,4.1172,4.1172,4.1172,4.1172,4.1172,4.1172,4.1172,4.1172,4.1172,4.1172,4.1172,4.1172,4.1172,4.1172,4.1172,4.1172,4.1172,4.1172,4.1172,4.1172,4.1172,4.1172,4.1172,4.1172,4.1172,4.1172,4.1172,4.1172,4.1172,4.1172,4.1172,4.1172,4.1172,4.1172,4.1172,4.1172,4.1172,4.1172,4.1172,4.1172,4.1172,4.1172,4.1172,4.1172,4.1172,4.1172,4.1172,4.1172,4.1172,4.1172,4.1172,4.1172,4.1172,4.1172,4.1172,4.1172,4.1172,4.1172,4.1172,4.1172,4.1172,4.1172,2.8221,2.8221,2.8221,2.8221,2.8221,2.8221,2.8221,2.9216,3.0205,3.0705,3.2905,3.4863,3.5914,3.7072,3.8066,3.856,3.856,3.8877,3.943,3.9745,4.0216,4.0919,4.1094,4.1172,4.1172,4.1172,4.1172,4.1172,4.1172,4.1172,4.1172,4.1172,4.1172,4.1172,4.1172,4.1172,4.1172,4.1172,4.1172,4.1172,4.1172,4.1172,4.1172,4.1172,4.1172,4.1172,4.1172,4.1172,4.1172,4.1172,4.1172,4.1172,4.1172,4.1172,4.1172,4.1172,4.1172,4.1172,4.1172,4.1172,4.1172,4.1172,4.1172,4.1172,4.1172,4.1172,4.1172,4.1172,4.1172,4.1172,4.1172,4.1172,4.1172,4.1172,4.1172,4.1172,4.1172,4.1172,4.1172,4.1172,4.1172,4.1172,4.1172,4.1172,4.1172,4.1172,4.1172,4.1172,4.1172,4.1172,4.1172,4.1172,4.1172,4.1172,4.1172,4.1172,4.1172,4.1172,4.1172,4.1172,4.1172,4.1172,4.1172,4.1172,4.1172,4.1172,4.1172,4.1172,4.1172,4.1172,4.1172,4.1172,4.1172,4.1172,4.1172,4.1172,2.8221,2.8221,2.8221,2.8221,2.8221,2.8221,2.8221,2.9718,3.1037,3.1768,3.4294,3.6236,3.6992,3.7986,3.856,3.856,3.856,3.8956,3.9823,3.9902,4.0294,4.1172,4.1172,4.1172,4.1172,4.1172,4.1172,4.1172,4.1172,4.1172,4.1172,4.1172,4.1172,4.1172,4.1172,4.1172,4.1172,4.1172,4.1172,4.1172,4.1172,4.1172,4.1172,4.1172,4.1172,4.1172,4.1172,4.1172,4.1172,4.1172,4.1172,4.1172,4.1172,4.1172,4.1172,4.1172,4.1172,4.1172,4.1172,4.1172,4.1172,4.1172,4.1172,4.1172,4.1172,4.1172,4.1172,4.1172,4.1172,4.1172,4.1172,4.1172,4.1172,4.1172,4.1172,4.1172,4.1172,4.1172,4.1172,4.1172,4.1172,4.1172,4.1172,4.1172,4.1172,4.1172,4.1172,4.1172,4.1172,4.1172,4.1172,4.1172,4.1172,4.1172,4.1172,4.1172,4.1172,4.1172,4.1172,4.1172,4.1172,4.1172,4.1172,4.1172,4.1172,4.1172,4.1172,4.1172,4.1172,4.1172,4.1172,4.1172,4.1172,4.1172,4.1172,4.1172,2.8221,2.8305,2.8389,2.8389,2.8558,2.8628,2.8628,3.0122,3.185,3.3397,3.5187,3.6832,3.8402,3.856,3.856,3.856,3.856,3.8956,3.9823,3.9902,4.0294,4.1172,4.1172,4.1172,4.1172,4.1172,4.1172,4.1172,4.1172,4.1172,4.1172,4.1172,4.1172,4.1172,4.1172,4.1172,4.1172,4.1172,4.1172,4.1172,4.1172,4.1172,4.1172,4.1172,4.1172,4.1172,4.1172,4.1172,4.1172,4.1172,4.1172,4.1172,4.1172,4.1172,4.1172,4.1172,4.1172,4.1172,4.1172,4.1172,4.1172,4.1172,4.1172,4.1172,4.1172,4.1172,4.1172,4.1172,4.1172,4.1172,4.1172,4.1172,4.1172,4.1172,4.1172,4.1172,4.1172,4.1172,4.1172,4.1172,4.1172,4.1172,4.1172,4.1172,4.1172,4.1172,4.1172,4.1172,4.1172,4.1172,4.1172,4.1172,4.1172,4.1172,4.1172,4.1172,4.1172,4.1172,4.1172,4.1172,4.1172,4.1172,4.1172,4.1172,4.1172,4.1172,4.1172,4.1172,4.1172,4.1172,4.1172,4.1172,4.1172,4.1172,4.1172,4.1172,2.8221,2.93,3.0205,3.0205,3.1354,3.2247,3.2247,3.3708,3.5025,3.543,3.6912,3.8145,3.856,3.856,3.856,3.856,3.856,3.8956,3.9823,3.9902,4.0294,4.1172,4.1172,4.1172,4.1172,4.1172,4.1172,4.1172,4.1172,4.1172,4.1172,4.1172,4.1172,4.1172,4.1172,4.1172,4.1172,4.1172,4.1172,4.1172,4.1172,4.1172,4.1172,4.1172,4.1172,4.1172,4.1172,4.1172,4.1172,4.1172,4.1172,4.1172,4.1172,4.1172,4.1172,4.1172,4.1172,4.1172,4.1172,4.1172,4.1172,4.1172,4.1172,4.1172,4.1172,4.1172,4.1172,4.1172,4.1172,4.1172,4.1172,4.1172,4.1172,4.1172,4.1172,4.1172,4.1172,4.1172,4.1172,4.1172,4.1172,4.1172,4.1172,4.1172,4.1172,4.1172,4.1172,4.1172,4.1172,4.1172,4.1172,4.1172,4.1172,4.1172,4.1172,4.1172,4.1172,4.1172,4.1172,4.1172,4.1172,4.1172,4.1172,4.1172,4.1172,4.1172,4.1172,4.1172,4.1172,4.1172,4.1172,4.1172,4.1172,4.1172,4.1172,4.1172,2.93,3.0205,3.1037,3.1933,3.2823,3.3397,3.3397,3.4863,3.5994,3.5994,3.749,3.856,3.856,3.856,3.856,3.856,3.8798,3.9193,3.9823,4.0059,4.0451,4.1172,4.1172,4.1172,4.1172,4.1172,4.1172,4.1172,4.1172,4.1172,4.1172,4.1172,4.1172,4.1172,4.1172,4.1172,4.1172,4.1172,4.1172,4.1172,4.1172,4.1172,4.1172,4.1172,4.1172,4.1172,4.1172,4.1172,4.1172,4.1172,4.1172,4.1172,4.1172,4.1172,4.1172,4.1172,4.1172,4.1172,4.1172,4.1172,4.1172,4.1172,4.1172,4.1172,4.1172,4.1172,4.1172,4.1172,4.1172,4.1172,4.1172,4.1172,4.1172,4.1172,4.1172,4.1172,4.1172,4.1172,4.1172,4.1172,4.1172,4.1172,4.1172,4.1172,4.1172,4.1172,4.1172,4.1172,4.1172,4.1172,4.1172,4.1172,4.1172,4.1172,4.1172,4.1172,4.1172,4.1172,4.1172,4.1172,4.1172,4.1172,4.1172,4.1172,4.1172,4.1172,4.1172,4.1172,4.1172,4.1172,4.1172,4.1172,4.1172,4.1172,4.1172,4.125,3.0939,3.152,3.218,3.356,3.4132,3.4294,3.4294,3.5511,3.6414,3.6414,3.7729,3.856,3.856,3.864,3.8719,3.864,3.9114,3.9509,3.9902,4.0275,4.0685,4.1172,4.1172,4.1172,4.1172,4.1172,4.1172,4.1172,4.1172,4.1172,4.1172,4.1172,4.1133,4.1074,4.1133,4.1133,4.1074,4.1152,4.1172,4.1172,4.1172,4.1172,4.1172,4.1172,4.1172,4.1172,4.1172,4.1172,4.1172,4.1172,4.1172,4.1172,4.1172,4.1172,4.1172,4.1172,4.1172,4.1172,4.1172,4.1172,4.1172,4.1172,4.1172,4.1172,4.1172,4.1172,4.1172,4.1172,4.1172,4.1172,4.1172,4.1172,4.1172,4.1172,4.1172,4.1172,4.1172,4.1172,4.1172,4.1172,4.1172,4.1172,4.1172,4.1172,4.1172,4.1172,4.1172,4.1172,4.1172,4.1172,4.1172,4.1172,4.1172,4.1172,4.1172,4.1172,4.1172,4.1172,4.1172,4.1172,4.1172,4.1172,4.1172,4.1172,4.1172,4.1172,4.1172,4.1172,4.1172,4.1172,4.1172,4.1172,4.1172,4.1172,4.125,4.1327,3.2987,3.4294,3.5349,3.5591,3.6912,3.7906,3.7906,3.8066,3.8225,3.8225,3.8481,3.856,3.856,3.8956,3.9035,3.864,3.9351,3.9823,3.9902,4.0275,4.0685,4.1172,4.1172,4.1172,4.1172,4.1172,4.1172,4.1172,4.1172,4.1172,4.1172,4.1172,4.0976,4.0625,4.1016,4.0957,4.0644,4.1016,4.1172,4.1172,4.1172,4.1172,4.1172,4.1172,4.1172,4.1172,4.1172,4.1172,4.1172,4.1172,4.1172,4.1172,4.1172,4.1172,4.1172,4.1172,4.1172,4.1172,4.1172,4.1172,4.1172,4.1172,4.1172,4.1172,4.1172,4.1172,4.1172,4.1172,4.1172,4.1172,4.1172,4.1172,4.1172,4.1172,4.1172,4.1172,4.1172,4.1172,4.1172,4.1172,4.1172,4.1172,4.1172,4.1172,4.1172,4.1172,4.1172,4.1172,4.1172,4.1172,4.1172,4.1172,4.1172,4.1172,4.1172,4.1172,4.1172,4.1172,4.1172,4.1172,4.1172,4.1172,4.1172,4.1172,4.1172,4.1172,4.1172,4.1172,4.1172,4.1172,4.1172,4.1172,4.1172,4.1172,4.1405,4.1695,3.4701,3.5511,3.6333,3.7312,3.8066,3.856,3.856,3.856,3.856,3.856,3.856,3.856,3.856,3.9035,3.9193,3.9035,3.9745,4.0216,4.0216,4.0685,4.0997,4.1172,4.1172,4.1172,4.1172,4.1172,4.1172,4.1172,4.1172,4.1172,4.1172,4.1172,4.0937,4.0527,4.0723,4.0703,4.0527,4.0723,4.0957,4.1172,4.1172,4.1172,4.1172,4.1172,4.1172,4.1172,4.1172,4.1172,4.1172,4.1172,4.1172,4.1172,4.1172,4.1172,4.1172,4.1172,4.1172,4.1172,4.1172,4.1172,4.1172,4.1172,4.1172,4.1172,4.1172,4.1172,4.1172,4.1172,4.1172,4.1172,4.1172,4.1172,4.1172,4.1172,4.1172,4.1172,4.1172,4.1172,4.1172,4.1172,4.1172,4.1172,4.1172,4.1172,4.1172,4.1172,4.1172,4.1172,4.1172,4.1172,4.1172,4.1172,4.1172,4.1172,4.1172,4.1172,4.1172,4.1172,4.1172,4.1172,4.1172,4.1172,4.1172,4.1172,4.1172,4.1172,4.1172,4.1172,4.1172,4.1172,4.1172,4.1172,4.125,4.1483,4.1618,4.185]}]]